ECMWFNIL_850_thetae_000.txt.gz
Theta_e
304 306 307 308 308 308 308 308 309 309 309 310 311 311 311 312 311 311 311 311 312 312 312 311 312 314 315 317 318 321 325 328 328 329 330 330 330 330 328 327 327 327
304 306 308 308 308 308 308 308 308 308 309 309 310 310 311 311 311 312 312 312 312 312 312 312 312 313 314 315 317 320 324 329 329 328 329 329 330 330 329 327 327 327
303 305 306 308 308 308 308 308 308 309 309 309 309 310 311 311 311 311 311 312 312 312 313 313 312 312 313 313 315 318 322 327 329 329 329 330 330 330 330 328 327 327
302 302 304 305 306 307 307 307 307 308 309 309 309 310 310 311 311 311 311 311 312 312 313 314 313 312 312 312 313 314 319 324 328 329 329 330 330 330 330 328 328 328
301 301 301 302 304 305 306 307 307 307 308 308 309 310 310 310 311 311 311 311 311 311 312 313 314 313 312 312 312 312 313 318 323 327 329 329 329 330 329 328 328 328
300 300 300 300 301 303 304 306 306 307 307 308 308 309 310 310 310 310 311 311 311 311 312 312 314 314 313 312 312 311 311 312 317 323 327 328 329 329 329 329 328 328
300 300 299 299 300 301 303 304 306 306 307 307 308 308 309 309 310 310 310 310 310 310 311 312 313 314 314 312 312 311 310 309 312 317 323 327 328 329 328 329 329 329
299 299 299 299 299 301 303 304 305 306 306 307 307 308 308 308 308 309 310 310 310 310 311 312 313 314 314 314 312 311 310 309 309 312 319 325 328 328 329 328 329 328
298 299 298 299 300 302 304 304 305 306 306 306 307 307 307 307 307 308 308 309 310 310 310 311 312 313 314 314 313 312 310 309 307 309 316 323 326 328 329 328 329 329
298 298 298 300 302 303 304 304 305 305 305 306 307 307 307 307 308 307 307 308 309 309 310 310 312 313 313 314 314 313 311 309 307 307 313 321 325 327 328 329 329 329
297 299 301 302 303 304 304 304 304 304 305 305 305 306 307 307 307 307 307 308 308 309 309 309 310 312 313 313 314 314 312 309 308 307 310 318 324 327 328 329 329 328
298 300 302 303 303 303 303 303 304 304 304 304 304 305 306 306 307 307 307 307 308 309 309 309 310 311 312 313 313 314 313 311 309 308 308 316 323 327 328 328 328 328
299 301 302 302 302 302 302 302 303 303 304 304 304 304 305 305 306 307 307 307 308 309 309 309 309 310 312 312 313 314 314 312 311 310 310 315 321 325 327 327 328 327
300 301 302 302 302 302 302 302 303 303 303 304 304 304 304 305 305 306 307 307 307 308 309 309 309 310 311 312 312 313 314 313 311 311 312 315 320 324 326 327 327 327
301 301 301 301 301 301 302 302 302 302 302 302 303 303 303 303 304 305 306 307 307 307 308 309 310 310 311 312 312 313 314 314 312 311 311 315 319 323 325 326 327 326
300 301 300 300 301 301 301 301 301 301 301 300 301 301 302 302 303 304 305 306 307 307 308 309 310 310 310 312 312 312 314 315 314 312 312 313 318 322 325 327 326 326
300 300 300 300 301 301 300 300 300 299 299 299 299 299 300 301 302 303 304 305 307 308 308 309 310 310 310 311 312 312 314 315 315 314 313 314 317 321 324 326 326 326
300 299 300 300 300 300 299 298 298 298 298 298 298 298 299 299 300 302 303 305 306 307 308 308 309 310 310 310 312 313 314 316 317 315 315 316 318 321 323 325 326 326
299 299 300 300 299 298 298 297 297 297 298 298 298 298 298 299 300 302 303 305 307 308 308 308 308 309 309 310 312 313 314 316 317 317 316 317 319 323 324 325 326 326
299 299 299 298 298 297 297 297 297 297 298 298 298 298 298 298 300 303 304 306 308 308 308 308 308 309 309 310 312 314 315 317 318 318 317 318 321 323 325 326 326 325
298 298 298 297 297 297 296 297 297 297 298 298 298 298 298 298 300 303 304 306 308 310 311 311 309 309 309 310 313 315 315 317 318 318 318 319 321 323 325 326 325 323
298 297 297 296 296 296 296 296 297 297 297 297 297 298 299 300 301 303 304 306 308 311 313 312 311 310 310 311 313 315 316 317 318 318 317 319 321 323 325 325 323 321
298 297 296 296 296 296 296 297 296 297 297 297 297 299 300 302 303 305 305 307 309 312 313 312 312 311 311 312 314 315 316 318 318 317 317 318 320 323 325 324 321 319
297 297 296 296 296 296 296 296 296 296 296 296 297 298 300 302 304 305 306 307 310 312 313 313 313 312 311 312 314 315 316 317 317 318 318 318 320 323 324 323 320 319
297 296 296 296 296 296 296 295 295 295 295 296 296 297 299 301 302 304 305 308 310 311 312 313 313 311 310 311 314 316 316 316 317 318 318 319 320 322 323 322 321 320
296 296 296 296 296 296 295 295 295 295 295 296 297 298 300 301 302 303 306 308 310 311 312 312 311 310 310 311 314 316 316 315 316 318 319 319 320 322 323 322 322 323

ECMWFNIL_850_thetae_003.txt.gz
Theta_e
304 304 303 303 302 302 303 303 304 306 308 309 309 309 309 309 309 309 309 309 310 311 312 311 311 312 312 312 312 312 314 317 320 321 321 322 326 329 329 329 329 326
303 303 303 302 302 302 302 302 303 304 305 307 308 309 309 309 309 309 310 309 309 310 312 312 311 312 312 312 312 312 313 315 317 319 321 321 323 327 330 329 329 327
303 303 303 302 302 301 301 301 302 302 303 304 306 308 308 309 308 309 309 310 310 310 310 311 312 312 312 312 312 312 313 314 316 319 321 321 321 323 327 329 328 328
303 303 302 302 301 301 301 301 301 301 301 302 303 304 306 308 309 309 309 309 310 310 310 311 311 312 312 312 312 312 312 313 314 317 319 322 323 322 325 328 329 328
303 302 302 301 301 300 300 301 301 301 301 301 302 302 304 306 308 308 309 309 309 310 310 310 311 311 312 312 313 312 312 313 313 315 316 319 322 323 324 327 329 329
302 301 301 301 300 300 299 300 300 300 300 301 301 301 303 305 306 308 308 309 309 309 310 310 310 311 311 311 313 313 313 312 313 314 315 316 318 322 326 326 327 328
301 301 300 300 299 299 299 299 299 300 300 301 301 302 303 304 306 307 308 308 308 309 309 309 309 310 311 311 312 313 313 313 313 313 315 316 316 319 324 326 326 327
300 300 299 298 298 298 298 299 299 300 301 301 302 303 304 305 306 306 307 307 308 308 309 309 309 309 310 311 311 312 312 313 313 313 314 316 316 316 319 324 327 327
300 298 297 297 297 297 298 298 299 300 301 302 303 304 304 305 306 306 307 307 307 308 308 309 309 309 309 310 311 312 313 313 313 313 313 314 315 316 317 320 325 328
298 296 295 295 296 298 298 298 299 300 301 302 303 303 304 305 305 306 306 306 307 307 308 308 309 309 309 309 310 312 313 314 314 314 314 314 314 315 317 320 323 326
296 294 295 296 297 298 299 299 300 301 302 302 302 303 303 303 304 305 305 305 306 307 307 308 308 309 309 309 309 310 312 314 314 314 314 314 314 314 315 319 322 323
294 294 295 296 297 298 299 300 301 301 301 301 301 301 301 302 302 304 304 305 305 306 306 306 307 308 309 309 309 309 310 312 313 314 314 315 315 314 313 316 320 322
294 295 296 297 298 299 300 301 301 301 301 301 300 300 300 301 301 302 303 304 304 305 306 306 306 307 308 309 309 309 309 310 311 312 314 315 315 315 313 313 316 321
294 295 297 298 300 300 301 301 301 300 300 300 300 300 300 300 300 300 301 301 302 304 306 306 305 306 307 308 309 309 309 310 311 312 313 314 315 316 315 313 312 317
294 295 297 299 300 300 300 300 300 300 299 299 299 299 299 299 299 299 299 300 301 302 304 305 305 305 306 308 309 309 309 310 311 312 312 313 315 316 317 315 311 311
294 297 299 300 300 300 299 299 299 299 299 299 299 299 299 299 299 298 299 299 300 300 302 303 304 306 307 308 309 309 309 309 311 313 312 312 314 316 317 316 312 308
297 299 300 300 299 299 298 298 298 298 298 298 298 298 298 298 298 298 298 299 299 300 300 301 303 305 306 307 308 308 308 309 311 313 313 312 314 316 316 316 313 308
299 300 300 299 298 298 298 298 298 298 298 298 298 298 298 297 297 297 298 298 298 299 299 300 303 305 306 306 306 307 308 308 310 313 314 313 314 316 316 316 314 310
299 299 299 298 298 298 298 298 298 298 298 298 298 297 297 297 297 297 297 297 297 298 298 299 302 305 306 306 305 305 307 308 309 311 314 315 314 315 316 316 314 312
299 298 298 297 297 298 298 298 298 298 298 298 297 297 296 296 296 296 296 296 297 297 298 298 301 303 305 306 306 305 306 308 309 310 312 315 315 315 315 315 313 312
298 298 298 297 297 297 297 298 298 298 298 297 296 295 295 295 296 296 296 296 297 297 298 298 300 303 305 305 305 305 307 308 309 310 311 314 315 314 314 313 312 313
296 297 297 296 296 297 297 297 298 298 297 296 295 295 295 295 295 295 295 296 297 297 298 298 300 303 304 305 306 307 308 308 309 310 311 313 314 314 314 314 315 315
296 297 296 295 295 296 296 297 297 297 296 295 294 294 294 295 295 295 296 296 297 297 298 299 301 304 304 305 307 308 308 308 309 310 311 313 314 314 315 316 316 316
296 296 295 295 295 295 296 297 296 296 296 296 295 295 295 295 296 296 297 298 298 298 299 300 302 305 306 306 307 308 309 309 309 310 312 313 313 314 315 316 316 316
296 296 295 295 294 295 296 296 296 296 296 296 296 295 295 296 296 297 298 300 300 300 301 302 304 306 307 308 308 309 310 311 310 310 312 313 313 314 315 316 316 317
296 296 296 295 294 295 295 295 296 296 296 296 295 295 295 296 297 297 299 301 302 301 302 304 305 306 308 309 310 311 311 311 310 311 312 313 313 314 315 316 317 317

ECMWFNIL_850_thetae_006.txt.gz
Theta_e
305 304 304 304 305 304 304 303 303 303 303 303 303 303 303 302 302 303 305 308 309 309 310 311 313 314 315 314 313 312 313 316 320 323 325 325 325 326 327 325 319 318
304 304 304 304 304 304 304 303 303 303 303 303 303 303 303 303 302 302 302 304 307 309 310 310 310 311 314 316 315 314 313 312 314 317 321 323 325 325 325 326 322 320
304 304 304 304 304 304 303 303 303 303 303 303 303 302 302 302 302 302 302 302 304 307 309 310 310 311 313 315 316 316 315 314 312 312 314 317 322 325 325 323 323 322
304 304 304 304 304 304 304 303 303 303 303 302 302 302 301 302 301 302 302 303 303 304 307 309 310 311 312 312 314 316 316 316 315 314 312 313 317 322 324 323 323 323
305 304 304 304 304 303 303 303 302 302 302 302 301 301 301 301 302 303 304 305 305 304 305 307 309 310 311 311 313 315 316 317 317 316 315 313 313 317 322 323 324 324
304 304 304 304 303 303 302 302 302 302 302 302 302 302 301 301 303 304 305 305 305 305 305 306 307 309 310 310 311 313 315 316 317 317 317 316 314 314 319 323 323 324
304 304 304 303 303 302 302 301 300 301 302 303 303 303 302 301 302 303 304 305 305 305 306 306 307 308 309 310 310 312 314 315 315 316 317 318 317 315 316 320 322 323
304 304 303 302 302 301 301 300 300 302 303 304 303 303 303 302 302 303 304 304 304 305 306 306 307 307 308 309 310 311 313 314 315 316 316 317 318 318 317 318 320 322
304 303 302 302 301 300 300 300 301 302 303 303 303 303 303 302 302 303 304 304 304 304 305 306 306 307 308 308 309 310 311 313 314 315 316 316 317 318 318 318 319 320
303 302 302 301 300 300 300 300 301 302 303 303 302 302 303 302 303 303 304 304 304 304 304 305 306 306 307 307 308 309 310 311 313 314 315 316 316 317 318 318 319 319
302 301 301 301 299 299 300 301 301 301 302 303 302 303 303 303 303 303 303 303 304 304 304 305 305 306 306 307 307 308 309 310 311 313 314 315 316 317 317 318 319 319
301 301 300 299 298 298 300 301 301 302 302 303 303 303 303 303 303 303 303 303 303 303 304 304 305 305 306 306 307 307 308 308 310 311 313 314 315 316 317 318 318 319
301 300 298 297 298 299 300 301 302 302 302 303 303 303 303 303 302 302 302 302 303 303 303 303 303 304 305 305 306 306 307 308 308 310 312 314 315 315 316 317 318 318
300 298 297 297 298 300 301 302 302 302 302 302 302 302 302 302 302 302 302 302 302 302 302 303 303 303 304 304 305 306 306 307 308 309 310 313 314 315 316 317 317 318
298 297 297 298 300 301 302 302 301 302 302 302 302 302 302 301 301 301 301 301 302 302 302 302 302 302 303 303 304 305 305 306 307 308 309 311 314 315 316 316 317 317
298 298 299 301 301 301 301 301 301 301 301 301 301 301 301 301 301 301 300 301 301 301 301 301 302 302 302 302 303 304 304 305 306 307 308 309 312 314 315 316 316 317
298 300 301 301 301 301 301 301 301 301 301 301 301 301 301 301 300 300 300 300 300 300 300 301 301 301 301 301 302 302 303 304 305 306 307 308 310 313 315 316 316 317
299 300 301 301 301 301 300 300 300 300 300 300 300 300 300 300 300 300 300 300 300 300 300 300 300 300 300 301 301 301 301 301 302 304 305 307 309 311 313 315 316 317
300 301 301 300 300 300 300 300 299 299 299 299 299 299 299 299 299 299 299 299 299 299 299 299 299 299 299 299 300 300 300 300 300 301 303 305 307 310 313 315 316 316
300 300 300 300 300 300 299 299 298 298 298 298 298 298 298 298 298 298 298 298 298 298 298 298 299 299 298 298 299 299 299 299 299 300 301 302 305 307 311 314 315 316
300 300 300 299 299 299 298 298 298 298 297 297 297 297 297 297 297 297 297 297 297 297 297 297 297 297 298 298 298 298 298 298 299 299 300 301 303 305 308 313 315 316
300 299 299 299 299 298 298 298 297 297 297 296 296 296 296 296 296 296 296 297 296 296 296 296 297 297 297 297 297 297 297 298 298 299 299 300 302 304 306 311 315 316
300 299 299 299 298 298 298 297 297 297 296 296 296 295 296 296 296 296 296 296 296 296 296 296 297 297 297 298 298 298 297 298 298 299 299 300 302 304 305 309 313 316
299 299 298 298 298 298 297 297 297 296 296 296 295 295 295 295 295 295 295 295 295 295 296 296 296 297 298 298 298 299 298 298 299 300 300 301 302 303 305 308 311 315
299 298 298 298 298 298 297 297 296 296 296 295 295 295 295 295 294 294 294 295 295 295 296 296 296 298 298 298 299 300 299 299 299 300 301 302 303 304 306 308 310 313
299 299 298 297 297 297 297 296 296 296 295 295 294 294 294 294 294 294 294 294 295 295 296 296 297 298 299 299 300 300 299 299 300 301 302 303 305 306 307 309 310 312

ECMWFNIL_850_thetae_009.txt.gz
Theta_e
307 306 305 305 305 305 305 305 305 305 305 305 305 304 305 305 304 304 304 304 304 303 303 302 304 307 310 311 313 316 317 318 319 318 319 322 324 325 325 326 327 327
308 307 306 305 305 305 305 305 305 305 305 304 304 304 304 304 304 304 304 304 303 303 303 302 302 304 308 310 310 312 315 317 318 318 318 319 321 324 325 325 326 326
309 307 306 305 305 305 305 305 305 305 305 305 305 304 304 304 304 304 303 303 302 302 302 302 301 302 305 309 310 311 314 317 317 317 319 319 319 321 323 325 325 325
309 307 306 305 305 305 305 305 305 305 305 305 304 304 303 303 303 303 303 302 303 303 303 302 302 303 305 307 311 313 314 316 318 318 319 320 319 320 321 323 325 326
309 307 306 306 306 305 305 305 305 305 305 304 304 303 303 303 303 303 302 304 305 306 306 306 305 305 307 307 309 312 313 314 315 317 318 319 320 320 320 320 321 324
308 307 306 306 306 306 305 305 305 305 304 304 303 303 303 303 303 303 303 305 307 308 308 308 308 307 307 307 308 311 313 314 314 316 318 318 319 319 320 321 321 321
308 307 306 306 306 305 305 305 304 304 303 303 303 303 303 303 303 303 304 305 306 308 308 308 308 308 308 308 309 310 312 314 314 315 317 318 318 319 319 320 321 322
308 307 306 306 305 305 305 305 304 304 303 303 303 304 305 305 304 304 304 305 305 307 308 308 308 308 308 309 309 310 311 312 313 314 316 317 318 318 319 319 320 321
307 306 306 306 305 305 304 304 304 303 304 304 304 305 306 306 305 305 305 305 306 306 307 307 308 308 308 308 308 309 310 311 311 313 314 315 317 317 318 319 319 319
307 306 306 305 305 305 304 304 303 304 304 305 305 305 306 306 305 305 305 305 305 306 306 306 307 307 307 307 308 308 309 310 310 311 312 314 316 317 318 318 319 319
308 307 306 305 305 304 303 303 303 304 304 305 305 305 306 305 305 305 305 305 305 305 306 306 306 307 307 307 307 307 308 309 310 310 311 312 313 315 317 317 318 319
308 307 306 305 304 303 303 303 303 304 304 304 305 306 305 305 305 305 305 305 305 305 305 306 306 306 307 307 307 307 308 308 309 310 310 311 312 313 315 316 317 318
309 308 306 305 303 303 303 302 303 303 304 304 305 305 305 305 304 305 305 305 305 305 305 305 305 306 306 306 307 307 307 308 308 309 309 310 311 311 313 315 316 317
308 307 305 304 303 303 302 302 303 304 304 305 304 304 304 304 304 304 304 304 304 304 305 305 305 305 305 306 306 307 307 307 308 308 309 309 310 310 311 312 314 316
307 306 304 303 303 303 303 304 304 304 304 304 304 304 304 304 304 304 304 304 304 304 304 304 304 305 305 305 306 306 306 307 307 307 308 308 309 310 310 311 313 315
307 305 304 304 304 304 305 305 304 304 303 303 303 303 303 303 304 304 304 304 304 304 303 304 304 304 304 304 305 305 305 306 306 307 307 308 308 309 310 310 312 314
307 305 305 305 305 305 304 304 304 303 303 303 303 303 303 303 303 303 303 303 303 303 303 303 303 303 303 303 303 303 304 304 304 305 305 306 307 308 309 310 310 312
305 305 305 305 304 304 304 303 303 303 302 302 302 302 302 301 302 302 302 302 302 302 302 302 302 303 302 302 302 302 302 302 303 303 303 304 305 306 307 309 310 310
305 305 304 304 304 304 303 303 302 302 302 301 301 300 300 300 300 300 300 301 301 301 301 301 302 302 302 302 301 301 301 301 301 302 302 302 303 303 305 306 308 309
304 304 304 303 303 303 302 302 302 301 301 300 300 300 299 299 299 299 299 299 299 300 300 300 301 301 301 301 301 300 300 300 300 300 301 301 301 302 303 304 305 307
304 303 303 303 303 302 302 301 301 301 300 300 299 299 298 298 298 298 298 298 298 298 299 299 299 299 299 299 299 299 299 299 300 300 300 300 300 300 301 302 303 304
303 303 303 303 302 302 301 301 301 300 300 299 299 298 298 298 298 298 297 297 297 298 298 298 298 298 298 298 298 298 298 298 298 299 298 299 299 299 300 301 301 302
303 303 303 302 302 301 301 301 300 300 299 299 298 298 298 298 297 297 297 297 297 297 297 297 297 297 297 298 297 297 297 297 297 298 298 298 298 299 299 300 300 301
302 302 302 302 301 301 300 300 300 299 299 298 298 298 298 297 297 297 297 297 297 297 297 296 297 297 297 297 297 296 297 297 297 297 297 298 298 298 299 299 300 300
301 302 302 302 301 301 300 300 299 299 299 298 298 297 297 297 296 296 296 296 296 296 296 295 296 296 296 296 296 296 296 296 297 297 297 297 298 298 299 299 300 300
301 302 302 302 301 301 300 299 299 298 298 298 297 297 296 296 296 295 295 295 295 295 295 295 295 295 295 295 296 295 296 296 296 297 297 297 297 298 298 299 300 301

ECMWFNIL_850_thetae_012.txt.gz
Theta_e
313 313 312 311 310 309 308 308 307 307 306 306 306 306 306 306 306 305 305 305 304 304 304 304 304 303 302 303 302 303 304 309 312 312 313 315 315 317 319 322 325 326
312 312 312 311 310 309 308 308 307 307 306 306 306 306 306 306 305 305 305 304 304 304 303 303 303 303 302 301 301 302 304 306 308 309 311 313 314 315 316 318 321 323
311 312 312 311 310 309 308 308 308 307 307 306 306 306 306 306 305 305 304 304 303 303 302 302 303 303 303 302 301 301 303 305 307 308 309 312 314 315 315 316 317 319
311 311 311 311 310 309 308 308 308 307 307 307 306 306 306 305 305 305 304 304 303 303 303 304 305 305 305 305 304 303 302 302 306 311 313 314 315 316 315 316 317 318
310 311 311 311 310 309 308 308 308 307 307 307 306 306 306 305 305 304 304 304 303 303 303 305 307 308 308 308 308 308 306 303 303 309 314 315 315 316 317 318 318 318
310 310 310 311 310 309 309 308 308 307 307 306 306 306 306 305 304 304 304 304 304 304 303 304 307 308 309 309 309 309 309 307 304 305 311 315 314 314 316 319 319 319
309 310 310 310 310 309 309 308 307 307 307 306 306 306 305 304 304 304 304 305 305 305 305 304 305 307 308 309 309 309 309 309 308 307 309 313 315 315 316 318 319 320
310 310 310 310 310 309 309 308 307 307 306 306 306 305 305 304 304 304 305 305 305 305 305 305 306 306 307 308 309 309 309 309 310 310 310 311 313 314 316 317 318 319
310 311 311 310 310 309 308 307 307 306 306 305 305 305 304 304 305 305 305 305 305 305 305 306 306 306 307 307 308 308 309 309 309 310 311 310 310 311 313 315 317 318
311 311 311 311 310 309 308 307 306 306 305 305 304 305 305 305 305 306 305 305 305 305 305 306 306 306 307 307 307 307 308 308 308 308 309 310 310 310 310 311 314 316
311 312 312 311 310 309 308 307 306 306 305 304 305 305 305 305 306 306 306 305 305 305 305 306 306 306 306 307 307 307 307 308 308 308 308 309 309 310 311 311 312 313
312 312 312 311 310 309 308 307 306 305 305 305 305 305 305 305 306 306 305 305 305 306 305 305 306 306 306 306 307 307 307 307 308 308 308 308 309 309 310 311 311 311
313 312 312 311 310 309 309 307 306 306 305 305 305 305 306 305 305 305 305 304 305 305 305 305 305 305 306 306 306 306 306 307 307 308 308 308 308 308 309 309 310 311
313 313 312 310 310 309 308 307 306 305 305 305 305 305 305 305 304 304 304 304 305 305 305 305 305 305 305 305 305 306 306 306 306 307 307 308 308 308 309 309 309 310
313 312 311 310 310 309 307 305 305 304 305 305 305 305 304 304 304 304 304 304 304 304 305 305 305 305 305 305 305 305 305 306 306 307 307 307 307 308 308 309 309 309
312 311 310 309 308 307 305 305 305 305 305 305 304 304 304 303 303 303 304 304 304 304 304 304 304 304 304 304 304 304 305 305 305 305 306 306 307 307 307 308 308 308
310 309 309 308 307 306 306 305 305 305 305 304 304 304 303 303 303 303 302 302 302 302 302 303 303 303 303 304 304 304 304 304 304 304 304 305 305 305 306 307 307 308
309 309 309 308 307 306 306 306 305 305 304 304 303 303 303 302 302 302 301 301 300 300 301 301 301 302 302 302 303 303 303 303 303 303 303 303 303 303 304 305 305 306
309 308 308 307 306 306 305 305 305 304 304 303 302 302 302 302 301 301 300 300 299 299 299 299 299 300 300 301 301 302 302 302 302 302 302 302 302 302 302 303 303 304
308 307 306 306 306 305 305 305 304 304 303 302 302 302 301 301 300 300 300 299 299 298 298 298 298 299 299 299 299 300 300 301 301 301 301 301 301 301 301 301 302 302
307 306 305 305 305 305 304 304 304 303 302 302 302 301 301 300 300 300 299 298 298 298 298 298 298 298 298 298 298 298 298 299 299 300 300 300 300 300 300 300 301 301
306 305 305 304 304 304 304 304 303 303 302 302 301 301 300 300 300 299 298 298 298 298 298 298 298 298 297 298 297 298 297 298 298 298 298 299 299 299 299 299 299 300
305 304 304 304 304 304 304 303 303 302 302 301 301 300 300 299 299 299 298 297 297 297 297 297 297 297 297 297 297 297 297 297 297 297 297 297 298 298 298 298 298 299
304 303 303 303 303 304 303 303 302 302 301 301 300 299 299 299 298 298 297 297 297 297 297 296 296 296 296 296 296 296 296 296 296 296 296 296 297 297 297 297 298 298
302 302 302 303 303 303 303 302 302 301 300 300 299 299 298 298 298 297 297 297 296 296 296 296 295 295 295 295 295 295 295 295 295 295 295 295 296 296 296 296 297 297
302 302 302 302 302 302 302 302 301 300 300 299 299 298 298 298 297 297 296 296 296 295 295 295 295 295 295 295 294 294 294 294 294 294 295 295 295 296 296 296 296 297

ECMWFNIL_850_thetae_015.txt.gz
Theta_e
313 313 313 313 313 312 310 309 309 308 308 308 307 306 306 306 306 306 306 306 305 305 304 304 304 303 302 302 302 302 302 302 302 302 303 308 311 312 313 315 316 317
313 312 312 312 312 312 311 310 309 308 308 308 307 307 306 306 306 306 306 306 305 304 304 304 304 303 303 303 303 303 302 302 301 301 302 304 307 309 311 313 315 316
312 311 310 311 310 311 311 310 310 309 309 308 307 307 306 306 306 306 306 305 305 304 304 304 304 303 303 303 304 304 303 303 302 301 302 303 304 306 309 311 313 315
311 310 310 310 310 310 311 311 310 310 309 309 307 307 307 306 306 306 306 305 304 304 304 304 304 304 303 303 305 306 306 305 305 304 303 302 302 304 307 310 312 315
310 310 310 309 310 310 310 310 310 310 309 309 308 307 307 307 306 306 305 305 304 304 304 304 304 304 303 303 305 307 308 308 308 307 306 304 302 302 305 310 313 314
310 310 310 310 309 309 310 310 310 310 309 308 308 307 307 306 306 305 305 304 304 304 304 304 304 304 304 304 304 305 307 309 309 309 309 307 306 304 304 308 312 314
310 310 310 310 310 309 309 310 310 309 309 309 308 307 307 306 306 305 304 304 303 304 304 304 304 304 304 304 304 304 305 307 308 308 309 308 308 308 306 306 311 314
310 310 310 310 310 310 310 309 309 309 309 308 308 307 306 306 305 304 303 303 303 303 304 303 304 304 304 304 305 305 305 306 307 308 308 308 308 308 308 307 309 311
310 310 310 310 309 309 309 309 309 309 309 308 307 307 306 305 304 303 303 303 303 303 304 304 303 303 304 305 305 305 305 305 306 307 307 308 308 308 308 308 308 308
310 310 309 309 309 309 309 309 309 309 309 308 307 306 305 304 303 303 303 303 303 303 303 303 303 304 305 305 305 305 305 305 306 306 307 307 308 308 308 308 308 308
310 310 310 310 310 310 309 309 309 309 308 308 306 305 304 303 303 303 303 303 304 304 303 303 304 305 305 305 305 305 305 305 305 306 307 307 307 308 308 308 308 308
311 310 310 310 310 310 310 310 309 309 308 306 305 304 303 303 303 303 303 304 304 303 303 303 304 304 305 305 305 305 305 304 305 305 306 306 306 307 307 308 308 308
311 311 310 311 311 311 310 310 309 308 307 305 304 303 303 303 303 303 303 303 303 302 302 303 304 304 304 304 304 305 305 305 305 305 305 305 306 306 307 307 307 308
311 311 312 312 311 311 310 310 309 307 306 304 303 303 303 304 304 303 303 303 302 302 303 304 304 304 304 304 304 305 305 305 305 305 304 305 305 305 306 306 307 307
312 312 312 312 312 311 310 309 308 307 305 303 303 304 304 304 304 304 303 303 303 302 302 302 302 302 302 302 303 304 304 304 304 304 304 304 304 304 305 305 306 306
313 313 313 313 312 311 310 309 307 305 304 303 304 304 304 304 304 304 303 303 302 302 302 302 301 301 300 300 300 301 302 303 303 303 304 304 304 304 304 304 305 305
314 314 313 313 312 311 310 308 306 304 304 304 305 305 305 304 304 303 303 302 302 302 301 301 301 300 299 298 297 298 300 301 302 302 303 303 303 303 303 303 303 304
314 314 313 312 311 310 308 306 305 305 305 305 305 305 304 304 303 302 302 302 301 301 301 300 300 300 298 297 297 297 298 299 299 300 301 301 302 302 302 302 302 302
314 313 311 310 309 308 306 306 305 305 305 305 305 304 303 302 302 302 301 301 301 300 300 300 300 299 297 296 297 297 297 297 297 297 298 298 299 300 300 301 301 301
312 311 310 309 308 306 306 305 305 305 305 305 304 303 303 302 302 301 301 301 301 300 300 299 299 298 297 297 297 297 297 297 297 297 297 297 297 298 298 298 299 299
310 309 308 308 306 305 305 304 304 304 304 304 303 303 302 302 301 301 301 300 300 300 299 299 298 297 297 297 297 297 297 297 297 297 297 297 297 296 297 296 297 297
309 308 307 306 305 304 304 304 304 304 304 303 303 302 301 301 301 300 300 299 299 299 298 298 297 297 297 296 296 296 296 296 296 296 296 296 296 295 295 295 295 296
307 306 305 304 304 304 304 304 304 303 303 303 302 302 301 301 300 299 299 299 298 298 298 297 296 296 296 296 295 295 295 295 295 295 295 295 295 294 294 294 294 295
307 305 304 303 303 303 303 303 303 303 303 302 301 301 300 299 299 299 298 298 297 297 297 296 296 295 295 295 294 294 294 294 294 294 294 294 294 294 294 294 294 294
305 304 303 302 302 302 302 302 301 301 301 300 300 299 299 299 299 298 297 296 296 296 295 295 295 295 294 294 293 293 294 294 294 294 293 293 293 293 293 293 293 293
303 302 302 302 302 301 300 300 300 300 300 299 299 298 298 298 297 295 294 294 294 295 295 295 294 294 294 293 293 293 293 293 293 293 292 292 292 293 293 293 293 293

ECMWFNIL_850_thetae_018.txt.gz
Theta_e
313 313 313 312 312 313 312 312 311 310 309 309 308 308 307 307 307 306 306 306 306 306 305 305 304 304 304 305 305 304 304 303 302 302 302 302 302 302 303 305 309 313
314 313 313 313 313 313 313 312 311 311 310 309 309 308 308 307 306 306 306 306 306 306 305 304 304 304 304 304 304 304 304 303 303 302 302 302 302 301 301 302 304 306
314 313 313 313 313 313 313 313 312 311 310 309 309 308 308 307 306 306 306 306 306 305 305 304 304 304 304 304 304 304 304 303 303 303 303 303 303 302 302 302 302 302
314 313 313 313 312 312 313 312 312 311 310 309 309 308 308 306 306 306 306 306 306 305 304 304 303 304 304 304 303 303 303 303 303 303 303 303 303 303 303 303 302 302
314 314 313 312 312 311 311 311 311 311 310 309 309 309 308 307 306 306 306 306 305 304 303 303 303 303 303 303 303 303 303 303 302 302 303 303 304 304 304 304 304 304
314 314 313 311 310 310 310 310 310 310 310 310 309 309 308 307 306 306 306 305 304 303 303 303 303 303 303 303 302 302 302 303 303 303 303 303 304 304 305 305 306 306
314 314 312 311 310 310 309 310 310 310 310 310 310 309 308 307 306 306 306 305 303 303 303 303 303 303 303 302 302 302 303 304 304 304 304 303 304 305 305 306 307 307
314 314 312 311 310 310 310 310 310 310 310 310 309 309 307 307 307 306 305 304 303 303 303 303 302 302 302 301 301 302 303 304 305 304 304 304 304 304 305 306 307 307
314 314 313 311 310 310 310 310 310 310 310 310 309 308 308 307 307 305 304 303 303 303 303 302 302 301 301 301 301 302 303 304 304 304 304 304 304 304 305 306 307 307
315 314 313 312 311 310 310 310 311 311 310 310 310 309 308 307 306 304 303 303 303 303 303 302 302 301 301 301 302 303 303 304 304 304 304 304 304 304 304 305 306 306
314 313 312 312 310 310 311 310 311 311 311 310 310 309 308 306 304 303 302 303 303 303 303 302 301 301 301 301 302 302 303 303 303 303 303 303 304 304 304 304 305 305
312 312 312 312 310 310 311 311 311 311 311 310 310 309 308 305 303 303 303 303 303 303 302 302 301 301 301 301 302 302 302 302 303 303 303 303 303 303 304 304 304 305
312 312 313 312 311 311 311 311 311 311 311 310 309 308 305 303 303 303 303 303 303 302 302 301 301 301 301 301 301 302 302 301 301 301 301 302 303 303 304 304 304 304
313 314 314 313 313 313 312 311 311 311 310 310 308 305 303 303 303 304 304 304 303 302 301 301 301 301 301 301 301 301 301 300 300 299 298 298 299 301 302 303 304 304
316 317 316 315 315 314 312 312 311 311 310 309 306 304 303 303 304 304 304 303 303 302 302 301 301 301 301 300 300 300 300 299 299 298 297 297 297 298 299 301 302 303
318 318 317 316 315 313 312 312 312 311 309 307 304 304 304 304 305 304 304 303 303 302 302 301 301 301 301 300 300 300 300 299 298 297 297 298 298 298 298 299 300 301
318 319 318 316 314 313 313 312 311 310 308 305 304 304 304 305 305 305 304 303 303 302 301 301 301 301 300 300 300 300 299 298 297 297 298 298 298 298 298 298 298 299
318 320 318 315 314 313 313 312 310 309 306 304 304 305 305 305 305 305 304 303 302 301 301 301 301 300 300 300 299 299 298 297 297 297 298 298 297 297 298 298 298 298
319 319 316 315 314 313 313 311 309 306 305 304 305 305 305 305 305 304 303 302 301 301 301 301 300 300 299 299 298 298 297 297 297 297 298 297 297 297 297 297 297 297
318 317 315 315 314 313 311 309 306 305 305 305 306 305 305 305 304 303 302 301 301 301 300 300 299 299 298 298 297 296 296 296 296 297 297 297 297 297 297 297 297 296
316 315 315 314 313 311 309 307 305 305 305 305 305 305 304 303 302 302 301 301 300 300 299 299 298 297 297 296 296 296 296 296 296 296 297 297 297 296 296 296 296 296
314 314 314 312 310 308 307 306 305 305 305 304 304 304 303 303 302 301 300 300 299 299 298 297 296 295 295 296 296 296 296 296 296 296 296 296 296 296 295 295 295 295
312 312 311 310 308 306 306 305 304 304 304 304 304 303 302 301 300 299 298 298 298 297 296 295 294 295 295 296 296 296 296 295 295 295 295 295 295 295 295 295 294 294
311 310 308 307 306 305 304 304 304 304 303 303 302 301 299 298 298 297 297 296 295 294 293 293 293 294 294 295 295 295 295 295 294 294 294 294 294 294 294 294 294 294
309 308 307 306 305 303 303 303 303 302 301 299 298 297 297 297 297 297 295 294 292 292 292 292 292 293 294 295 295 295 295 294 294 293 293 293 293 293 293 293 293 293
307 307 306 304 303 303 302 301 299 298 297 297 296 297 297 297 296 295 293 292 291 291 292 291 291 292 294 294 294 294 294 294 293 292 292 292 292 292 292 292 293 293

ECMWFNIL_850_thetae_021.txt.gz
Theta_e
312 312 312 312 311 311 311 311 311 311 310 310 309 308 308 308 307 307 306 306 306 306 305 305 304 304 304 304 305 305 305 305 304 304 304 303 302 302 302 302 302 302
311 311 312 313 312 312 311 311 311 311 310 310 310 309 309 308 308 307 307 306 306 306 306 305 304 304 304 304 305 305 305 304 304 304 304 303 303 303 303 302 302 302
312 312 312 312 311 312 312 311 311 311 311 311 310 309 309 308 308 307 307 306 306 306 306 305 304 304 304 304 304 305 304 304 304 303 303 303 303 303 303 303 303 303
313 313 313 312 312 312 312 312 311 311 311 310 310 310 309 309 308 307 307 306 306 306 306 305 304 304 304 304 304 304 304 303 303 302 303 303 303 302 302 303 303 303
315 314 314 313 313 313 313 313 311 310 311 311 311 310 309 309 308 308 307 306 306 306 306 305 304 304 304 304 304 304 304 303 303 302 302 302 302 302 302 302 302 303
316 316 315 314 313 313 313 312 311 311 311 311 312 310 309 309 309 308 307 306 306 306 305 304 303 303 304 304 304 304 303 303 302 302 302 302 302 302 302 302 302 302
318 317 316 315 314 314 314 313 312 312 312 313 312 311 310 309 309 309 307 306 306 306 305 304 303 303 303 303 303 303 302 302 302 302 302 301 301 301 301 302 302 302
319 318 317 316 315 314 313 312 312 312 313 313 313 311 310 310 310 309 307 306 306 306 304 303 303 303 303 303 302 302 301 301 301 301 301 301 300 300 300 301 301 301
320 320 318 317 316 314 313 311 311 312 313 313 313 312 311 310 311 309 307 306 306 305 303 302 302 302 302 302 301 301 300 300 301 301 301 301 301 301 301 301 301 301
321 320 319 318 316 314 313 311 311 312 312 313 313 312 311 311 311 309 307 307 306 303 303 302 302 302 301 301 301 300 300 300 300 301 301 301 302 302 301 301 301 302
321 320 319 318 315 314 313 312 313 312 312 313 313 312 312 311 310 308 307 306 304 303 302 302 302 302 301 301 300 300 300 299 300 301 301 301 301 300 300 299 299 300
322 321 320 318 316 316 316 315 315 313 312 313 313 313 312 311 310 309 307 305 303 302 302 302 302 302 301 301 300 299 299 299 300 300 300 300 299 299 299 298 297 297
323 321 321 320 319 318 318 318 317 314 313 313 313 313 311 311 310 308 305 303 302 302 302 302 302 302 301 300 300 300 300 300 300 300 300 299 299 299 298 297 297 297
322 323 322 321 321 321 321 321 318 315 314 313 313 312 311 310 308 305 303 302 302 303 302 302 302 302 301 300 300 301 301 300 300 300 299 299 299 298 297 296 296 297
322 323 323 322 322 322 322 321 318 315 314 313 312 311 311 309 306 303 303 302 303 303 303 303 303 302 301 301 301 301 301 301 300 300 300 299 299 298 296 296 297 297
323 323 324 323 323 322 323 321 317 314 314 313 312 311 309 306 304 303 303 303 303 304 304 304 303 302 301 301 301 301 301 301 300 300 300 299 298 297 295 296 297 298
321 321 322 323 323 323 322 320 316 314 313 312 311 310 307 305 303 303 303 304 304 304 304 304 303 302 301 301 301 301 300 300 300 299 299 298 296 295 295 296 297 298
319 319 320 321 322 322 322 319 315 313 312 312 310 308 305 304 303 304 304 305 305 305 304 303 302 302 301 301 300 300 300 299 298 297 296 295 295 295 296 297 298 299
318 318 318 318 320 321 320 317 314 313 312 310 308 306 305 304 304 305 305 305 305 304 303 303 302 301 301 300 300 299 298 297 296 295 295 295 296 296 297 298 298 299
319 317 317 317 318 319 317 315 313 312 310 308 306 305 305 305 305 305 305 305 304 303 302 302 301 300 300 299 298 296 295 294 294 295 295 296 297 297 297 298 298 298
319 317 315 317 317 316 314 314 313 311 308 306 305 305 305 305 305 305 304 303 303 302 301 300 300 299 297 296 294 294 293 293 294 295 295 296 296 297 297 297 297 297
318 316 315 317 316 313 312 313 311 308 306 305 305 305 305 305 304 304 303 302 301 300 299 298 297 295 294 293 292 292 293 293 294 295 295 296 296 296 297 297 297 296
318 316 316 316 314 313 312 310 308 306 305 305 305 304 304 304 303 302 301 300 299 298 297 296 295 293 292 291 292 292 293 294 294 295 295 295 296 296 296 296 296 296
317 317 316 314 313 312 310 308 306 305 305 304 304 304 303 302 301 299 298 297 297 296 295 294 292 292 291 292 292 293 293 294 294 295 295 295 295 296 296 296 296 296
316 314 313 311 310 309 307 305 305 304 304 303 303 302 301 300 298 296 296 296 295 293 292 292 291 292 292 292 292 293 293 294 294 294 295 295 295 295 295 295 295 295
314 312 310 309 308 306 304 304 304 303 302 302 300 299 298 297 296 295 295 293 292 291 291 291 292 292 292 292 292 293 293 293 294 294 294 295 295 295 295 294 294 294

ECMWFNIL_850_thetae_024.txt.gz
Theta_e
311 311 311 311 311 311 310 311 310 310 310 310 309 309 308 308 307 307 307 306 306 306 306 305 305 304 304 304 304 304 304 304 304 304 304 303 303 303 303 303 303 303
311 311 312 312 312 311 311 311 311 311 310 310 310 310 309 308 308 308 307 307 306 306 306 306 306 305 304 304 304 304 304 304 304 303 303 303 303 303 303 303 303 303
311 311 312 311 311 312 311 311 311 311 311 311 311 310 310 309 309 308 308 307 307 306 306 306 306 305 304 304 304 304 304 304 304 303 302 302 302 302 302 302 302 302
311 311 311 311 311 311 312 311 311 311 311 311 311 311 310 310 309 308 308 307 307 306 306 306 306 306 304 304 304 304 304 304 304 303 302 302 302 302 302 302 302 302
312 311 311 311 312 312 312 312 311 311 310 310 311 311 310 310 309 309 308 308 307 307 307 306 306 306 305 304 303 303 304 304 303 303 302 302 302 301 301 301 301 301
315 314 313 312 312 313 313 313 311 311 310 310 311 311 311 310 310 309 309 308 308 307 307 307 307 306 305 304 303 304 304 303 303 303 302 302 301 301 301 301 300 300
319 318 317 315 315 315 315 314 313 312 310 310 311 311 311 311 311 310 309 308 308 308 307 307 307 306 305 303 303 303 303 303 303 302 302 301 301 301 301 300 300 300
320 320 320 319 318 317 317 316 314 313 312 311 312 312 312 312 312 311 310 309 309 308 308 307 307 306 304 303 303 303 303 303 302 302 301 301 300 300 300 300 300 300
320 321 321 321 320 320 319 317 316 314 313 312 312 313 313 313 313 312 311 309 309 309 308 307 307 306 304 303 303 303 303 302 302 301 300 300 299 299 299 299 299 299
321 321 321 322 321 321 320 319 318 317 315 315 314 314 314 314 314 313 311 310 310 310 308 307 307 305 303 302 303 303 303 302 301 300 300 299 299 299 299 299 299 299
321 321 321 322 322 322 321 321 320 319 318 318 317 316 315 315 314 313 311 311 311 310 308 307 306 303 302 303 302 302 302 301 301 300 299 299 299 299 299 298 298 298
321 321 321 321 321 322 322 322 322 321 321 320 319 318 316 315 314 313 311 311 311 310 308 306 304 302 302 302 302 301 301 300 300 300 299 299 299 299 298 298 298 298
322 321 322 321 321 322 322 322 322 322 322 321 320 319 317 315 314 312 312 312 311 309 307 305 303 302 302 302 302 302 301 301 300 299 299 299 299 299 299 298 298 298
324 323 323 322 322 322 322 323 322 321 322 322 321 320 317 315 313 313 312 311 310 309 306 303 302 303 303 303 302 302 302 301 300 300 299 299 299 299 299 298 298 298
323 324 324 323 323 322 322 323 321 320 320 320 320 319 317 315 313 313 312 311 310 307 304 302 303 303 303 303 303 303 302 301 301 300 300 299 299 299 299 298 298 297
319 321 322 322 322 322 323 323 321 319 319 318 318 318 316 314 313 312 311 310 308 304 303 303 303 303 304 304 303 303 302 302 301 300 300 300 300 299 298 297 295 294
313 316 319 320 320 321 322 323 322 321 319 318 317 316 315 314 313 312 311 308 305 303 303 303 303 304 304 304 303 303 302 301 301 300 300 299 299 297 295 294 293 294
308 311 314 317 319 321 322 323 322 320 319 318 317 315 314 313 312 311 308 305 303 303 303 304 304 304 304 303 303 302 302 301 300 300 299 297 295 294 293 293 293 294
304 306 309 312 316 319 322 322 321 319 318 317 316 314 313 312 310 308 306 304 304 304 304 304 305 304 304 303 302 302 301 301 299 297 295 293 292 292 293 293 294 294
304 305 307 309 312 317 320 321 319 318 317 316 314 313 312 311 308 306 305 304 304 305 305 305 304 304 303 302 302 301 300 299 296 294 292 292 292 293 293 294 294 294
303 304 306 308 311 315 319 319 318 317 316 314 313 313 311 309 306 304 304 305 305 305 305 304 303 303 301 301 300 299 297 295 293 292 292 292 293 294 294 294 295 295
304 304 306 308 311 315 318 318 317 316 315 313 313 311 309 306 304 304 305 306 305 305 304 302 301 300 299 298 296 295 293 292 292 292 293 294 294 294 295 295 295 295
305 305 306 308 312 315 317 317 317 316 314 312 311 309 306 305 305 305 305 305 304 303 302 301 299 297 296 294 293 292 292 292 293 293 294 294 294 295 295 295 295 296
306 306 306 309 313 315 316 317 316 314 313 311 309 306 305 305 306 305 304 303 302 301 299 297 295 293 292 292 292 292 292 293 293 293 294 294 294 295 295 295 295 295
307 307 308 310 313 315 315 315 314 313 312 310 307 306 305 305 304 303 302 301 299 297 295 293 292 292 292 292 292 292 292 292 293 293 293 294 294 294 295 295 295 295
308 309 310 312 314 314 314 314 311 309 307 306 304 304 304 303 301 300 298 297 295 293 292 291 292 292 292 292 292 292 292 292 293 293 293 294 294 294 294 294 293 293

ECMWFNIL_850_thetae_027.txt.gz
Theta_e
308 309 309 310 310 310 310 311 310 310 310 309 309 308 308 308 307 307 307 306 306 306 306 306 305 305 305 304 304 304 305 305 305 305 304 304 304 303 303 303 302 303
309 309 310 310 310 311 311 311 311 311 311 311 310 309 309 309 308 308 307 307 307 306 306 306 306 306 305 305 304 304 304 304 304 304 304 304 303 303 303 302 302 302
310 310 310 310 311 311 311 311 311 311 311 311 311 311 310 309 309 309 308 307 307 307 307 307 306 306 306 305 304 304 304 304 304 304 304 303 303 303 302 302 302 302
309 310 310 310 311 311 312 312 312 312 312 312 312 312 311 311 310 309 308 308 308 307 307 306 306 306 306 306 305 304 304 304 304 304 304 303 303 302 302 302 302 301
309 309 309 310 311 311 312 312 312 312 312 312 312 312 312 312 311 310 309 309 308 308 307 307 306 306 306 306 305 304 303 303 304 304 303 303 303 302 302 301 301 301
310 310 309 310 310 311 311 311 312 313 313 313 313 313 313 313 313 312 311 310 309 308 308 307 307 306 306 306 306 304 303 303 303 303 303 303 303 302 302 301 300 300
311 311 310 310 310 311 312 312 312 313 314 314 314 313 313 313 313 313 313 312 310 309 308 308 308 307 307 306 306 304 303 303 303 304 303 303 303 302 302 301 300 300
314 313 312 311 311 312 314 315 315 314 315 316 316 315 314 314 314 314 314 313 312 311 309 309 308 308 307 307 306 305 303 303 303 303 303 303 303 302 302 301 301 300
318 316 315 315 314 314 316 317 318 318 317 317 318 317 316 315 315 315 314 314 313 312 311 310 309 309 308 307 306 305 303 302 303 303 303 303 302 302 301 301 301 300
321 320 319 319 319 318 318 318 319 320 320 319 319 319 318 317 316 316 315 314 314 313 312 311 310 310 309 308 306 305 303 302 303 303 302 302 301 301 301 300 300 300
321 322 321 321 321 320 320 320 320 321 321 321 320 320 320 319 318 316 316 315 314 314 313 311 311 310 310 308 307 305 303 302 302 303 302 302 301 301 300 300 300 299
322 322 322 322 322 322 322 321 321 321 321 322 321 320 320 320 319 318 316 315 315 314 313 312 311 311 310 308 306 305 303 302 302 302 302 302 302 301 301 300 300 299
321 322 323 323 323 323 323 322 322 322 322 322 322 320 318 318 318 318 318 316 315 315 314 312 312 311 310 308 306 304 303 302 302 302 302 302 302 302 301 301 300 300
314 318 321 322 323 323 324 323 323 323 323 323 322 321 319 317 317 317 318 317 316 315 313 312 312 311 310 308 305 303 302 302 303 303 303 302 302 302 301 301 301 300
306 309 313 316 319 321 322 323 323 323 323 323 323 322 320 318 316 317 318 318 317 315 313 312 312 311 309 307 304 303 303 303 303 303 303 302 302 302 301 301 300 299
304 304 305 308 311 315 318 320 321 321 322 322 322 322 321 319 317 316 317 317 317 315 313 312 311 310 309 306 303 303 303 304 304 303 303 302 302 301 301 300 299 296
305 305 304 304 305 309 313 317 319 320 321 321 321 322 321 319 317 316 316 316 315 314 313 312 311 310 307 305 303 303 304 304 304 303 302 302 301 301 300 298 296 293
303 304 304 304 304 304 306 310 314 318 320 320 321 321 320 319 317 316 316 315 314 313 312 311 310 308 305 303 303 303 304 304 303 303 302 301 300 299 297 294 293 292
302 302 303 304 304 303 304 305 308 313 317 319 320 320 320 318 316 315 315 314 313 312 310 309 307 306 304 303 304 304 304 304 303 302 301 300 298 295 293 293 293 293
301 302 302 303 303 303 303 303 305 308 313 317 319 319 319 318 316 315 314 313 312 311 309 307 305 304 303 304 305 304 304 303 302 301 299 296 294 293 293 293 294 294
302 302 302 302 303 303 303 303 304 306 310 315 318 318 318 317 316 315 313 312 311 309 307 305 304 304 304 305 304 304 303 301 300 297 295 293 293 293 293 294 294 294
303 303 303 302 303 303 303 303 304 305 309 315 317 317 316 316 314 313 312 311 309 307 305 304 303 304 304 304 303 302 300 298 295 293 293 293 293 293 294 294 294 295
304 304 304 303 303 303 303 303 304 307 311 316 318 317 315 314 313 312 311 309 307 304 304 303 303 303 303 302 301 299 296 294 293 293 293 293 293 294 294 295 295 295
305 305 305 305 304 304 303 304 306 309 313 316 316 315 314 313 312 310 308 306 304 304 304 303 302 302 300 299 296 294 293 292 292 293 293 293 294 294 295 295 295 295
306 306 306 306 306 305 305 305 306 310 314 315 314 313 313 311 309 307 305 304 303 303 302 302 300 298 296 294 293 292 292 292 293 293 293 293 294 294 294 294 295 295
306 306 306 306 306 306 306 307 309 311 314 314 311 309 309 307 305 304 303 302 301 300 299 297 295 293 292 292 292 292 292 292 292 293 293 293 293 294 294 293 294 293

ECMWFNIL_850_thetae_033.txt.gz
Theta_e
320 320 317 313 315 318 317 317 318 319 318 317 318 317 317 318 313 311 314 311 308 308 306 306 307 306 307 306 307 310 308 305 306 306 306 306 305 305 304 304 303 306
318 320 319 317 316 318 318 316 317 319 318 317 318 318 318 318 314 311 312 310 309 309 307 307 307 306 308 308 306 309 308 306 306 306 306 306 306 306 304 305 303 304
315 318 320 320 318 318 319 318 317 318 318 317 317 317 318 318 314 310 311 310 309 310 308 308 308 307 309 308 307 309 308 307 307 306 306 306 306 306 305 305 304 303
312 315 318 320 319 319 320 320 317 317 317 317 317 317 318 317 314 311 311 310 310 310 308 309 308 308 309 308 308 311 309 308 308 306 307 307 305 306 305 305 305 304
314 313 315 318 320 320 321 321 320 318 318 318 317 317 318 317 314 312 312 311 311 311 309 310 309 309 309 308 310 312 310 309 309 307 309 309 306 305 305 305 305 304
318 316 315 316 319 320 321 321 321 319 318 319 319 318 318 318 315 314 314 312 312 312 311 311 310 309 310 309 310 311 310 311 311 309 311 311 309 307 305 305 306 306
320 319 318 317 319 320 321 321 321 321 320 319 319 319 319 318 316 315 316 316 315 315 313 312 311 311 311 310 311 311 311 312 312 309 310 313 311 308 306 306 305 306
322 322 321 320 320 320 321 321 321 321 320 319 319 320 319 319 317 317 318 318 318 318 317 316 314 313 313 311 312 313 312 311 311 309 310 312 311 309 308 308 305 305
319 319 321 322 321 321 321 321 321 321 320 320 320 320 320 319 319 318 318 319 318 318 318 317 316 315 315 313 313 313 312 311 310 309 310 311 310 309 310 310 307 305
318 317 321 323 322 321 321 320 320 322 321 321 320 320 320 320 320 319 319 319 319 319 319 318 318 317 316 315 314 313 313 312 311 310 310 310 309 309 310 309 307 305
320 318 320 322 322 321 320 319 321 323 323 322 322 321 321 320 320 320 319 319 319 319 319 319 318 318 317 316 315 314 314 313 313 312 310 310 310 310 309 308 306 305
322 321 321 322 322 321 321 320 321 322 323 323 323 322 322 322 321 321 320 320 320 320 320 320 319 318 318 317 316 315 314 314 313 312 311 311 310 309 308 307 306 305
321 322 324 324 323 322 322 322 323 322 323 323 324 323 323 323 322 322 322 321 321 321 320 320 319 319 318 317 317 316 315 314 313 312 312 311 310 309 308 307 306 305
316 318 320 320 321 321 321 321 321 322 323 322 322 323 324 323 323 322 322 322 321 321 321 320 320 319 318 318 317 316 316 315 314 312 312 311 310 309 308 307 305 304
312 313 314 314 315 317 318 318 317 320 322 322 323 323 323 323 323 322 322 321 321 321 320 320 320 320 319 318 317 316 315 314 313 312 311 310 310 309 308 307 305 304
311 313 312 313 314 316 317 319 318 319 320 320 321 323 324 323 323 322 321 321 321 320 320 320 320 319 319 318 317 316 315 314 313 312 311 310 309 308 307 306 305 304
310 311 312 313 313 314 314 316 317 319 319 317 315 316 320 323 323 322 321 321 320 320 320 320 319 318 318 317 316 316 315 313 312 311 311 310 309 308 307 305 304 304
310 310 311 311 312 313 313 314 315 317 318 318 316 314 315 318 319 320 320 320 320 320 320 319 318 318 317 316 316 316 314 312 311 311 311 309 308 307 306 305 304 303
309 310 310 310 310 311 312 313 314 314 316 317 318 318 317 316 316 317 319 319 319 319 319 319 318 317 316 316 316 315 314 313 312 310 309 308 307 306 305 304 304 303
309 309 310 310 310 310 311 312 313 314 315 315 316 317 318 317 316 315 316 318 318 318 318 318 318 316 315 315 315 315 315 313 310 309 309 308 307 305 305 304 304 303
310 310 310 310 310 311 311 311 312 313 314 315 316 316 316 317 316 313 314 317 318 317 317 317 317 316 315 315 315 315 314 311 309 309 308 307 306 305 304 304 302 300
309 310 310 310 311 311 311 311 312 313 314 315 315 315 315 316 315 313 313 316 317 317 316 316 316 315 315 315 314 313 311 309 308 308 307 306 305 304 303 301 299 297
309 310 310 311 311 311 311 311 312 313 314 314 315 315 315 315 315 314 315 316 317 316 316 316 315 314 314 313 312 310 309 308 307 307 306 304 303 302 300 300 298 297
309 310 310 311 311 311 311 312 312 313 314 314 314 314 314 314 314 315 315 316 315 315 315 315 314 312 311 310 309 308 308 307 306 305 303 300 300 300 299 300 299 298
309 310 310 311 311 311 311 311 312 313 313 313 313 313 314 313 313 313 314 314 314 313 313 312 311 310 309 308 307 307 307 306 305 301 299 298 299 299 299 299 299 298
310 310 311 311 311 311 311 311 311 312 312 313 313 312 312 313 312 311 312 312 312 311 310 308 307 307 307 306 307 306 305 303 300 296 295 296 298 298 297 297 297 298

ECMWFNIL_850_thetae_036.txt.gz
Theta_e
316 318 316 316 317 313 311 314 316 316 317 319 319 318 316 312 309 308 308 308 308 308 308 307 307 308 307 307 310 310 307 307 306 306 306 306 306 305 305 304 304 309
316 317 315 314 318 318 314 315 319 318 316 317 319 319 317 314 310 309 308 309 309 308 308 308 308 308 308 308 307 308 308 307 307 307 306 306 306 306 305 304 304 307
317 319 317 314 316 319 317 316 318 320 317 316 317 318 317 314 311 309 309 309 309 309 309 308 308 308 308 308 308 308 308 308 308 308 307 306 306 306 306 306 305 304
319 321 321 318 316 318 319 318 318 319 319 317 316 318 317 314 311 310 310 310 309 309 309 308 309 309 308 308 308 308 309 309 308 308 308 307 307 306 306 306 306 305
319 321 322 321 320 318 319 319 319 318 319 318 317 317 318 316 314 311 310 311 310 310 310 309 309 308 309 309 309 309 309 309 309 309 308 308 308 307 306 306 306 306
320 322 322 323 322 321 320 320 321 320 319 319 318 318 318 318 317 315 314 312 312 311 311 311 310 310 310 309 309 309 309 309 309 309 309 310 309 309 308 307 306 306
323 323 324 324 322 321 321 321 321 321 320 319 319 318 319 319 319 319 317 315 314 314 314 313 313 312 312 311 310 310 310 310 310 310 310 310 310 310 309 308 307 307
324 324 324 323 321 320 320 320 320 320 320 320 319 319 319 319 319 320 320 319 318 318 317 316 316 315 315 314 313 312 311 312 312 311 311 311 312 311 310 309 308 307
323 321 321 321 320 319 320 320 320 320 320 319 319 319 319 319 319 320 320 319 319 319 319 319 319 318 317 317 316 314 314 313 313 312 311 311 312 312 310 311 310 308
321 320 318 318 319 319 320 319 319 320 320 319 320 320 319 318 318 319 320 319 320 320 320 320 320 319 319 318 317 316 316 315 315 314 313 312 312 312 311 312 312 310
320 319 317 318 318 319 318 318 319 320 319 318 317 318 319 319 318 318 319 320 320 319 320 320 320 320 319 319 318 318 317 316 316 315 314 313 313 312 312 312 312 310
321 319 318 318 318 317 317 318 319 319 318 319 318 317 318 318 318 318 318 319 320 319 319 320 320 320 320 319 318 318 318 317 316 316 315 314 313 313 312 312 311 310
321 321 321 320 319 318 319 320 321 320 320 320 320 320 320 319 318 318 319 320 321 319 319 319 320 320 320 319 318 318 318 317 317 316 315 314 314 313 313 312 311 310
316 315 315 316 317 318 319 321 322 322 321 319 319 321 321 320 320 320 320 320 319 318 319 319 320 320 320 319 319 318 318 318 317 316 316 315 314 313 312 311 310 310
314 313 312 311 311 313 315 316 316 317 318 318 319 321 322 323 322 321 322 321 319 319 320 320 319 320 320 319 319 319 318 318 317 317 316 315 314 313 312 311 310 310
312 313 313 312 312 313 315 315 314 315 317 317 318 320 322 323 323 322 322 322 321 321 321 320 319 319 319 319 319 319 319 318 318 317 316 315 314 313 312 311 310 309
310 311 312 313 313 314 314 315 315 316 317 317 318 318 319 319 321 322 323 323 323 322 321 320 320 319 319 319 320 319 319 318 317 317 316 315 314 312 312 310 309 309
310 310 311 311 312 312 313 313 314 314 315 316 317 318 318 317 318 320 320 321 322 321 321 320 320 320 320 320 320 319 318 318 317 317 316 315 313 312 311 309 308 308
309 310 310 310 310 310 311 311 312 313 313 314 315 316 317 317 317 318 318 317 316 316 318 319 318 317 319 320 320 319 318 317 317 316 315 315 313 312 310 309 309 308
309 310 309 310 310 310 310 310 311 311 312 313 314 314 315 316 317 317 317 315 314 314 317 317 316 316 317 318 320 320 318 317 316 316 315 314 313 311 310 310 310 309
309 310 310 310 310 310 310 310 310 310 311 311 313 314 315 315 316 316 317 317 316 316 316 316 316 317 317 317 318 319 318 317 316 316 315 314 313 311 310 310 310 308
309 309 310 310 310 310 310 310 310 310 311 312 313 314 314 315 315 316 317 317 317 316 315 316 317 317 317 317 317 317 316 315 315 315 314 313 312 310 310 310 309 307
308 309 309 309 310 310 311 311 311 311 311 312 313 313 314 315 315 315 316 316 316 314 314 315 316 317 317 317 316 316 315 314 314 313 313 312 311 310 310 308 306 304
309 309 309 309 310 310 311 311 311 311 311 312 312 313 314 314 314 314 315 315 315 314 314 315 316 317 316 316 315 315 314 313 312 311 310 310 309 308 307 305 303 302
308 309 309 310 310 310 310 310 310 310 311 311 312 313 313 313 313 313 313 314 314 314 314 315 316 316 316 316 315 315 313 311 310 309 308 308 307 305 304 303 302 300
309 309 310 310 310 311 311 311 311 311 311 311 312 312 313 313 313 313 313 313 313 313 314 314 315 315 314 314 314 313 312 311 309 308 307 307 306 304 303 301 299 298

ECMWFNIL_850_thetae_039.txt.gz
Theta_e
318 315 309 310 311 310 309 310 310 310 310 311 310 309 309 308 308 308 308 308 308 308 308 307 307 307 307 307 307 307 307 306 306 306 306 306 305 305 304 304 304 305
319 317 311 310 313 312 311 312 313 312 312 313 312 311 311 310 309 309 308 308 308 308 308 308 308 307 308 308 308 308 308 307 307 306 306 306 306 305 305 304 304 304
318 318 313 311 314 314 314 316 318 316 315 316 315 314 312 312 311 310 309 309 308 308 308 308 308 308 308 308 308 308 308 308 308 307 307 306 306 306 305 305 304 304
317 319 316 314 315 317 316 318 320 319 318 317 317 316 314 312 312 311 311 310 310 309 309 309 309 309 308 308 308 309 309 309 308 308 308 307 307 306 306 306 305 305
316 318 319 316 316 318 318 318 319 320 319 318 317 317 316 314 313 312 312 312 311 311 311 310 310 310 309 309 309 309 309 309 309 309 309 308 308 307 307 307 306 306
319 319 320 318 316 318 319 318 319 319 319 319 318 317 317 316 315 315 314 314 314 314 313 312 312 312 312 311 310 309 309 309 309 310 309 309 309 309 308 308 308 307
321 321 322 321 318 319 319 319 319 320 319 319 318 318 318 317 318 318 317 317 317 316 316 315 314 314 314 314 313 311 311 310 310 310 311 310 309 310 309 309 308 308
323 322 322 322 320 321 321 321 321 321 321 320 320 319 319 319 319 319 319 318 319 319 318 317 317 316 316 317 316 315 314 312 312 311 312 311 311 310 311 310 309 309
323 323 323 323 322 321 321 321 320 320 319 318 319 319 319 319 319 319 319 319 319 319 319 319 318 318 318 318 318 318 316 315 314 313 313 312 312 311 312 311 310 310
321 321 322 323 321 318 318 320 319 318 317 317 317 318 318 319 319 319 319 319 319 320 320 320 319 319 319 319 319 319 318 317 316 315 314 314 313 312 312 312 311 311
320 319 319 321 321 318 317 319 319 318 318 318 317 318 318 317 318 319 319 319 319 319 319 320 320 320 320 320 320 319 319 318 318 316 315 315 314 313 313 312 312 312
319 318 318 320 322 320 318 318 319 319 319 318 318 318 318 318 318 318 319 319 319 319 319 319 320 320 320 320 320 319 319 319 318 317 316 316 316 315 313 313 313 312
321 320 320 321 321 320 318 317 318 318 318 318 317 317 318 318 317 317 318 318 318 318 318 319 319 319 320 320 319 319 319 319 318 318 317 316 316 315 314 313 313 312
317 317 317 318 318 319 319 319 319 319 319 319 319 319 319 319 318 318 318 319 319 318 318 318 319 319 319 319 319 319 318 318 318 318 317 317 316 316 315 314 313 313
313 313 313 312 312 314 316 317 318 317 318 318 318 318 318 319 319 318 318 318 318 318 317 318 319 319 320 319 319 319 319 318 318 318 317 317 317 316 315 314 314 313
312 313 312 310 310 311 313 315 316 315 315 315 315 315 316 317 317 317 316 316 317 318 318 319 319 320 320 319 318 319 319 318 318 318 318 317 316 316 315 315 314 313
311 311 311 311 312 313 313 313 314 314 314 315 314 315 316 317 316 315 314 315 316 317 319 321 321 321 320 320 320 320 319 319 318 318 318 317 316 316 315 315 314 313
309 310 310 311 311 311 312 312 313 313 313 314 314 314 316 318 317 316 315 314 314 315 317 319 320 320 320 321 320 320 319 319 319 318 318 317 316 316 316 315 314 313
309 309 310 310 310 310 310 310 311 311 312 312 313 313 314 315 316 317 316 316 315 314 315 316 316 315 315 317 319 320 320 319 319 318 318 317 316 316 315 314 314 313
308 308 308 309 309 309 309 309 310 310 310 311 311 312 312 313 314 316 317 317 316 316 315 314 312 311 311 313 316 319 319 320 319 318 318 316 315 315 314 314 313 313
308 308 308 308 308 308 309 309 308 308 308 309 310 310 311 312 313 315 316 316 317 316 316 314 313 312 311 311 313 316 318 319 319 317 316 315 315 314 313 313 312 312
308 308 309 309 309 309 309 309 309 308 308 308 309 309 310 311 312 313 314 316 316 316 315 315 315 314 313 312 313 315 316 317 318 317 315 315 314 313 313 312 311 310
308 308 308 308 308 309 309 310 310 310 310 309 309 309 309 310 311 312 313 314 315 315 315 316 316 315 314 314 315 316 316 316 316 316 315 314 313 313 312 310 309 308
307 308 308 308 309 309 309 310 310 310 311 311 311 310 310 310 310 311 312 313 314 315 315 315 315 315 314 314 315 316 315 315 315 314 314 313 312 312 310 309 308 308
307 307 307 307 307 307 308 308 309 309 309 309 309 309 309 310 310 311 312 312 313 313 313 314 314 314 314 314 314 314 314 314 314 314 313 312 312 311 309 309 309 308
306 307 307 308 308 308 308 309 309 309 309 310 309 308 308 310 311 311 312 312 312 312 313 313 313 313 313 313 313 313 313 313 313 312 312 311 310 309 308 308 308 307

ECMWFNIL_850_thetae_042.txt.gz
Theta_e
318 315 311 308 308 309 308 308 308 308 307 307 307 307 307 307 307 307 307 307 307 307 307 307 307 307 307 307 307 306 306 306 306 306 305 305 304 304 304 305 305 305
320 319 316 309 308 308 308 309 309 309 309 308 308 308 307 308 308 308 308 307 308 308 308 308 308 308 307 308 307 307 307 306 306 306 306 305 305 305 304 304 304 303
320 321 319 312 309 309 309 310 311 311 313 312 311 310 309 308 308 308 308 308 308 308 308 308 308 308 308 308 308 308 308 307 307 307 306 306 306 305 305 304 304 304
320 321 319 315 313 312 311 312 313 314 315 315 314 314 312 311 310 310 309 309 309 308 308 308 308 308 308 308 308 308 308 308 308 308 307 307 307 307 306 305 305 305
320 322 320 317 316 315 313 315 316 316 316 315 315 314 314 312 311 311 310 310 310 310 310 310 310 310 309 309 309 308 308 308 308 308 308 308 307 307 307 307 306 306
320 321 319 318 318 317 315 317 317 318 318 317 316 315 314 314 313 313 313 312 312 311 311 311 311 312 312 312 311 310 310 309 309 309 309 309 308 308 308 307 307 306
320 320 319 319 320 319 318 318 318 319 319 318 317 316 316 316 316 316 316 316 315 314 313 313 313 313 313 313 313 313 313 313 311 310 310 310 310 309 309 309 308 307
320 320 320 319 320 320 319 319 318 318 319 319 318 318 318 318 318 318 318 318 318 317 316 316 317 316 316 316 316 315 316 316 315 314 312 311 311 310 310 310 310 309
321 320 320 320 320 319 319 320 318 318 319 319 319 319 318 318 318 319 319 319 318 318 318 318 318 318 318 318 318 317 317 317 318 317 315 314 313 312 312 311 311 311
321 320 320 320 319 318 320 320 319 318 318 319 319 319 318 319 319 319 319 319 319 318 318 319 319 319 319 319 319 319 318 318 318 318 317 316 315 314 314 313 312 312
322 321 321 320 319 319 320 319 317 317 318 319 320 319 319 319 319 318 318 318 319 319 319 319 320 319 319 319 319 319 319 319 319 319 318 318 317 317 316 315 314 313
322 322 321 321 321 321 321 318 315 316 319 320 320 319 319 319 319 318 318 318 319 319 319 319 320 319 319 319 319 320 320 320 320 319 319 318 318 317 317 317 316 314
321 321 319 319 319 319 320 319 318 317 318 319 319 318 319 319 318 318 318 319 319 319 319 319 319 319 319 319 319 320 320 320 320 319 319 318 318 317 317 317 316 315
321 321 320 320 320 320 320 321 321 319 319 319 319 319 319 319 318 318 318 319 319 318 318 318 318 319 319 319 319 319 319 319 319 319 319 318 318 317 317 316 316 316
318 318 318 317 317 318 319 320 320 319 319 318 318 318 318 319 319 319 319 319 319 318 318 318 319 319 318 318 318 319 319 319 319 319 319 319 318 317 317 316 316 316
314 314 313 311 312 313 314 316 317 317 316 316 316 317 317 317 317 317 317 318 319 319 319 319 319 318 318 318 318 319 319 319 319 319 319 319 318 318 317 316 316 315
312 312 311 310 312 313 313 313 314 314 313 313 314 315 315 316 317 317 317 317 316 317 317 318 319 319 319 319 320 320 321 321 320 319 319 319 318 318 318 317 316 315
309 310 310 310 311 312 311 312 312 312 312 312 313 313 313 315 316 317 317 318 317 317 316 316 316 317 319 321 322 322 321 321 321 320 319 319 318 318 318 317 316 315
309 309 309 310 310 310 309 310 310 310 310 311 311 311 312 312 313 314 315 316 317 318 317 315 313 313 315 316 318 319 319 320 320 320 320 319 318 317 317 317 316 315
308 309 309 309 309 309 309 309 309 309 309 310 310 310 310 311 312 312 313 314 315 316 317 316 314 312 312 312 312 313 315 317 318 319 319 319 318 317 316 316 315 314
307 307 307 307 307 307 307 308 308 308 308 307 308 309 309 309 309 310 311 312 313 314 315 315 315 313 312 312 312 313 313 314 315 316 317 318 318 317 316 315 314 313
307 307 307 308 308 308 307 307 306 306 306 305 305 306 306 306 306 307 307 308 311 312 313 315 315 315 314 314 314 313 313 313 314 315 316 316 316 316 315 314 313 312
307 308 308 308 308 308 308 307 307 307 307 307 306 307 306 305 304 303 303 304 306 310 312 313 314 315 314 314 314 314 313 313 314 315 315 315 314 314 313 313 312 311
306 307 307 308 307 308 308 308 308 309 309 309 309 309 309 307 305 304 304 304 304 308 311 312 313 313 314 314 314 313 313 312 313 313 313 313 313 313 312 312 312 311
305 306 307 307 307 307 307 307 307 308 308 308 308 308 308 307 306 305 305 305 307 309 311 311 312 312 313 313 313 313 312 311 311 311 311 311 312 312 312 311 311 310
305 306 306 306 306 307 307 307 307 307 307 307 307 307 307 306 306 305 306 307 309 310 311 311 312 312 312 312 313 312 311 310 310 310 310 310 310 311 311 311 310 309

ECMWFNIL_850_thetae_045.txt.gz
Theta_e
318 312 308 308 308 308 308 307 306 307 306 306 306 306 306 306 306 306 306 306 307 306 306 306 306 306 306 306 306 306 305 305 305 305 305 304 304 304 304 304 304 304
315 311 309 308 308 308 307 307 307 307 307 307 307 307 307 307 307 307 307 307 307 307 307 307 307 307 307 307 307 307 306 306 306 305 305 304 304 303 303 303 303 303
313 313 312 308 308 308 308 308 307 307 307 307 307 307 307 307 307 307 307 307 308 308 308 308 308 308 308 308 308 307 307 307 307 306 306 306 305 305 304 304 303 303
315 317 316 313 310 308 308 308 307 307 308 307 307 308 308 307 308 308 307 308 308 308 308 308 308 308 308 308 308 308 308 308 308 307 307 307 306 306 305 305 304 304
317 317 319 319 315 309 307 308 309 309 310 311 311 310 310 309 309 308 308 308 308 308 308 309 309 309 309 309 308 308 308 308 308 308 308 308 307 307 306 306 305 305
317 318 321 321 318 313 310 310 310 312 312 314 315 314 313 312 312 311 311 310 310 310 310 310 310 311 311 310 310 310 309 309 309 308 308 308 308 308 307 306 306 306
318 320 321 321 319 316 314 313 313 315 315 316 317 316 316 315 314 314 314 314 314 314 314 313 313 312 312 312 312 312 313 313 312 311 310 309 309 308 308 308 307 307
320 321 321 320 319 318 317 316 316 317 318 318 318 317 317 317 317 316 317 317 317 317 317 317 316 316 315 315 315 315 315 315 316 316 314 313 311 310 309 309 309 309
320 321 320 320 319 319 319 318 317 318 319 319 319 318 318 318 317 317 317 317 317 317 318 318 318 318 318 318 318 318 317 317 318 317 317 316 314 313 312 311 311 310
321 320 320 319 319 319 318 319 319 319 319 319 318 318 318 317 316 317 318 318 317 317 318 318 318 318 318 319 318 319 319 319 319 319 318 318 317 316 315 315 314 314
320 320 319 319 319 318 318 319 320 319 318 318 318 317 316 315 316 317 318 318 317 317 318 318 318 318 319 319 319 319 319 319 319 319 319 319 318 318 317 316 316 316
320 321 320 320 319 319 319 319 318 319 319 319 318 316 314 314 316 318 318 318 318 318 318 318 319 319 320 320 320 319 319 319 319 319 319 319 319 319 318 317 317 316
322 321 320 320 320 320 320 318 317 318 318 318 318 316 315 315 317 318 319 318 317 317 318 318 319 319 320 320 320 320 320 320 320 320 320 319 319 319 318 318 317 316
321 319 319 320 320 320 319 318 317 317 317 317 318 317 317 317 317 318 319 318 317 317 317 318 319 319 319 319 319 320 319 319 319 319 320 320 320 319 319 318 318 317
318 318 318 318 317 317 317 317 317 317 317 317 318 318 317 317 317 317 318 317 317 317 318 319 319 319 319 318 318 319 319 318 318 318 319 319 319 319 319 318 318 317
317 316 315 315 314 315 316 318 318 319 319 318 318 318 317 316 316 317 316 316 316 318 319 319 319 319 320 320 320 319 319 319 318 319 319 319 319 319 319 319 318 318
315 314 313 312 313 314 314 315 316 317 317 316 316 316 316 316 317 317 317 318 318 319 319 318 318 318 319 320 320 319 319 319 319 319 320 320 319 319 319 319 318 318
312 312 311 310 311 312 312 312 313 314 314 313 313 314 314 315 315 315 316 317 318 319 318 318 317 316 316 316 316 316 317 319 319 319 320 320 320 320 319 319 318 318
309 310 309 309 310 311 311 311 311 311 311 311 311 311 311 312 312 312 313 313 314 316 316 317 316 316 316 315 314 314 315 315 316 317 318 319 319 319 319 318 318 318
309 309 309 309 309 309 309 309 309 309 309 309 309 309 310 310 310 310 310 311 312 313 314 314 315 317 317 315 314 314 314 314 314 314 315 315 316 318 318 318 317 317
308 308 308 308 308 308 308 308 308 308 308 308 308 308 307 307 307 307 307 308 308 309 311 312 314 315 316 315 315 314 314 314 313 313 313 313 314 316 317 317 316 316
307 307 307 307 307 307 307 307 307 306 306 306 306 305 305 304 304 304 304 304 305 305 306 309 311 313 314 314 314 314 314 314 313 312 312 313 313 315 315 315 315 315
307 307 307 307 307 308 308 308 307 307 306 306 305 305 305 305 305 304 304 304 304 304 304 305 308 310 311 312 313 313 313 313 312 311 311 311 311 312 313 313 314 314
307 307 307 307 307 307 308 307 307 308 307 307 307 308 308 308 308 307 307 306 305 305 304 304 306 309 310 311 311 312 312 312 312 311 310 310 309 310 312 312 312 312
306 306 306 306 307 307 307 307 307 307 307 307 307 307 307 307 307 307 307 306 305 303 302 304 307 309 310 311 311 312 312 312 311 311 310 310 309 309 310 310 310 311
305 305 305 305 305 305 305 305 305 306 306 306 307 307 307 308 307 307 307 307 305 304 303 304 307 309 310 310 311 311 311 311 311 310 309 309 309 308 308 308 309 309

ECMWFNIL_850_thetae_048.txt.gz
Theta_e
322 322 322 320 314 308 307 307 306 306 306 306 306 306 306 306 306 306 306 306 306 306 306 306 306 306 306 306 305 305 305 305 305 304 304 303 303 303 303 303 303 302
323 322 322 321 314 308 307 307 306 306 306 306 306 306 306 306 306 306 306 307 306 306 307 306 307 307 307 307 306 306 306 305 305 305 305 304 304 303 303 303 303 302
323 323 322 320 313 308 307 307 306 306 306 306 307 306 306 307 307 307 307 307 307 307 307 307 307 307 307 307 307 307 307 307 306 306 306 306 305 305 304 304 304 303
322 323 322 318 312 308 307 307 306 306 306 306 307 307 307 307 307 307 307 307 307 308 307 308 308 308 307 308 307 308 308 307 308 307 307 307 306 306 306 306 306 305
323 323 320 316 312 308 307 307 307 307 307 307 307 307 307 307 307 307 307 308 308 308 308 308 308 308 308 308 308 308 308 308 308 308 308 307 307 306 306 306 306 306
322 322 317 314 315 312 309 307 307 307 307 307 307 308 308 308 309 309 310 310 311 310 311 311 311 311 311 311 311 310 309 309 309 309 308 308 307 307 307 306 306 306
321 320 315 315 320 319 313 309 307 307 308 309 310 309 311 312 313 314 314 314 315 315 315 316 316 316 315 314 314 314 313 313 312 311 310 310 309 308 308 307 307 307
321 319 315 316 320 321 316 311 308 309 311 312 313 312 313 315 315 317 317 317 317 317 317 317 317 318 317 317 317 317 317 316 316 316 315 314 312 311 310 309 309 309
320 319 316 317 319 321 318 314 312 312 313 315 316 316 316 317 318 318 318 317 317 317 317 317 317 318 318 318 318 318 318 318 318 318 318 317 316 314 313 312 312 311
320 319 318 317 318 319 319 317 316 315 315 316 317 318 318 318 317 317 315 315 316 317 317 317 317 317 318 318 318 318 318 318 318 318 318 318 318 317 316 315 315 315
320 318 317 318 318 318 318 318 318 317 317 317 318 319 318 315 315 316 315 314 314 316 317 317 317 317 317 318 318 319 319 318 318 318 318 319 319 318 318 317 317 316
319 316 317 319 318 318 319 318 318 318 318 319 319 318 316 314 315 317 316 315 314 316 317 318 317 317 317 317 318 318 318 318 318 318 318 319 319 319 318 318 318 317
318 316 318 320 319 318 319 318 318 318 319 319 319 319 317 316 317 318 316 314 314 315 316 317 317 317 317 317 316 317 318 317 318 317 318 319 319 319 319 318 318 317
318 319 320 320 319 319 319 319 319 319 319 319 319 319 319 318 318 317 316 315 316 316 316 317 317 317 317 317 317 317 317 316 316 317 318 318 318 318 319 319 319 318
320 321 321 320 319 319 319 319 320 319 319 319 319 319 318 318 318 318 317 317 317 317 316 316 317 317 317 317 317 318 318 317 318 318 319 318 318 318 318 318 318 319
321 321 321 320 320 319 319 319 318 317 317 317 317 317 317 317 317 317 317 316 316 316 316 316 317 317 318 318 318 318 319 319 319 319 319 319 319 318 318 318 318 319
319 319 319 319 318 317 316 316 316 317 317 316 316 316 317 316 316 316 315 315 315 315 316 317 317 317 317 317 316 315 316 317 319 319 319 319 319 319 319 318 319 319
315 315 314 314 314 313 313 313 313 314 315 315 315 315 315 315 314 314 314 314 314 314 315 316 317 317 316 315 314 314 314 315 315 316 316 317 317 318 319 319 319 319
312 311 310 310 310 311 311 311 311 312 313 313 312 312 312 312 312 312 312 312 312 312 312 313 315 316 317 317 316 315 313 313 313 313 313 313 313 314 316 318 319 319
310 310 309 309 309 310 310 310 310 310 310 310 310 311 310 310 310 310 310 310 310 310 310 311 313 315 317 318 317 315 314 313 312 312 312 311 311 311 312 313 315 316
308 309 309 309 309 309 309 309 309 309 309 309 308 308 308 308 308 307 307 307 307 307 307 307 308 310 313 315 316 315 314 313 312 312 311 310 310 310 310 311 312 314
308 308 308 308 308 308 308 308 307 307 307 307 307 306 306 306 306 306 306 306 306 305 304 303 304 304 307 311 313 312 312 312 311 310 310 310 309 309 310 311 313 314
307 307 307 307 307 307 308 308 308 307 307 307 307 307 307 307 308 308 308 307 307 306 305 303 302 302 304 307 309 310 311 310 310 310 310 310 309 309 309 309 311 312
307 307 307 307 307 308 308 308 308 308 307 307 307 308 308 308 308 308 308 307 306 306 305 303 302 301 303 305 308 309 310 310 310 311 310 310 309 308 308 308 309 309
306 307 307 307 307 307 307 307 307 307 307 307 307 307 307 307 307 307 307 307 306 306 305 303 302 302 304 306 308 309 310 310 310 310 310 309 308 308 308 308 308 308
306 306 306 306 306 306 306 306 306 305 305 305 305 306 306 307 307 307 307 307 306 306 304 303 302 303 305 307 308 309 310 310 310 310 309 308 307 308 308 308 308 308

ECMWFNIL_850_thetae_051.txt.gz
Theta_e
319 321 322 321 321 317 309 306 306 306 306 306 306 307 306 306 306 306 306 306 306 306 306 306 306 306 306 305 305 305 305 305 304 304 303 303 303 303 303 303 303 302
320 322 322 321 321 317 309 306 306 306 306 306 306 306 306 306 306 306 306 306 306 307 307 307 307 307 307 306 306 306 305 305 305 305 305 304 304 304 303 303 303 303
322 322 322 321 321 318 310 306 306 306 306 306 306 306 306 306 306 306 306 307 307 307 307 307 307 307 307 307 307 307 306 306 306 306 305 305 305 305 305 305 304 304
323 323 322 322 322 320 312 307 306 306 306 306 306 306 306 307 307 307 307 307 307 307 307 307 307 308 307 307 307 307 307 307 307 306 306 306 306 306 306 306 306 306
322 323 322 322 323 319 312 307 306 306 306 306 307 307 307 307 307 307 307 307 308 308 308 309 309 309 310 310 309 309 308 308 308 308 307 307 306 306 306 306 306 306
322 323 323 323 322 318 312 308 306 306 307 307 307 307 307 307 307 308 309 310 311 312 312 313 313 313 313 313 313 312 312 311 311 311 310 309 309 308 307 306 306 306
323 323 323 323 321 316 311 308 306 307 307 307 307 307 308 309 310 312 313 314 315 316 316 317 317 316 316 316 316 316 315 315 314 313 313 313 312 311 309 308 308 307
324 323 323 323 320 316 315 311 307 307 307 307 308 309 310 312 314 316 316 317 317 317 317 317 317 318 318 318 317 318 317 317 317 316 315 314 314 313 312 311 310 310
323 323 323 323 319 317 319 317 310 307 307 308 310 312 314 315 317 317 317 317 317 317 317 317 317 318 318 318 318 318 318 318 318 318 317 316 315 314 314 313 312 312
323 322 322 322 319 317 320 319 313 308 309 310 313 315 316 317 318 318 317 316 315 315 315 315 316 317 317 317 318 318 318 318 318 318 318 318 317 316 315 314 314 313
323 322 321 320 318 318 320 319 314 311 311 313 315 317 317 318 318 317 315 313 312 313 314 314 315 315 315 316 317 318 318 318 318 319 318 318 318 318 317 316 315 315
323 321 320 320 318 317 318 319 316 314 314 314 316 317 318 318 318 317 314 312 314 315 314 314 314 315 315 315 316 317 317 317 317 317 318 318 318 317 317 317 317 316
323 322 321 320 318 317 317 318 318 317 317 316 317 318 318 319 319 317 314 314 317 317 315 314 315 315 316 316 316 317 317 317 317 316 317 317 317 317 317 317 317 317
323 322 320 318 317 317 317 317 318 318 318 317 318 319 319 319 319 318 316 316 318 317 316 316 316 316 316 316 316 317 317 317 317 316 316 316 316 316 317 317 317 317
322 321 319 318 318 318 318 317 318 318 319 318 318 319 319 319 319 319 318 318 318 318 317 317 317 317 316 316 316 317 317 317 317 317 317 317 317 318 318 318 318 318
320 319 319 319 319 320 319 318 318 319 319 318 319 319 319 319 319 318 318 318 318 317 316 316 316 316 316 316 316 316 316 317 317 317 317 318 318 318 318 318 319 318
320 320 320 320 320 320 320 319 319 319 318 318 318 318 318 318 318 317 317 316 316 315 315 315 316 317 317 316 315 315 315 314 314 314 314 315 316 317 317 318 318 318
320 320 320 321 320 319 318 319 318 318 317 317 317 317 317 316 316 316 315 314 314 314 314 314 316 317 317 316 316 315 314 313 313 312 312 312 313 314 314 315 316 318
318 318 319 319 317 315 315 315 315 315 315 316 316 315 314 314 314 313 312 312 312 311 311 311 312 314 315 316 316 316 315 315 314 312 311 310 310 311 311 311 312 313
314 314 314 314 313 312 312 312 313 313 313 313 313 312 312 311 311 310 310 310 309 309 309 308 309 309 311 313 315 316 316 315 314 313 312 310 309 309 309 310 310 310
311 311 311 310 311 311 311 311 310 311 311 310 310 310 309 309 309 308 308 307 306 305 305 304 304 304 305 306 309 312 314 314 313 312 310 309 308 308 309 309 309 310
309 309 309 309 309 309 309 309 309 309 309 308 308 307 307 307 306 306 305 304 304 303 303 302 302 302 301 302 303 305 309 310 310 309 308 307 307 308 308 308 308 310
308 308 308 308 308 308 308 308 308 308 307 307 306 306 306 306 306 306 306 306 305 305 305 304 303 303 302 301 301 302 304 305 306 306 307 308 308 308 307 307 307 308
307 307 307 308 308 308 308 308 308 308 307 307 306 306 306 306 307 307 307 307 306 306 305 304 304 303 302 302 301 302 303 304 306 307 308 308 308 307 307 306 306 307
306 306 306 307 307 307 307 307 307 307 307 307 307 307 307 307 307 306 306 306 306 305 305 304 304 303 302 302 301 302 304 305 307 308 308 308 307 306 306 306 307 307
306 305 305 305 305 305 305 305 306 306 306 306 306 306 305 305 305 305 305 306 305 305 305 304 304 303 302 302 303 303 304 306 308 309 308 307 306 306 306 307 307 307

ECMWFNIL_850_thetae_054.txt.gz
Theta_e
321 320 319 316 312 307 306 307 306 306 308 310 311 311 308 306 306 306 306 305 306 305 305 305 305 305 305 305 306 307 305 304 304 303 303 303 303 303 303 303 303 303
322 321 320 319 314 308 306 306 305 306 306 308 309 308 306 306 306 306 306 306 307 307 306 307 307 306 306 306 306 306 306 305 305 304 305 304 303 303 304 304 303 303
322 323 322 320 316 310 306 306 306 306 306 306 306 306 306 306 306 306 307 307 307 307 307 307 307 307 307 307 307 307 307 306 306 306 306 306 305 305 305 305 304 304
323 324 323 322 318 312 308 306 306 306 306 306 306 306 306 306 307 307 307 307 307 307 308 307 308 308 308 308 308 308 308 308 307 307 307 307 306 306 306 306 306 306
323 324 324 322 320 314 309 306 306 306 306 306 306 306 307 307 307 307 307 308 307 308 308 308 309 309 310 310 310 310 310 310 309 309 309 308 307 307 307 307 306 306
324 324 323 322 320 317 311 307 306 306 306 306 307 307 307 307 307 307 307 308 308 309 310 310 311 312 312 313 314 314 315 315 313 313 313 312 310 308 308 308 308 308
325 324 323 323 321 318 313 308 306 306 306 307 307 307 307 307 307 308 309 310 311 312 313 313 314 314 315 315 316 317 317 317 316 316 316 315 314 312 310 310 311 311
324 323 323 323 322 319 314 309 306 306 307 307 307 307 307 308 308 310 312 314 316 316 316 316 317 317 317 318 318 318 317 318 317 317 317 317 315 315 313 312 312 313
323 324 323 323 323 320 316 311 307 306 307 307 307 308 307 309 311 314 316 317 318 318 318 318 318 318 318 318 318 318 318 318 318 318 318 318 317 317 316 314 314 314
323 324 324 323 323 321 318 314 309 306 307 307 307 308 308 311 314 316 318 319 318 319 319 319 319 319 318 318 318 318 318 318 319 319 319 319 318 318 317 316 315 315
323 324 323 323 324 322 319 317 314 308 306 307 307 309 312 314 317 318 318 318 318 319 320 320 320 319 318 318 317 317 318 318 318 318 318 318 319 319 318 318 317 316
323 323 323 322 323 322 319 319 319 314 308 308 310 312 315 316 318 318 318 319 319 319 320 321 320 318 318 318 318 317 317 317 317 318 317 317 317 318 318 318 318 318
324 324 324 322 321 321 319 319 321 319 312 309 312 315 316 317 319 319 319 320 320 320 321 321 319 317 316 317 318 317 317 316 317 317 317 317 317 317 317 317 317 317
326 325 324 323 321 320 319 319 320 319 315 311 312 315 317 317 319 320 320 320 320 320 320 319 318 317 317 317 318 317 317 317 317 317 318 318 318 317 316 316 317 317
324 323 323 323 321 320 319 319 320 320 318 315 314 315 317 318 319 320 320 319 319 319 319 318 318 318 317 317 317 317 317 318 318 318 318 318 318 319 318 318 318 318
322 322 321 321 321 320 319 319 320 320 319 318 318 317 318 319 319 320 320 319 319 319 318 318 318 317 317 316 316 316 317 318 317 317 317 317 318 319 320 320 319 319
321 320 320 320 320 320 320 320 320 320 319 319 320 319 318 319 320 320 319 319 319 318 318 317 316 316 315 315 315 315 315 316 316 315 315 315 315 316 317 318 318 318
321 320 320 320 321 321 321 320 319 319 318 318 318 318 317 317 318 318 319 318 317 317 317 316 315 315 316 316 316 316 314 314 314 313 313 312 312 312 313 314 314 314
321 321 321 321 321 321 320 318 318 318 317 317 317 317 317 316 317 317 318 317 316 315 314 313 313 314 315 316 316 316 315 313 312 312 311 311 311 311 311 313 312 311
319 320 320 319 319 318 316 315 315 315 314 314 315 315 315 316 316 315 315 314 312 312 311 311 310 310 311 312 313 314 314 312 311 311 311 310 309 308 307 308 309 309
317 316 315 314 314 313 312 313 313 313 312 312 313 313 314 314 313 312 311 310 309 308 307 306 305 305 305 306 308 309 310 310 309 309 310 308 305 304 304 304 306 307
314 313 313 313 313 312 312 312 311 311 311 311 311 311 310 310 309 309 308 307 306 306 305 304 303 303 302 302 303 304 305 308 309 309 309 306 303 304 304 304 305 307
310 310 311 312 312 313 312 311 309 309 310 310 310 310 309 309 307 307 307 306 306 307 306 305 304 304 303 302 302 301 303 308 311 310 309 307 306 306 306 305 305 306
308 308 308 309 310 311 310 309 309 309 308 308 310 310 310 309 308 308 308 307 307 306 306 305 304 304 303 303 302 301 302 308 312 311 310 308 307 307 306 305 305 305
309 309 309 308 308 308 308 308 310 309 307 308 310 311 309 308 309 309 308 307 306 305 305 305 304 304 303 303 303 302 302 306 311 312 310 310 309 307 306 305 305 305
308 309 309 309 308 308 307 308 308 308 307 307 309 309 308 308 308 309 308 307 306 305 304 304 303 303 303 302 302 302 302 305 310 311 310 309 309 308 306 305 305 305

ECMWFNIL_850_thetae_057.txt.gz
Theta_e
325 325 324 323 321 321 321 319 318 319 318 318 317 316 314 313 312 309 307 307 306 305 305 305 306 307 310 312 312 311 309 306 306 305 305 305 304 304 303 303 307 312
326 324 323 323 322 321 319 317 317 318 318 318 317 313 308 307 308 306 306 307 306 305 305 306 307 307 307 308 308 309 307 307 308 308 307 308 307 306 305 304 307 311
326 325 324 324 322 321 318 315 316 317 317 317 314 308 306 305 306 307 307 308 307 307 307 307 308 309 309 308 308 308 308 307 308 308 307 308 308 308 307 308 310 312
325 324 324 323 321 319 317 313 315 316 314 312 309 306 306 307 306 307 308 308 308 307 307 308 309 310 310 310 310 309 308 308 308 308 308 308 308 308 308 309 310 311
325 324 324 324 319 317 317 313 313 314 310 308 307 306 307 307 307 308 308 309 309 308 308 308 309 309 310 311 311 309 310 310 309 309 309 308 308 309 309 308 308 310
325 324 322 322 318 315 318 315 312 312 309 307 307 307 307 308 308 308 309 310 310 309 309 308 308 310 312 313 314 315 316 315 312 313 314 313 311 311 311 311 311 311
323 324 323 322 321 318 318 317 314 311 308 306 308 308 307 309 310 311 310 311 312 313 313 312 311 313 314 316 318 319 319 317 317 318 319 317 315 314 314 315 314 314
322 324 324 322 323 321 319 317 313 311 308 307 308 309 309 312 315 314 313 314 316 317 318 317 316 316 316 319 321 320 319 318 319 320 320 318 318 317 316 316 315 316
321 324 324 322 323 324 321 317 312 311 310 308 309 309 310 315 318 316 316 318 318 319 319 319 320 319 319 321 321 321 320 319 320 321 320 320 320 319 318 317 316 317
318 323 325 324 324 325 323 318 312 312 314 312 312 312 313 316 318 317 318 319 319 320 320 320 321 321 321 322 322 322 322 321 321 321 321 321 321 320 320 319 318 318
316 321 324 325 324 325 325 320 312 310 314 316 316 315 315 317 317 318 319 320 320 320 320 321 321 321 321 321 322 322 322 322 322 322 321 322 322 321 321 320 319 319
317 320 324 324 323 324 323 320 314 309 310 315 315 314 315 318 318 319 320 320 320 321 321 321 321 321 321 321 321 322 322 322 322 321 322 322 321 321 321 321 320 320
323 324 325 324 323 323 322 321 320 315 311 314 315 314 317 319 319 320 321 321 321 320 320 321 321 321 321 321 321 321 321 322 322 321 322 322 321 322 322 322 321 321
325 325 325 324 323 324 323 322 323 320 316 316 316 316 319 320 319 320 321 320 320 320 320 321 321 321 321 321 321 321 322 322 322 321 321 321 320 320 321 321 321 321
323 324 325 325 324 324 324 324 324 323 321 320 319 318 320 321 321 322 321 320 320 321 321 321 322 320 319 319 319 320 321 321 321 320 320 320 320 320 320 321 321 322
324 325 325 326 325 324 323 324 324 324 323 322 320 319 320 320 320 321 321 321 321 321 321 322 321 319 318 317 317 318 318 318 318 319 319 319 320 319 320 320 321 321
325 325 325 325 324 323 322 322 322 323 323 322 320 319 320 320 320 319 318 319 321 321 321 320 319 318 317 317 316 316 316 316 317 319 318 319 319 319 319 318 319 321
324 324 324 323 323 323 322 321 321 321 321 322 320 319 319 319 318 317 316 317 318 320 320 318 317 317 316 316 315 315 315 314 316 318 318 318 319 318 318 317 317 319
324 324 323 322 321 321 321 320 321 321 320 320 320 319 319 319 318 316 317 318 318 319 318 316 315 315 315 315 315 315 315 314 315 318 317 317 318 316 316 316 317 317
323 323 322 322 321 321 320 321 321 320 319 319 318 318 318 318 318 317 318 318 317 317 316 314 313 313 312 312 312 313 313 311 313 316 315 313 312 310 310 311 311 312
322 321 320 320 321 320 319 319 318 317 317 317 317 318 317 318 318 317 316 316 315 316 314 311 309 308 307 308 308 308 307 306 310 315 315 312 307 303 304 305 305 307
318 318 318 318 318 318 318 317 316 316 315 315 316 316 317 317 316 314 314 313 314 314 311 306 304 303 302 303 304 303 302 307 312 314 314 314 310 306 305 304 304 308
315 315 316 315 316 316 316 316 316 316 315 315 315 315 315 315 314 313 312 312 313 312 309 303 303 303 302 302 303 302 302 308 314 314 313 314 313 311 309 304 303 307
312 313 314 314 314 314 315 315 315 315 314 314 314 314 314 313 313 313 312 312 312 312 309 305 304 304 303 303 303 303 302 307 312 314 313 313 312 311 310 307 305 306
311 311 312 312 312 313 313 313 313 313 313 313 313 313 312 312 312 312 312 312 311 309 306 305 304 304 303 303 303 303 302 304 310 314 313 312 311 310 309 307 306 306
311 311 311 311 311 312 312 312 312 312 312 312 312 312 311 310 310 310 311 311 310 306 305 305 305 303 303 303 302 302 302 303 307 311 312 310 310 310 309 308 307 306

ECMWFNIL_850_thetae_060.txt.gz
Theta_e
320 313 309 313 317 318 322 323 321 319 318 317 315 311 308 307 306 305 305 305 305 305 305 306 309 311 311 310 308 305 304 305 304 304 304 303 304 306 309 311 311 311
316 312 310 315 318 320 322 320 318 319 318 317 314 309 307 305 305 305 305 305 305 304 305 306 306 307 306 306 305 305 306 306 306 306 305 304 304 305 309 312 311 308
316 313 312 317 320 321 321 319 318 319 319 317 313 307 305 305 305 305 305 305 306 306 306 307 307 307 307 307 307 307 307 307 307 307 306 306 306 306 308 311 310 307
319 316 317 321 321 320 319 317 318 320 318 316 312 306 305 306 305 306 307 307 307 308 308 308 309 309 308 309 308 308 308 308 308 308 308 308 308 308 308 309 309 308
322 320 322 323 319 317 317 316 318 319 317 315 309 305 306 306 307 308 307 308 308 308 308 309 309 309 309 309 309 310 310 309 309 309 309 309 309 309 309 309 309 309
321 321 324 324 318 313 313 314 316 317 315 312 307 305 307 307 308 308 308 308 308 308 309 309 309 310 311 311 313 316 315 312 313 314 314 312 312 312 312 312 311 309
321 322 324 325 319 312 311 313 315 314 312 309 306 306 308 308 308 309 308 309 309 308 309 309 310 310 311 312 316 319 318 316 318 319 318 316 315 315 316 315 314 313
320 321 322 324 322 316 312 314 314 313 310 307 307 307 308 308 308 308 309 309 309 309 309 309 310 310 311 316 318 317 317 318 320 321 319 317 317 317 317 316 316 316
321 319 319 322 324 319 314 315 316 313 309 307 308 307 307 309 309 308 309 309 310 312 313 312 312 311 312 318 319 316 318 318 319 321 320 318 319 319 318 317 317 317
323 321 317 320 324 319 313 315 316 313 309 307 308 308 307 312 313 310 310 313 315 317 317 316 317 315 315 319 320 318 320 320 319 321 320 319 320 320 319 319 318 318
323 321 318 321 324 319 314 316 315 312 310 308 309 309 309 314 317 314 314 317 318 319 320 319 321 319 318 321 321 320 322 322 321 321 320 320 321 320 320 320 319 319
320 318 317 322 324 320 318 319 316 311 312 312 312 313 312 316 319 317 318 320 319 320 320 320 321 321 320 320 320 321 322 322 321 321 321 321 320 320 320 321 319 320
320 319 318 320 322 321 321 321 318 315 316 317 317 317 316 317 319 318 319 320 319 320 320 320 320 321 321 320 320 321 321 321 321 320 319 320 319 318 319 320 319 320
322 323 322 321 322 322 321 322 321 319 319 319 319 318 318 318 318 319 319 319 320 319 319 320 320 320 320 321 321 321 320 320 319 317 317 318 317 316 317 318 318 318
322 323 323 323 324 323 322 321 321 320 318 318 318 318 318 318 318 319 319 319 320 320 319 319 319 319 320 320 319 318 318 318 318 317 317 317 317 317 316 317 318 316
323 323 324 325 325 325 323 321 320 319 316 316 318 318 318 319 319 319 319 320 321 321 320 319 318 319 319 318 317 317 317 317 317 317 316 316 316 317 316 316 316 315
324 324 324 324 324 324 322 321 319 319 317 317 318 318 318 319 319 319 320 320 321 320 320 318 317 318 318 318 317 317 317 316 316 316 316 315 316 316 316 316 315 315
324 324 323 323 323 322 321 321 320 319 319 319 319 319 319 319 319 320 321 321 320 319 318 318 317 316 316 316 316 316 315 315 316 317 317 317 317 317 317 317 316 316
322 321 322 321 321 320 319 321 321 320 319 320 320 321 320 320 320 320 320 319 318 317 317 317 316 315 316 316 316 315 314 314 317 318 317 318 317 317 317 317 317 316
319 319 320 320 320 320 320 320 320 320 319 319 320 321 321 320 320 319 319 318 317 316 316 315 315 316 316 316 315 315 314 313 315 317 317 317 315 313 314 314 314 315
319 320 321 320 320 320 321 320 319 319 319 319 320 320 320 319 319 319 318 317 316 316 316 315 315 315 314 313 314 316 313 310 312 316 316 315 311 307 307 306 307 312
318 319 320 319 319 319 320 319 318 319 319 319 319 318 319 319 318 317 317 316 316 315 313 312 312 311 310 310 312 313 309 308 312 316 316 315 311 306 304 303 305 308
316 317 317 318 318 318 318 317 317 317 317 317 317 317 317 317 316 316 315 315 315 313 310 307 306 305 305 305 306 305 305 308 313 315 314 314 311 307 305 305 304 304
313 314 315 315 316 316 316 316 316 316 315 314 315 315 316 315 314 314 315 314 314 310 306 303 302 302 302 302 302 302 303 308 313 314 314 314 312 310 309 307 305 304
312 313 313 314 314 315 315 315 315 315 314 314 314 314 314 314 313 314 314 313 314 311 306 303 303 303 303 303 303 303 303 308 313 314 314 313 311 310 311 309 307 306
312 312 312 312 313 313 313 313 314 314 314 314 313 313 313 313 313 313 312 312 314 312 307 304 304 304 303 303 303 303 303 307 312 314 313 312 310 310 310 309 308 308

ECMWFNIL_850_thetae_063.txt.gz
Theta_e
324 319 315 314 311 308 310 315 318 318 314 311 310 310 308 307 307 307 307 308 311 313 315 315 315 313 308 305 305 305 305 305 304 306 308 309 311 312 312 314 318 319
324 321 319 315 312 312 314 316 318 316 312 310 309 308 307 307 306 306 305 305 307 309 312 313 312 309 305 304 304 304 304 304 304 304 305 307 308 308 309 313 318 318
324 323 320 317 315 317 319 318 317 314 313 312 310 307 306 306 305 305 305 304 305 306 308 308 307 306 305 305 305 305 305 305 304 304 304 305 305 305 305 309 315 317
324 322 321 320 319 321 322 319 316 316 316 314 310 307 306 305 305 305 305 305 306 306 306 307 307 307 307 307 307 307 307 307 307 306 306 306 305 305 304 304 308 313
324 322 321 321 321 322 322 318 317 318 317 315 311 307 305 304 305 305 305 307 308 308 308 308 308 308 308 308 308 308 308 308 308 308 308 308 307 307 306 305 305 307
324 321 321 322 321 322 321 318 319 319 318 315 311 306 305 305 305 306 307 308 308 309 309 309 309 310 310 311 311 311 312 313 313 312 311 310 310 310 309 309 308 306
324 323 323 322 322 321 320 319 320 320 318 316 310 305 305 306 306 307 307 308 309 309 309 310 310 311 313 315 316 316 317 318 318 317 315 314 315 314 313 312 310 309
324 324 324 323 322 321 319 320 320 319 319 315 309 305 306 307 307 308 308 308 309 308 309 310 310 311 313 317 318 318 320 320 320 319 317 317 317 317 316 315 314 313
325 325 324 323 322 321 320 320 321 320 319 315 309 305 306 308 308 308 308 308 308 309 309 309 310 312 317 319 318 319 320 321 321 321 319 318 319 318 317 317 317 316
326 325 325 324 322 321 320 320 321 321 319 315 310 306 306 308 309 309 309 309 310 310 310 311 312 315 320 322 319 319 320 319 319 320 319 319 320 319 319 318 318 318
324 324 325 325 323 320 320 321 322 321 320 318 313 309 308 310 310 310 311 313 313 314 315 316 317 318 320 323 321 319 319 319 320 320 319 320 320 320 320 319 319 318
323 323 323 324 324 322 320 320 319 318 319 319 317 312 310 313 314 312 313 316 317 318 319 319 320 320 321 322 322 321 320 320 320 320 320 320 320 320 320 320 320 319
322 322 321 321 322 322 319 317 315 314 318 320 319 316 313 315 318 315 315 318 319 319 320 320 321 321 321 320 321 321 321 320 320 319 319 318 319 319 319 319 320 320
321 321 320 319 320 320 318 316 315 315 318 318 318 318 316 316 319 317 317 319 319 319 320 320 320 320 320 320 320 319 319 320 320 318 317 317 317 318 318 318 319 319
321 322 321 319 318 318 317 317 317 319 319 318 318 319 317 316 318 318 318 319 319 319 319 319 319 320 320 320 320 317 317 318 318 317 316 316 316 317 317 316 317 318
321 321 320 319 318 318 319 319 319 320 320 319 319 319 318 317 318 318 318 318 319 319 319 319 319 319 319 320 319 317 316 316 316 315 315 316 316 317 317 316 316 317
321 321 320 319 318 318 318 317 317 319 319 318 318 319 319 318 317 318 318 318 318 319 319 320 320 319 319 319 318 317 316 316 316 315 315 315 316 316 316 315 316 316
322 322 321 320 320 319 318 318 319 319 319 318 317 318 319 318 318 318 318 318 319 319 319 319 320 320 319 318 317 317 316 315 315 314 315 316 315 316 316 316 315 316
322 321 321 320 320 319 318 320 321 320 319 318 316 316 317 318 318 318 319 319 319 318 319 320 320 319 318 317 316 316 316 314 314 315 316 316 316 316 316 316 316 315
319 320 320 320 320 318 317 319 320 320 319 317 317 317 318 319 320 319 319 319 319 319 320 320 319 318 316 316 316 315 315 314 315 316 317 316 316 316 315 315 314 314
318 319 320 319 319 320 320 320 321 321 318 317 319 320 320 319 319 319 319 319 319 320 319 318 318 316 315 315 315 315 314 315 316 317 316 315 314 315 316 315 311 309
317 318 319 319 319 320 320 320 321 321 319 319 319 320 321 320 318 318 319 319 319 318 318 317 316 315 315 316 315 314 315 315 315 316 316 315 311 309 310 311 308 305
317 318 318 318 318 318 318 318 319 320 319 318 318 319 321 320 319 318 318 319 318 317 317 316 315 316 316 315 314 314 313 313 314 314 314 313 309 306 305 306 306 305
315 317 317 317 317 317 317 317 317 318 318 318 318 319 319 319 319 318 317 317 316 315 314 313 313 314 313 312 311 312 312 313 314 313 312 312 311 309 307 306 305 305
312 314 315 316 316 316 315 316 316 317 317 317 317 317 317 317 317 316 316 315 314 312 310 307 306 307 306 306 307 308 310 313 315 314 313 313 313 311 309 307 307 306
311 312 312 314 315 315 315 315 315 315 315 315 315 314 314 314 314 314 313 312 311 310 307 304 303 302 301 302 303 304 309 314 315 313 313 314 313 312 309 308 308 307

ECMWFNIL_850_thetae_066.txt.gz
Theta_e
325 325 324 325 325 321 316 317 320 319 316 314 313 313 311 311 316 319 319 319 319 316 313 309 307 306 306 306 307 309 313 316 316 317 318 317 316 319 320 320 322 323
327 326 326 325 322 319 319 320 321 320 316 314 315 312 309 308 311 316 317 317 315 312 308 307 305 305 305 305 305 305 307 308 308 310 313 315 315 317 319 319 321 322
328 327 326 322 318 319 321 320 320 318 314 312 312 309 307 307 308 312 314 312 311 308 306 305 304 304 304 304 304 304 304 305 305 306 309 311 312 315 318 318 319 320
326 325 323 320 317 319 321 320 321 318 312 309 309 307 307 306 306 309 310 309 308 306 305 304 304 305 304 304 304 304 304 304 305 305 306 308 310 313 316 317 317 318
324 323 322 319 317 320 322 322 321 317 312 311 309 308 307 305 305 306 307 307 306 306 306 306 306 306 306 306 306 306 306 306 306 305 304 305 307 311 316 318 318 317
324 323 322 319 319 322 323 322 319 316 315 314 311 308 306 304 304 304 305 306 306 306 307 307 308 308 308 308 307 307 308 307 307 307 307 306 305 307 312 316 318 317
324 323 321 321 322 323 322 321 318 318 318 316 311 307 305 304 305 306 307 307 307 307 308 308 308 308 308 309 309 311 312 311 310 309 308 308 307 306 308 311 315 317
324 323 322 322 322 322 321 319 318 319 318 315 310 305 304 305 307 310 311 310 310 310 310 310 312 312 312 313 315 316 317 316 314 312 312 311 310 309 308 308 310 313
323 323 322 322 322 322 321 319 319 319 318 316 310 304 304 306 308 311 313 312 313 312 313 315 316 316 317 318 318 319 318 318 317 316 316 315 314 313 312 310 309 310
324 323 323 322 322 321 320 320 320 319 319 318 313 306 305 307 308 311 312 312 312 313 314 317 317 317 319 320 319 319 319 318 319 318 317 317 317 317 316 314 310 309
324 324 322 322 321 321 320 320 320 320 320 320 314 307 306 308 308 310 312 311 312 312 313 316 317 318 320 320 319 320 319 318 319 319 318 317 317 318 317 317 314 310
324 323 322 322 322 321 320 321 322 321 320 319 315 308 306 308 310 312 314 314 314 314 314 315 318 320 320 320 319 319 319 319 319 319 319 318 319 319 318 318 317 315
323 322 322 322 322 321 320 321 322 322 321 320 315 309 307 310 312 314 315 316 318 317 316 317 318 318 317 317 318 318 319 320 320 319 319 320 320 320 320 319 319 318
322 322 322 321 321 321 321 322 322 321 320 317 312 309 309 311 314 314 315 317 318 318 318 319 319 318 318 317 317 319 319 320 321 320 320 319 319 319 320 320 320 320
322 323 323 322 322 322 320 319 318 317 317 313 311 310 310 311 315 316 315 316 317 318 319 319 319 320 320 319 319 319 319 319 319 318 318 318 317 317 318 319 319 319
320 321 321 322 322 322 320 318 316 316 315 314 314 312 310 313 317 318 317 316 317 319 319 319 320 320 320 320 319 320 319 318 317 316 316 316 316 316 316 317 318 318
319 320 320 320 320 320 320 319 318 317 316 316 316 312 311 315 318 318 318 316 315 318 319 319 319 319 319 319 319 320 320 318 316 315 315 315 315 315 316 317 317 317
320 319 319 319 319 318 319 318 317 316 315 315 315 313 314 318 318 318 318 316 315 318 319 319 319 319 319 319 319 319 319 318 316 315 315 315 315 316 317 317 317 317
321 321 320 320 320 320 319 319 317 316 316 316 316 316 317 319 319 318 318 318 318 318 319 319 319 319 319 319 319 319 318 318 317 315 315 315 315 316 316 316 317 317
322 322 321 321 321 321 320 319 318 318 318 318 319 319 319 319 319 318 318 318 318 318 318 319 319 319 319 319 319 319 318 317 316 315 315 315 315 315 315 315 316 316
320 321 321 321 321 320 320 319 318 318 318 318 318 319 318 318 318 319 319 318 318 318 318 318 319 319 319 319 319 318 317 316 316 315 315 315 315 316 315 315 315 316
318 319 320 320 320 320 320 319 318 318 319 319 319 319 318 317 318 318 319 319 319 319 319 319 319 319 319 319 318 317 316 316 315 315 315 316 316 316 315 315 315 314
318 318 318 318 319 319 319 319 318 318 320 320 320 319 318 318 319 319 319 319 320 320 320 319 319 319 319 318 317 316 315 315 315 316 316 316 315 313 313 314 314 313
318 318 317 317 318 319 318 319 319 319 320 320 319 318 318 318 319 319 319 319 319 319 319 319 319 318 318 317 316 315 316 315 315 315 315 315 314 312 310 311 313 313
317 318 317 317 317 317 317 317 318 319 320 320 319 318 318 318 319 319 319 319 319 318 318 318 318 317 316 316 316 316 316 316 315 315 314 315 316 312 307 306 308 309
314 315 315 316 316 316 316 316 316 316 317 317 318 318 318 318 318 318 319 318 318 318 317 316 315 315 316 316 315 316 316 316 315 314 313 314 314 311 307 306 306 306

ECMWFNIL_850_thetae_069.txt.gz
Theta_e
328 328 324 320 319 318 320 321 322 322 321 320 320 318 315 317 320 320 320 320 318 318 314 308 308 311 312 314 318 320 322 323 321 319 319 319 319 320 320 320 321 322
328 327 323 321 321 321 322 321 321 321 319 317 316 315 315 318 320 319 320 318 318 317 311 306 306 307 307 310 313 317 320 322 320 317 316 318 319 319 318 319 321 321
327 324 322 323 323 324 324 321 319 320 319 316 316 316 315 317 319 319 319 318 317 313 308 305 305 305 305 306 308 311 315 318 317 316 315 316 318 317 317 319 320 318
325 324 324 325 325 325 322 318 318 321 320 316 315 316 314 314 317 318 318 317 313 309 305 304 304 304 304 304 305 306 308 310 311 313 314 315 316 317 317 320 320 318
325 326 326 326 325 323 319 316 318 320 318 313 313 313 311 310 313 315 315 313 309 306 304 303 304 303 304 304 304 305 305 305 306 309 312 313 315 317 317 318 319 319
327 327 326 325 322 319 316 316 318 319 314 309 309 309 309 308 309 310 310 309 307 305 304 304 304 304 304 305 305 305 305 305 304 306 309 311 314 316 316 316 317 317
327 327 325 323 321 318 317 318 319 317 311 308 308 307 307 306 305 306 306 307 306 305 305 305 305 306 306 306 307 307 307 306 305 305 306 308 312 315 316 315 315 315
326 325 323 322 320 317 318 320 320 317 313 311 308 306 305 304 304 305 306 307 306 306 306 307 307 307 307 307 308 308 308 308 307 306 306 306 309 313 315 315 315 314
325 324 323 321 318 317 320 322 320 317 316 314 309 305 305 304 304 305 306 306 307 307 308 308 308 308 308 310 311 311 311 310 310 309 308 307 307 309 311 313 314 315
324 324 323 321 319 320 322 322 319 317 318 317 311 305 304 304 305 305 306 307 307 308 308 310 312 311 311 314 315 315 315 314 314 313 312 311 310 310 309 310 312 313
323 323 323 320 320 322 322 321 319 318 319 318 313 306 303 305 306 307 308 308 308 309 310 313 315 315 315 316 317 316 316 316 316 316 315 314 314 314 313 312 311 311
322 323 323 321 320 322 321 320 320 319 318 320 316 308 304 306 307 308 309 309 309 310 311 312 314 315 316 317 317 317 317 316 316 316 316 316 316 316 317 316 314 311
322 323 323 322 322 321 319 319 320 320 319 320 318 311 306 307 309 309 309 309 308 309 310 310 310 311 314 316 317 317 317 316 317 317 317 317 317 317 317 317 317 315
321 322 322 322 321 319 317 316 317 320 320 320 319 314 309 309 309 308 309 309 309 310 311 311 310 311 314 316 317 317 317 317 317 318 318 318 318 318 318 318 318 318
322 322 322 321 320 319 318 315 315 319 321 320 318 314 311 311 310 308 308 309 310 312 312 312 312 314 315 316 316 316 317 317 318 319 319 318 318 318 318 318 318 319
322 322 321 320 319 320 321 318 318 320 322 320 316 313 313 314 311 308 308 310 311 312 311 311 314 317 318 317 317 317 317 318 318 319 319 318 318 317 317 317 317 318
322 322 321 320 319 320 321 320 320 321 322 319 315 313 315 315 310 309 310 310 310 311 310 309 312 318 319 319 319 319 319 319 319 319 319 318 316 316 315 315 315 316
322 322 322 321 320 319 319 320 320 320 321 319 313 312 313 312 310 311 312 311 310 310 309 309 312 317 319 319 320 321 320 320 320 319 319 318 316 315 315 315 315 315
321 321 321 321 321 320 320 320 319 319 319 317 314 312 311 310 311 314 313 310 310 309 310 312 314 317 319 319 319 321 321 320 319 319 319 318 317 316 315 315 315 316
322 322 322 322 322 322 321 321 320 319 318 317 317 316 314 313 315 315 312 310 309 310 313 315 316 317 319 319 319 320 319 319 319 319 319 318 318 317 315 314 315 316
323 322 322 322 323 322 321 321 320 319 318 318 318 317 315 315 315 313 311 311 312 315 317 317 317 317 318 319 319 319 319 319 319 319 319 318 317 316 315 315 315 316
322 322 322 322 322 322 321 321 321 320 320 319 319 318 317 317 317 316 315 316 317 318 318 317 317 318 318 319 319 319 319 319 319 319 318 317 317 316 315 315 315 315
320 320 320 320 321 321 321 321 321 321 320 319 319 320 319 318 319 318 317 318 319 318 318 318 318 318 319 319 319 319 319 319 319 318 317 316 316 315 315 315 316 315
318 318 319 319 319 320 320 320 320 320 320 319 319 319 319 319 319 318 317 317 318 318 318 318 318 317 318 319 319 319 319 318 318 317 316 316 316 316 316 316 316 316
317 317 317 318 318 318 318 318 319 319 319 319 319 319 320 319 319 318 317 317 317 317 316 316 317 317 317 317 318 318 318 318 317 316 316 315 316 316 316 315 316 316
314 314 315 316 317 317 317 317 318 318 319 319 319 319 319 319 319 318 317 317 317 316 315 316 317 317 317 317 317 317 318 317 316 316 315 315 316 316 315 314 315 315

ECMWFNIL_850_thetae_072.txt.gz
Theta_e
327 327 327 324 319 318 317 317 318 320 321 321 321 321 319 317 317 317 317 318 318 318 314 310 313 317 318 318 319 320 322 323 323 322 321 320 320 320 321 321 322 323
328 328 328 325 321 317 316 317 318 320 321 321 319 317 314 314 315 316 317 317 316 316 312 307 310 314 315 317 319 319 320 321 321 321 319 319 319 319 319 320 322 323
329 329 328 326 321 318 318 320 320 321 321 319 316 313 310 312 315 316 317 317 315 313 309 306 307 309 311 314 316 319 320 319 319 318 317 317 317 316 316 319 321 322
329 329 328 325 322 320 321 322 321 321 321 318 314 312 311 313 315 316 317 317 315 311 307 305 306 305 306 308 310 314 317 318 318 317 316 316 314 314 316 319 320 320
328 328 327 324 323 323 323 323 320 319 320 319 315 313 312 313 315 317 316 316 314 309 304 304 305 304 305 305 306 309 312 315 316 315 314 314 313 313 317 320 319 317
328 327 326 324 324 324 324 324 320 318 320 319 315 314 312 311 312 315 315 315 313 307 303 303 304 304 304 304 305 306 306 308 311 313 313 314 313 314 317 319 319 317
327 326 325 325 326 325 324 323 319 318 319 317 313 311 309 307 308 311 313 313 310 306 303 304 304 304 304 304 305 305 304 305 307 310 312 313 314 315 316 318 318 317
325 325 326 327 326 324 323 320 318 318 318 314 310 308 307 306 306 308 310 311 308 305 304 304 305 305 305 306 306 305 305 304 305 307 310 312 314 315 315 316 317 316
325 326 327 326 325 322 320 318 318 319 317 312 308 308 307 306 305 307 309 309 307 305 305 305 306 306 307 307 307 307 307 307 306 307 308 310 313 315 315 315 315 315
326 327 326 325 323 321 318 318 319 319 317 312 309 308 307 305 305 306 308 309 307 306 306 307 307 307 308 308 309 311 311 310 310 309 309 309 310 312 314 314 314 314
326 327 325 323 322 320 317 319 321 319 317 315 311 307 305 304 304 306 307 308 307 307 307 308 308 308 309 310 312 314 315 314 314 314 313 312 310 310 311 311 312 313
326 326 324 323 322 319 318 321 322 319 318 317 314 308 305 304 304 305 306 307 307 308 308 309 310 310 311 313 314 316 316 316 317 317 316 315 314 314 313 312 312 311
326 325 324 323 321 320 320 321 320 319 318 318 316 311 306 304 304 305 306 307 307 308 309 310 311 312 312 314 315 316 317 317 317 317 317 317 316 317 317 317 316 314
324 324 323 322 321 321 321 320 319 319 319 318 319 315 308 304 305 306 307 307 308 309 309 310 310 310 311 312 313 315 316 317 317 316 317 318 317 317 318 318 318 317
323 323 323 322 322 321 321 321 319 319 319 319 320 318 312 306 305 306 308 309 309 309 309 309 309 309 309 310 311 313 315 317 317 317 318 318 318 318 318 318 318 318
321 321 321 320 321 321 320 319 317 317 319 319 319 319 315 309 306 307 309 310 309 309 309 309 309 310 310 310 311 313 315 317 317 317 318 319 319 318 318 317 317 317
320 319 318 318 318 318 318 317 315 315 318 319 319 319 316 312 308 307 308 310 311 311 311 309 309 310 310 310 311 314 316 318 318 318 319 319 319 319 318 317 316 315
321 320 320 320 320 319 318 318 317 317 318 319 319 319 316 313 311 309 309 311 314 315 313 310 309 310 310 310 311 314 317 319 319 320 320 320 320 319 319 317 316 315
322 321 320 320 321 320 319 319 320 320 320 319 319 319 317 314 312 313 313 315 317 318 315 311 310 310 309 310 310 313 317 319 319 319 320 320 320 320 319 318 317 316
322 321 320 320 320 320 319 319 319 320 321 320 319 319 318 316 314 315 316 317 317 316 313 312 312 311 310 310 311 314 317 318 319 319 320 320 319 319 319 318 317 317
322 322 321 320 320 320 320 320 319 319 320 320 319 319 319 317 316 315 315 314 313 311 310 311 312 311 309 310 313 316 317 318 319 319 319 319 319 319 319 318 318 317
322 322 322 322 321 321 321 320 319 319 320 320 319 320 319 317 316 316 316 314 311 310 311 312 311 309 309 311 315 317 317 318 319 319 319 318 319 319 318 318 317 316
321 321 321 321 321 321 321 320 320 320 320 320 320 319 319 317 317 318 317 315 314 313 314 313 311 311 313 315 317 317 317 318 319 319 319 319 319 319 318 318 317 316
319 319 320 320 320 320 320 320 320 320 321 321 320 320 319 319 319 319 318 318 317 317 316 315 313 315 317 318 318 318 318 318 319 319 319 319 319 319 318 318 317 316
316 317 318 318 319 319 319 319 319 319 320 320 320 320 320 320 319 320 320 319 319 319 318 318 317 317 317 318 318 318 318 318 318 319 319 319 318 318 318 317 316 316
311 313 315 316 317 317 317 318 318 318 318 318 318 318 319 319 319 319 319 319 319 319 318 318 318 317 317 317 317 317 316 316 318 319 318 318 318 318 317 316 316 316

ECMWFNIL_850_thetae_075.txt.gz
Theta_e
324 325 324 323 323 323 322 321 319 319 318 316 316 317 317 317 318 318 319 319 319 317 312 312 317 319 318 317 317 319 322 323 323 322 321 321 321 321 321 322 324 324
326 326 324 322 321 321 321 320 318 317 318 318 319 320 319 318 318 319 320 320 320 317 310 310 315 317 316 316 316 318 320 321 322 321 319 320 320 319 319 320 323 323
326 327 326 323 320 320 320 319 319 319 320 320 320 321 318 317 318 320 321 320 319 315 309 308 312 314 315 315 316 317 318 320 321 319 318 319 318 316 316 319 322 322
327 328 327 324 321 319 318 319 319 320 321 320 319 318 315 317 319 320 320 319 317 313 308 307 308 310 311 313 314 316 317 318 318 317 317 315 314 315 316 319 321 322
327 328 328 326 322 320 319 320 320 320 321 319 317 314 314 317 319 319 319 318 315 309 305 305 306 306 307 309 311 314 316 317 316 315 314 313 314 318 318 319 320 321
328 328 329 326 323 322 322 322 321 320 320 319 316 313 313 317 318 318 318 316 311 306 304 305 305 305 305 305 307 309 312 314 314 314 314 312 315 320 319 318 318 318
327 328 328 326 323 323 324 324 321 319 319 317 314 313 312 315 317 318 317 313 307 303 303 304 304 304 304 304 305 305 307 310 312 313 314 313 315 318 319 318 317 316
327 327 328 325 324 324 324 324 321 319 319 316 313 313 312 312 315 316 315 311 306 303 303 304 303 304 303 303 304 304 304 306 308 311 312 313 315 317 317 317 317 316
326 326 326 325 324 325 324 324 321 319 319 315 312 313 312 310 311 313 312 309 305 304 304 304 304 304 304 305 305 305 304 305 305 308 310 312 314 315 316 316 316 315
327 326 325 325 326 325 324 322 320 319 318 315 312 311 310 308 309 311 311 308 305 304 304 305 306 306 306 307 307 307 307 306 306 307 309 311 313 315 315 315 315 315
325 325 326 326 326 325 322 320 319 319 318 315 311 310 309 308 308 309 310 308 305 305 305 306 307 307 308 309 309 310 310 310 309 309 309 309 311 313 314 315 315 315
324 325 326 327 325 323 321 319 319 319 318 315 311 309 309 308 306 308 308 307 306 306 307 308 308 308 309 311 313 314 314 314 314 313 313 311 311 311 312 313 313 313
324 326 326 325 325 323 320 320 320 319 317 316 314 311 310 307 305 306 307 307 306 307 307 308 309 310 311 313 315 316 316 317 316 316 316 315 315 314 315 315 314 313
325 325 325 324 324 322 320 321 321 319 318 318 317 314 310 306 304 305 306 307 307 307 308 309 310 312 312 314 316 317 317 318 317 317 317 316 317 317 317 318 317 317
322 324 323 323 323 322 321 322 322 320 318 318 318 317 311 305 304 305 306 307 307 307 308 310 312 313 313 314 315 316 316 317 317 316 316 317 318 318 318 318 318 318
320 323 323 323 323 322 321 322 322 321 319 318 318 319 315 307 304 305 306 307 307 308 309 311 312 313 314 314 314 314 314 315 315 316 316 318 318 318 318 318 318 317
321 323 323 322 322 322 321 321 321 320 319 319 318 319 318 312 307 306 307 307 308 309 311 312 313 314 315 316 316 316 316 316 315 315 317 318 319 319 319 319 319 318
322 322 322 321 321 320 319 319 319 317 317 318 318 318 318 316 312 309 308 308 310 311 312 313 314 314 316 317 317 317 318 318 318 317 318 319 319 320 319 319 319 319
321 321 321 321 319 318 317 316 317 316 316 317 318 318 318 317 315 313 311 310 310 312 312 313 315 316 317 318 318 318 318 319 319 319 319 319 319 320 320 319 319 319
322 321 321 320 320 319 318 318 318 317 317 318 318 319 319 318 317 316 315 314 313 314 314 315 317 318 318 318 318 318 318 318 318 318 318 319 319 319 319 319 319 319
322 322 320 320 320 320 320 320 320 320 320 320 319 319 319 318 318 317 317 317 316 317 317 317 318 318 318 318 317 316 317 317 317 317 318 318 318 319 319 319 319 319
321 322 321 320 319 320 320 320 321 320 320 320 320 320 319 318 318 318 318 318 317 317 317 317 317 316 315 314 314 314 314 315 317 317 317 317 318 318 319 319 319 319
320 320 320 320 320 320 320 320 321 320 320 320 320 320 320 319 319 319 318 318 317 316 316 316 316 314 312 312 312 313 312 313 315 317 317 318 318 318 318 319 319 319
319 319 319 319 319 319 319 320 320 320 320 319 320 320 320 320 320 319 319 318 317 317 317 317 316 315 314 314 314 314 313 313 315 317 318 318 318 318 319 319 319 318
317 318 318 318 318 319 319 319 319 320 320 320 320 320 320 320 320 319 319 319 318 318 318 317 317 316 317 317 317 316 315 314 315 317 318 318 318 318 318 318 318 318
313 314 315 315 315 316 317 317 317 317 318 318 319 319 320 320 319 319 319 319 319 319 319 318 318 318 318 318 318 318 317 316 316 317 317 318 318 318 318 318 318 318

ECMWFNIL_850_thetae_078.txt.gz
Theta_e
323 323 326 327 325 326 328 326 323 320 320 323 324 324 324 322 319 319 321 319 318 318 316 316 317 318 319 320 321 323 323 324 324 324 323 323 323 322 322 325 327 328
321 321 324 325 324 325 326 324 319 319 322 325 325 324 323 321 318 318 318 317 317 314 312 316 318 319 320 319 319 321 323 323 322 322 322 322 322 321 321 323 324 326
320 320 321 322 324 326 325 321 320 321 322 324 323 320 318 318 317 317 316 317 316 311 309 315 318 318 318 316 316 320 322 322 320 320 320 321 322 321 320 322 323 325
323 322 320 320 322 323 323 320 321 322 321 321 320 318 316 316 316 318 317 316 314 308 307 314 317 317 316 315 316 319 320 321 319 319 320 319 318 318 318 320 322 324
325 325 323 321 320 320 321 321 321 321 321 320 318 316 315 315 317 319 317 314 312 307 306 310 313 314 314 315 317 318 318 319 318 318 319 317 316 316 318 319 321 323
326 327 324 322 320 319 320 320 320 321 320 318 315 314 315 316 319 319 317 315 311 307 306 307 308 310 313 315 316 317 317 317 316 316 317 318 317 316 317 319 321 322
327 327 325 323 321 320 319 319 320 321 321 317 314 313 316 319 321 319 318 317 313 308 306 305 305 306 311 315 316 316 316 316 316 316 317 319 319 317 317 319 320 321
327 328 326 324 321 321 321 319 319 321 321 318 314 314 318 322 322 320 320 318 312 308 306 306 306 305 309 315 314 312 313 315 316 316 317 319 320 319 318 318 319 320
328 328 327 325 323 322 322 321 319 319 320 319 316 317 320 323 322 320 320 317 310 307 307 308 308 306 307 311 309 308 311 314 316 316 317 319 319 319 319 316 317 318
328 328 327 325 324 324 323 321 319 319 320 320 319 319 320 322 321 320 320 316 308 306 308 308 307 305 307 309 308 309 311 312 314 316 317 318 318 318 319 317 316 316
328 328 327 325 324 324 324 322 319 319 321 321 321 320 319 320 321 320 319 314 309 308 308 307 307 307 309 310 309 310 311 311 313 314 315 317 317 317 318 318 317 316
328 327 327 326 324 324 324 323 320 320 320 319 319 320 318 317 319 320 318 314 311 311 310 309 310 311 311 312 311 312 313 313 313 313 314 315 315 316 317 317 318 317
326 327 326 325 323 324 324 323 321 320 320 317 317 317 316 315 318 318 317 316 313 313 313 312 312 313 314 315 315 316 316 316 315 315 315 315 315 317 317 316 317 317
326 326 325 323 323 324 324 323 321 321 319 316 316 317 315 315 317 316 316 316 315 314 315 314 313 314 315 316 318 318 317 317 316 315 316 316 316 317 317 317 318 317
325 325 324 323 324 324 323 322 322 320 318 317 318 319 318 317 316 316 316 316 315 316 315 313 313 315 315 316 318 318 317 316 316 316 318 318 317 318 318 318 318 318
323 324 324 324 324 323 322 322 322 320 318 317 319 320 319 318 318 317 316 316 315 316 313 310 311 313 314 315 317 317 317 317 316 317 319 319 319 318 318 317 318 318
320 322 323 324 323 322 321 321 321 321 320 318 319 320 318 317 318 318 317 316 317 317 313 310 312 314 315 316 317 317 318 318 318 317 318 319 320 319 319 318 319 319
319 319 322 323 322 322 322 321 320 320 320 319 319 319 316 314 316 318 317 316 318 318 314 312 314 316 317 317 317 318 318 318 319 319 318 319 320 320 320 321 321 320
321 321 322 321 321 321 320 319 319 319 319 319 319 319 317 314 314 315 315 314 316 318 316 314 315 316 317 317 317 318 318 318 320 321 320 320 321 321 322 322 322 322
322 322 321 320 320 319 318 318 317 316 317 318 318 318 318 317 314 313 314 314 315 316 316 315 315 315 316 316 317 318 318 318 319 320 320 320 321 321 322 322 323 322
321 321 321 321 321 319 317 316 316 314 314 316 317 318 319 318 317 316 315 315 315 315 316 316 316 316 317 317 318 318 318 318 318 319 318 318 318 318 318 320 321 321
321 321 321 321 321 320 318 317 317 316 316 316 316 317 318 319 318 317 317 317 316 316 316 317 317 317 318 318 318 318 318 317 317 316 317 317 318 317 317 318 319 319
320 320 320 321 321 320 320 320 319 319 320 319 319 319 319 319 319 318 318 317 318 317 317 317 317 318 318 318 318 317 316 314 313 313 314 314 315 316 317 317 318 318
319 319 319 319 319 319 320 320 319 320 320 320 320 320 320 319 319 319 319 318 318 318 318 318 317 317 317 317 316 316 315 313 312 312 313 314 315 316 317 317 317 317
318 318 318 318 318 318 319 319 319 320 320 320 320 320 320 320 320 320 320 319 319 318 319 318 318 318 317 318 317 317 316 316 315 316 316 317 319 319 319 318 318 318
315 316 316 317 317 316 317 317 317 318 318 319 319 319 319 319 320 320 320 319 319 319 319 318 318 318 318 319 318 318 318 318 318 318 318 318 319 320 320 319 319 319

ECMWFNIL_850_thetae_081.txt.gz
Theta_e
328 326 327 328 327 326 326 329 331 330 329 329 329 328 328 327 325 326 326 322 323 324 320 317 317 316 320 322 323 326 326 326 327 328 327 325 324 325 325 326 326 328
326 325 326 326 325 325 327 328 330 329 327 325 324 325 326 325 324 325 325 322 324 324 321 318 318 319 323 323 324 325 325 325 326 326 326 326 325 326 325 324 325 327
325 325 325 323 324 328 329 327 327 325 322 322 323 324 326 325 325 325 325 325 325 324 322 322 321 323 325 325 324 325 325 325 325 325 325 325 326 327 325 324 325 326
325 325 327 326 326 328 328 324 322 320 320 324 326 325 325 325 325 325 325 325 324 321 321 322 322 323 324 324 324 325 325 324 324 324 324 323 324 325 326 326 325 326
323 323 326 327 326 325 324 323 323 321 321 324 326 325 325 326 326 326 325 324 322 320 321 323 323 323 322 322 323 323 323 324 323 323 323 323 322 322 324 326 325 326
322 322 323 324 324 320 321 324 325 325 323 324 326 326 326 326 326 326 325 323 321 320 321 322 323 322 321 321 322 322 322 322 321 321 321 322 322 321 323 325 325 325
323 323 321 322 322 319 321 325 326 326 325 324 325 323 321 323 326 326 324 321 320 319 319 320 320 320 320 320 320 320 320 320 319 319 320 321 323 323 323 324 324 325
324 325 324 325 325 323 324 326 326 325 325 325 324 321 319 322 326 325 323 321 319 318 318 318 318 319 320 320 320 319 319 318 318 319 321 322 322 323 323 323 323 323
325 327 327 326 324 323 324 326 326 325 325 324 323 322 322 324 326 323 322 320 318 317 317 317 317 318 319 319 319 318 318 318 318 320 322 322 322 322 322 322 322 322
326 327 327 325 321 320 323 325 325 325 325 324 322 322 323 324 324 322 321 320 317 316 316 317 318 318 318 318 317 317 318 318 319 320 320 321 321 321 321 321 322 322
325 325 327 326 322 322 323 324 324 324 324 323 321 322 324 324 323 322 321 319 316 316 316 317 317 317 316 316 316 317 318 318 318 319 320 320 320 320 320 320 320 321
323 324 327 327 326 325 325 324 324 324 324 323 321 322 323 323 323 322 321 318 315 316 316 316 316 316 315 315 316 316 317 317 318 318 319 319 319 319 319 319 319 319
324 326 327 327 326 326 325 324 324 324 324 323 322 322 322 322 323 322 320 317 315 316 316 315 316 316 316 317 317 317 317 318 318 318 318 318 318 318 318 318 319 319
324 327 327 325 325 325 325 325 324 324 323 323 322 322 321 320 322 321 319 317 316 315 316 316 317 317 318 319 319 320 320 319 319 320 320 319 320 320 319 319 319 318
324 325 327 326 325 325 325 324 324 324 323 322 322 322 320 319 321 320 319 317 316 316 317 317 318 318 319 320 321 321 322 322 322 322 322 322 322 322 322 321 321 320
325 323 325 327 325 325 324 323 323 323 322 321 321 321 320 319 319 319 319 318 317 317 318 319 319 320 320 320 321 322 322 323 322 322 322 323 323 323 323 323 323 322
325 324 325 325 324 324 323 322 321 320 321 321 321 321 320 320 319 319 319 319 318 319 320 320 321 321 320 320 322 322 323 323 323 323 323 323 323 323 324 323 323 323
325 325 324 323 323 323 323 322 321 320 320 321 321 321 320 320 319 319 319 319 318 319 320 320 319 317 317 319 320 321 321 322 323 323 323 323 323 323 323 323 323 324
322 323 322 322 323 324 322 321 321 320 321 322 321 321 320 320 320 320 320 319 319 320 321 320 316 313 314 316 317 318 319 320 322 323 323 323 322 323 323 323 323 323
321 320 319 319 321 323 321 319 320 320 320 320 320 319 319 319 320 321 320 320 320 320 321 320 317 315 314 315 316 316 316 317 319 322 323 323 323 323 323 323 322 321
322 321 320 319 320 322 320 319 319 320 319 318 317 318 318 316 315 317 319 320 320 320 320 320 319 317 316 315 315 315 315 316 317 320 322 323 323 324 324 322 320 318
322 322 322 321 321 321 320 319 319 319 318 316 315 317 318 316 313 313 314 314 316 317 319 319 319 318 316 315 315 315 316 317 317 318 319 319 319 320 320 321 320 317
322 322 322 322 321 321 320 319 318 317 316 316 315 317 317 315 314 313 311 309 310 312 315 316 316 316 316 316 317 317 317 318 318 318 317 316 316 314 315 319 321 319
319 320 321 321 321 321 320 319 318 316 315 315 315 316 317 314 313 313 314 314 313 314 315 315 314 316 317 316 317 317 317 317 317 317 316 314 314 313 313 316 319 320
317 318 319 319 319 320 319 319 319 319 317 316 315 316 318 317 315 315 316 317 318 318 318 317 316 317 318 318 317 317 317 317 317 316 316 316 316 316 316 317 318 320
314 314 316 317 317 318 318 318 319 319 319 319 318 318 318 319 318 318 317 317 318 319 318 318 318 318 318 318 318 318 318 318 318 318 318 318 318 318 318 318 319 319

ECMWFNIL_850_thetae_084.txt.gz
Theta_e
331 330 330 328 327 326 324 324 325 325 328 330 330 330 330 329 328 327 327 327 327 327 326 324 322 322 321 322 326 327 325 328 329 327 326 326 325 324 324 324 325 326
331 329 328 327 327 326 324 325 327 328 329 330 329 329 329 327 328 328 326 326 326 324 323 322 319 320 321 322 326 326 323 325 327 327 327 326 325 325 324 324 325 326
331 329 327 327 327 326 325 326 328 329 329 329 329 329 328 327 328 327 324 325 324 320 320 321 321 323 324 323 326 325 323 326 326 325 327 326 324 325 325 326 327 326
330 328 327 327 326 325 326 327 327 328 328 328 328 328 327 327 327 325 323 324 321 317 319 321 322 325 324 323 325 325 325 326 323 322 324 324 324 325 325 327 328 327
329 327 327 326 323 323 324 326 327 328 327 328 328 327 325 325 325 323 321 320 317 315 317 320 323 325 323 323 325 324 324 325 323 323 324 322 321 323 325 327 328 328
327 326 325 324 322 322 322 325 327 327 327 328 327 325 323 324 325 324 320 317 315 315 316 319 322 322 322 323 324 323 323 323 323 323 323 322 321 322 324 326 327 327
327 326 325 323 322 321 321 323 327 326 325 326 325 324 324 326 327 325 321 317 316 319 321 320 319 320 322 322 321 321 322 321 320 320 322 323 323 323 323 324 325 327
326 326 326 324 323 322 322 325 326 325 323 323 324 325 326 327 327 324 321 319 320 321 323 321 320 320 320 320 320 320 320 318 318 320 322 322 323 323 322 322 324 327
324 325 326 326 324 324 325 326 326 326 324 323 324 326 326 327 326 322 320 320 320 320 320 320 321 319 319 320 320 318 318 318 320 321 322 322 323 324 323 323 324 325
324 326 326 326 325 325 326 326 325 326 325 325 325 326 326 326 324 322 321 320 319 318 318 319 319 318 319 320 318 317 318 319 321 321 321 322 322 322 323 323 322 322
325 326 326 326 326 326 326 326 326 326 325 325 326 326 326 325 323 321 321 319 317 317 317 319 318 318 319 318 316 318 319 319 320 320 321 322 322 321 322 322 321 321
325 325 325 324 326 327 326 326 326 325 324 324 325 326 325 324 322 322 320 317 316 317 318 318 318 317 318 316 316 318 318 318 320 320 320 321 321 320 320 321 321 321
324 324 323 322 324 326 326 326 325 323 322 323 324 325 325 323 322 321 319 316 316 317 317 317 316 316 316 316 316 318 318 318 319 320 320 320 319 320 320 320 320 321
322 323 323 323 324 325 325 325 325 323 323 322 322 324 324 324 322 320 317 316 316 317 316 316 316 316 316 316 317 317 318 318 318 319 319 318 319 319 318 319 319 319
321 321 323 324 325 325 325 325 324 324 323 322 322 322 322 323 322 319 317 316 316 316 316 316 317 317 317 318 318 319 319 319 319 320 319 319 320 320 319 319 319 319
322 321 322 325 326 325 324 324 324 323 323 323 323 322 320 321 322 319 317 316 316 316 317 317 318 318 318 320 321 321 321 321 321 322 322 322 322 322 321 321 321 320
324 323 323 324 325 325 324 324 323 323 323 322 322 321 320 321 321 319 318 317 316 317 318 318 319 319 319 320 322 322 322 323 323 322 322 322 322 323 323 322 322 321
326 326 325 325 325 324 324 324 323 323 322 322 321 320 320 320 320 319 318 318 317 318 319 319 319 320 320 320 322 323 323 322 323 323 323 322 322 322 321 322 322 321
327 327 327 326 325 324 324 324 323 322 322 322 321 321 320 320 320 319 318 318 318 319 320 319 319 320 320 320 321 322 323 322 322 323 323 322 322 321 321 321 321 321
325 325 325 325 324 324 324 323 321 321 322 322 321 320 320 319 320 320 319 319 319 320 320 320 319 318 318 319 320 321 322 321 321 321 322 322 322 320 320 320 320 320
321 322 322 322 322 323 323 321 318 319 321 320 320 320 319 319 320 320 319 319 320 320 321 321 320 317 315 316 317 318 318 318 317 318 319 320 321 321 320 320 320 320
321 320 320 320 321 322 322 319 316 317 319 319 318 318 317 318 319 320 320 319 319 320 320 320 321 319 317 316 315 314 314 314 314 315 316 317 318 319 319 318 319 319
322 321 320 319 319 321 321 319 317 319 320 318 317 317 316 314 315 317 318 319 320 320 320 319 318 317 316 316 315 314 314 314 314 315 317 317 318 318 318 318 318 319
321 321 321 321 320 320 320 319 319 320 319 317 317 318 316 313 311 311 312 315 317 317 315 314 313 313 313 313 313 314 314 314 315 316 317 317 317 317 318 318 317 317
319 319 320 321 321 321 320 319 319 319 318 317 317 318 317 315 314 313 313 312 312 310 310 310 310 311 311 311 312 314 315 315 315 315 316 317 317 317 318 318 318 318
316 317 317 318 319 320 320 319 319 319 317 316 317 318 318 317 316 316 316 315 312 311 311 313 314 313 314 314 315 315 316 316 316 316 316 317 317 317 318 319 319 318

ECMWFNIL_850_thetae_090.txt.gz
Theta_e
330 328 327 327 328 329 331 331 331 329 328 328 328 327 328 328 329 329 328 327 328 327 327 328 328 329 328 327 327 326 326 327 327 327 328 327 326 327 327 327 328 328
330 328 326 326 327 327 328 331 330 329 328 328 326 326 327 328 328 328 327 327 328 327 327 327 326 326 326 325 326 325 326 326 326 326 326 325 326 326 326 327 328 327
330 328 325 327 327 325 327 330 330 329 328 328 326 326 327 328 328 328 328 328 328 327 327 325 324 324 323 324 325 326 326 325 325 324 324 324 325 325 325 326 327 326
330 327 326 327 327 325 327 329 329 329 329 329 328 327 328 329 329 328 328 327 327 327 326 324 324 324 323 323 324 324 325 326 325 324 324 324 324 324 324 326 326 326
329 328 328 328 327 327 328 329 329 328 329 330 330 329 329 329 328 326 325 325 326 327 326 326 325 324 323 323 322 323 325 326 325 324 324 324 324 324 324 324 325 325
330 329 328 328 328 329 328 328 328 328 329 331 330 329 329 327 326 325 324 325 325 324 325 326 325 323 323 323 323 323 324 325 325 324 324 324 324 324 324 324 325 326
331 330 329 329 329 329 329 328 328 329 330 329 329 329 328 327 326 325 325 324 321 319 321 323 323 323 324 324 322 321 322 323 323 323 323 324 324 325 325 326 326 326
331 330 330 330 329 328 327 327 328 330 329 329 329 328 328 327 327 325 324 322 320 319 322 324 325 324 324 324 321 319 319 320 320 321 322 324 325 325 326 326 326 326
331 330 330 330 329 327 327 327 329 329 328 327 327 327 328 327 325 323 322 322 323 324 324 325 325 325 324 323 321 320 320 321 321 321 321 323 326 327 326 326 326 326
331 330 330 330 329 328 327 327 328 329 328 326 325 327 327 326 324 324 323 322 325 326 324 324 324 325 324 322 321 321 322 322 323 322 320 321 324 326 326 326 326 327
331 330 330 329 329 328 328 328 328 328 327 327 326 326 326 325 324 322 319 321 325 325 323 323 323 323 322 321 320 320 320 321 322 322 321 320 322 324 326 326 326 327
330 329 329 328 328 328 328 327 327 326 326 326 325 325 326 325 321 318 318 321 324 324 323 322 322 321 321 320 320 320 320 321 321 321 322 321 321 321 323 325 326 326
328 328 327 328 328 328 327 326 326 326 325 324 325 326 327 324 319 319 320 319 320 321 322 321 321 320 319 319 320 321 321 321 321 322 322 322 322 321 321 323 325 325
328 326 326 327 327 327 326 324 324 325 324 324 326 327 326 322 319 320 320 318 318 319 320 320 320 319 318 319 319 320 321 321 321 322 322 321 321 321 320 322 323 323
327 326 326 327 326 326 325 323 323 323 323 324 326 326 324 321 319 319 318 318 319 318 319 319 319 318 318 318 319 320 320 321 321 321 321 320 319 320 320 320 321 320
327 326 326 327 326 326 325 325 325 323 323 324 325 325 322 320 319 319 317 317 318 318 318 317 317 317 318 318 319 320 320 320 320 320 320 319 318 319 320 320 319 319
326 326 326 326 326 326 325 325 324 323 323 325 325 324 322 320 318 317 316 317 317 317 317 316 316 317 318 318 319 319 319 319 319 319 319 319 319 319 320 319 319 319
326 326 326 326 325 325 324 324 324 324 324 325 324 323 321 319 317 316 316 317 317 316 316 316 316 317 317 318 318 319 319 318 319 319 319 318 319 319 319 319 319 319
326 325 326 325 324 324 323 323 323 324 325 324 323 322 321 319 317 316 316 316 316 316 316 316 316 317 317 317 318 319 319 318 320 321 321 320 320 320 320 320 321 321
325 325 325 324 324 323 323 322 323 323 324 324 323 322 321 318 317 317 316 316 316 316 316 317 317 317 318 318 319 320 321 320 321 322 322 321 322 321 320 320 320 320
325 325 325 325 324 323 323 322 322 323 323 323 322 322 320 318 317 317 317 316 316 316 317 319 320 320 320 320 320 321 321 321 322 322 322 321 321 321 320 319 319 318
324 324 324 324 323 323 322 322 322 322 321 321 321 321 320 318 318 318 318 317 317 317 318 319 320 321 322 322 322 322 322 322 321 321 321 321 320 320 319 319 318 317
323 323 323 323 323 322 321 321 321 320 320 320 320 320 320 319 319 320 319 319 319 319 319 319 320 320 321 322 322 322 322 322 321 320 319 318 316 316 316 316 316 316
321 322 322 322 322 322 320 320 320 320 320 320 320 319 320 319 320 320 320 320 320 319 319 318 318 318 318 319 320 320 320 319 318 317 315 314 312 313 314 315 316 316
320 320 321 321 321 321 320 320 319 319 319 319 319 319 320 320 320 320 320 320 319 319 319 318 317 317 316 316 316 316 315 315 314 314 313 312 312 312 313 314 316 316
319 320 320 320 320 320 320 319 318 317 317 317 317 318 317 317 318 318 319 319 317 316 316 316 315 315 314 313 313 313 313 314 314 314 313 313 313 313 313 314 315 316

ECMWFNIL_850_thetae_093.txt.gz
Theta_e
332 333 333 332 331 331 331 330 329 329 329 329 329 329 327 326 327 327 328 329 328 328 328 329 329 327 327 328 329 329 329 328 328 327 327 327 327 327 327 327 328 328
331 332 333 333 332 330 331 330 329 328 328 329 329 328 328 327 328 328 329 329 328 328 329 328 328 327 327 327 328 328 328 327 328 327 327 327 326 326 327 327 328 328
330 331 331 332 331 330 330 331 330 328 328 328 328 328 327 328 328 329 330 328 327 327 328 327 328 328 327 326 327 327 326 326 326 326 326 327 326 326 327 327 327 327
330 331 332 331 331 329 329 330 330 329 328 328 328 328 328 328 328 329 329 328 327 327 327 327 328 328 327 326 326 325 325 326 326 326 326 326 325 325 326 326 326 327
331 332 332 332 330 329 329 330 330 329 329 328 328 328 328 327 327 327 328 327 327 327 327 327 327 326 325 325 325 325 325 326 326 325 325 324 324 325 325 325 325 327
331 332 332 332 330 329 330 330 330 330 330 329 328 328 327 326 326 327 327 327 327 327 327 326 325 324 323 323 325 326 325 326 326 325 324 324 324 324 324 324 325 326
331 332 332 332 331 330 330 330 330 330 329 328 328 327 328 328 328 327 327 327 327 327 326 325 323 323 323 324 324 324 325 326 326 325 324 324 324 323 323 323 324 325
331 331 331 331 330 330 330 330 330 329 328 328 327 327 328 329 328 328 327 327 326 325 325 325 324 323 324 323 323 323 325 325 325 325 324 324 324 324 323 323 324 325
330 330 331 331 330 330 331 330 329 328 327 328 328 327 327 328 328 328 326 325 325 325 325 325 324 324 324 323 322 323 324 325 324 323 323 323 323 324 324 324 326 326
330 329 328 330 330 330 330 329 328 328 328 328 328 328 327 326 326 327 327 326 325 324 323 324 323 323 324 323 322 321 321 321 321 320 321 323 323 324 325 326 326 326
329 328 327 328 330 330 329 328 328 329 329 328 328 328 327 325 324 326 326 325 323 322 322 323 323 323 324 323 321 320 320 319 319 319 319 321 324 325 326 326 326 326
328 327 326 328 329 329 328 327 328 328 327 327 327 327 326 324 323 324 323 321 321 323 323 324 324 324 324 322 320 320 320 320 320 320 319 321 324 326 326 325 326 326
328 327 327 327 328 328 327 328 327 326 325 326 326 326 326 324 322 324 323 321 323 325 324 324 324 324 324 322 320 320 320 321 321 321 321 321 322 324 325 325 325 324
329 328 327 327 327 327 327 328 327 326 327 326 324 325 326 324 323 324 323 322 324 325 324 324 324 324 322 321 320 320 319 320 321 321 321 320 320 321 323 323 323 324
329 328 327 327 327 327 327 327 326 326 327 325 323 324 326 324 322 321 320 322 325 324 322 323 323 322 321 320 319 320 319 321 321 321 321 320 320 320 322 323 324 324
328 327 327 327 327 327 326 325 326 325 324 323 323 325 325 323 319 318 320 323 324 323 321 322 322 320 320 319 320 320 320 321 321 322 321 320 320 321 323 324 323 323
328 327 327 327 327 326 325 325 326 325 323 323 324 325 325 321 319 319 319 320 322 322 321 321 321 320 319 319 320 320 320 321 322 322 321 319 319 320 322 322 321 321
328 327 326 326 326 325 325 325 325 324 325 325 325 325 324 321 319 319 319 318 319 321 321 320 320 319 318 318 319 319 320 321 321 321 319 319 319 319 320 320 319 319
327 327 326 326 326 325 325 325 325 324 325 325 325 324 322 320 319 318 317 318 318 319 319 319 318 318 318 318 319 320 320 320 320 320 319 318 319 320 320 320 319 319
326 326 326 327 326 325 324 324 324 324 324 325 325 323 321 320 319 317 317 318 318 318 318 317 317 318 318 318 319 319 319 319 319 319 319 319 320 320 320 320 319 320
325 325 326 326 326 325 324 323 324 324 324 325 324 323 321 320 318 316 316 317 317 317 317 316 317 318 318 318 318 318 319 319 319 319 319 320 320 320 320 320 320 320
324 325 325 325 324 324 324 323 324 324 324 324 324 323 321 320 317 316 316 317 316 316 316 316 317 317 317 318 318 318 319 319 320 320 320 320 320 320 320 320 320 320
323 324 324 324 323 323 322 323 323 323 323 323 323 323 321 319 317 316 316 316 316 316 316 316 317 317 318 318 319 319 320 320 321 321 321 321 320 320 320 319 319 318
322 323 323 323 323 323 322 322 322 323 322 321 322 322 321 319 317 317 317 317 316 316 317 317 317 318 319 320 320 320 321 321 320 320 320 321 320 319 319 318 316 316
321 321 321 321 322 322 322 321 321 322 322 320 320 321 320 318 317 318 318 318 317 318 319 320 320 320 321 321 322 322 321 321 319 318 319 319 318 317 315 314 313 312
320 320 320 320 320 320 320 320 320 321 321 319 318 318 319 318 319 319 320 320 319 319 321 321 321 321 321 321 320 320 319 318 317 317 318 317 317 315 314 312 312 312

ECMWFNIL_850_thetae_096.txt.gz
Theta_e
330 328 328 329 331 333 332 332 331 331 331 330 329 329 329 329 329 329 328 328 327 327 326 326 327 328 329 328 328 327 328 328 328 328 329 328 329 329 329 327 327 327
331 330 330 331 332 333 333 333 332 331 331 330 330 329 329 329 329 329 328 327 327 328 327 327 328 329 329 328 328 328 328 328 328 329 328 328 328 329 328 327 327 327
330 330 331 332 332 333 333 333 333 332 331 331 330 330 330 329 329 327 327 327 328 328 328 328 328 329 329 328 328 328 328 328 328 328 328 328 328 328 328 327 327 327
329 330 331 332 332 332 332 333 332 332 332 331 330 330 330 329 328 327 327 328 328 329 328 328 328 329 329 328 328 329 328 327 328 328 328 328 328 327 327 327 327 327
329 328 329 330 332 332 332 332 332 332 331 330 329 329 330 330 329 328 328 329 329 329 328 328 328 328 328 328 328 328 327 327 327 328 328 328 328 327 326 327 327 326
328 327 328 330 331 331 331 332 331 329 328 328 328 329 329 329 329 328 328 329 329 328 327 327 327 328 328 328 327 327 326 326 326 327 327 327 327 326 326 326 325 325
327 327 328 328 329 330 330 330 329 326 327 328 328 329 329 328 329 328 328 329 329 327 327 327 327 328 328 326 326 326 326 325 326 325 325 325 324 324 325 325 325 326
326 326 327 328 329 329 328 328 328 327 327 328 328 328 328 327 327 327 327 328 328 327 326 327 327 327 326 324 324 326 326 326 326 325 325 324 323 324 324 324 325 325
326 327 328 328 327 327 326 326 327 328 327 328 327 327 327 326 325 326 326 327 327 327 327 326 326 326 324 323 324 325 325 325 326 326 325 325 324 324 324 323 323 324
328 328 329 328 326 326 327 327 327 326 325 327 327 328 326 324 325 327 327 327 327 327 327 326 326 325 324 323 323 323 324 325 326 325 325 325 324 324 323 323 323 323
328 328 328 328 326 327 328 327 325 324 325 327 327 327 326 325 326 327 328 327 327 327 327 326 325 325 324 323 322 322 324 325 324 324 324 324 323 323 323 324 324 324
328 328 327 326 326 327 328 326 324 324 326 327 327 327 326 327 328 328 327 327 326 326 325 325 325 324 323 323 322 321 322 322 322 321 321 323 324 324 325 325 325 325
329 329 327 326 326 328 328 328 326 325 326 327 327 327 327 328 328 328 326 326 326 325 323 322 322 323 323 323 321 320 320 320 320 319 319 322 325 326 326 326 326 326
328 328 328 327 327 328 328 328 328 326 325 325 326 327 328 328 328 327 326 326 326 325 321 319 320 322 323 323 321 320 320 320 321 320 319 321 325 326 327 326 326 326
327 328 328 328 327 327 327 328 328 327 326 326 326 327 327 327 327 326 326 325 324 323 322 321 322 323 324 323 320 320 321 321 321 321 320 322 324 326 326 325 325 325
326 327 327 327 327 327 328 328 328 328 327 326 327 327 326 326 326 326 325 324 322 322 324 324 324 324 324 322 321 320 320 321 321 320 320 322 323 324 324 324 324 324
325 326 327 327 327 328 328 328 328 327 326 326 327 325 324 325 325 325 325 325 323 323 324 324 324 324 323 321 320 319 319 320 320 320 320 320 320 322 323 324 323 323
325 326 327 327 327 328 328 327 327 326 326 327 327 324 324 324 324 323 323 322 322 323 324 323 323 323 322 320 320 320 319 320 320 321 320 319 320 321 323 323 323 322
324 325 326 327 327 327 326 326 326 325 325 326 325 323 323 324 321 320 321 322 323 324 322 322 322 322 320 320 320 320 320 321 321 321 320 319 320 322 322 322 321 321
324 325 326 326 326 326 325 325 324 324 322 322 323 323 323 322 320 319 320 322 323 323 321 321 321 320 319 319 320 320 320 321 321 321 320 319 320 321 321 320 319 319
324 325 325 326 326 325 325 324 325 324 321 320 323 324 322 321 320 320 319 319 320 321 322 321 321 320 319 319 319 319 319 321 321 321 319 319 320 321 320 320 319 319
323 323 324 325 325 325 325 325 325 324 322 322 323 323 322 321 320 319 318 318 318 320 320 320 320 319 318 318 318 319 319 320 321 320 319 319 320 321 321 320 319 319
321 322 323 324 324 324 324 325 325 322 320 322 323 322 321 321 320 318 318 317 318 318 319 319 318 318 318 318 318 318 319 320 320 320 319 319 320 320 320 320 320 320
321 321 322 322 323 322 320 321 323 321 320 321 321 320 321 321 319 318 317 316 317 318 317 317 317 317 318 318 318 318 318 318 319 319 319 319 320 320 320 320 320 319
320 321 321 322 322 321 319 320 321 320 320 320 319 319 321 321 318 317 316 316 317 317 316 316 317 317 318 318 318 319 319 318 319 319 319 320 320 320 320 319 318 317
319 320 320 320 321 321 321 321 320 318 318 319 319 319 321 320 318 317 316 316 317 317 316 316 316 317 318 319 320 320 320 319 319 319 319 320 320 319 318 318 316 315

ECMWFNIL_850_thetae_099.txt.gz
Theta_e
330 330 331 332 332 332 332 331 331 332 332 332 332 331 331 331 331 330 330 329 329 329 329 329 328 328 327 327 327 328 328 328 328 328 328 328 328 328 329 329 329 328
330 330 331 332 332 332 332 331 331 332 332 332 332 331 331 331 331 330 330 330 329 329 329 328 327 327 327 327 328 328 328 327 327 328 328 328 328 328 329 329 328 328
329 329 329 331 332 331 330 330 329 329 330 331 331 330 330 330 330 330 330 330 329 329 328 326 325 325 326 327 328 328 328 327 327 328 328 328 329 329 329 329 328 328
328 329 329 329 330 330 329 329 327 325 327 329 330 329 329 330 329 329 330 329 329 328 328 327 326 326 327 328 329 328 327 327 328 328 328 328 328 328 329 329 328 328
328 329 328 329 329 328 327 326 324 323 325 328 328 329 330 330 329 329 329 329 329 328 328 328 327 327 328 328 329 328 328 328 328 328 328 327 328 328 328 328 327 327
328 328 328 328 328 327 325 324 324 324 326 328 328 328 329 329 329 329 328 328 328 328 328 329 328 327 327 327 328 328 329 329 329 328 328 328 328 328 327 327 327 327
327 327 327 326 326 326 324 324 326 326 327 328 328 328 329 329 328 328 328 327 328 329 329 329 328 328 328 327 327 327 328 329 328 328 328 327 327 327 326 326 326 327
328 327 326 326 326 326 324 324 326 327 327 327 327 327 329 329 329 328 327 326 326 328 328 329 329 328 328 327 327 327 328 329 328 327 327 327 327 327 326 326 326 326
325 326 325 325 325 324 323 324 326 326 327 328 327 328 328 329 329 328 327 326 327 328 328 329 328 328 328 328 328 327 327 327 326 326 326 326 326 325 325 325 325 325
322 324 325 326 325 324 324 325 326 327 328 328 329 329 329 329 329 328 327 327 328 329 329 328 328 328 328 327 326 326 326 326 326 326 325 325 324 324 324 324 324 325
325 326 327 327 327 327 327 327 327 327 327 327 328 329 328 329 328 328 327 327 327 328 329 327 327 327 326 325 324 325 325 325 325 326 326 325 324 324 324 323 324 325
328 328 328 328 328 328 328 328 328 327 327 326 327 328 328 328 328 327 326 326 327 328 328 327 326 326 325 324 323 323 324 324 325 326 325 325 324 324 324 323 324 325
327 328 328 329 328 328 328 329 328 327 327 327 327 327 328 328 327 326 326 327 327 328 328 327 326 326 325 324 323 322 323 325 325 325 324 324 324 324 324 324 325 325
326 327 328 328 328 328 328 329 329 327 327 327 327 328 328 328 327 326 327 328 328 327 327 326 326 326 325 324 323 322 323 324 323 322 322 322 323 324 325 325 325 326
325 326 327 328 328 328 328 329 329 328 327 327 328 329 328 327 327 327 327 327 326 326 326 326 325 325 324 324 323 321 321 321 320 320 321 322 324 325 326 326 326 326
325 326 327 327 328 328 328 328 328 329 329 328 328 329 328 328 328 327 327 326 326 326 326 324 322 323 324 324 322 320 320 321 320 321 322 324 325 326 326 326 326 326
324 325 326 327 327 327 327 327 327 328 329 328 328 328 328 328 328 328 327 326 324 324 325 323 322 323 324 323 321 320 321 322 321 321 322 324 325 326 326 326 326 325
324 324 325 326 326 326 326 327 327 327 327 328 328 328 328 328 327 327 326 324 322 323 324 324 323 324 324 323 321 320 321 322 321 322 322 323 325 325 325 325 324 323
324 324 325 326 325 325 325 326 326 326 326 327 328 328 328 327 326 326 325 323 322 323 324 324 324 325 324 323 321 320 320 321 321 321 321 322 323 324 324 324 323 321
323 323 324 324 324 324 325 325 325 325 326 327 327 327 328 326 325 325 325 324 323 323 323 323 323 324 324 322 320 320 320 319 320 321 320 320 322 323 323 322 321 321
321 322 323 324 323 323 324 324 324 325 326 326 327 327 326 325 324 323 322 323 323 323 322 322 323 323 323 321 320 320 320 320 320 321 320 320 322 323 322 321 321 321
320 321 322 323 323 323 324 324 324 324 324 323 324 325 325 322 321 320 321 322 323 322 321 321 321 322 321 320 320 320 320 320 321 321 320 321 322 322 321 320 320 320
320 320 321 322 321 321 322 323 324 324 322 320 321 324 323 321 320 321 322 323 323 322 321 320 320 320 321 320 319 319 320 320 321 322 321 320 321 321 320 319 319 319
319 319 320 321 321 320 320 321 323 323 321 319 320 322 321 321 321 321 321 321 321 321 321 321 320 320 320 319 318 318 319 319 320 321 320 320 321 321 320 319 319 319
319 319 318 319 320 320 320 320 320 320 319 318 318 320 320 319 320 320 319 320 319 319 320 320 319 319 319 318 318 318 319 319 320 321 320 320 321 321 320 319 319 319
319 319 318 318 318 319 320 320 319 318 318 317 318 319 318 317 318 318 318 318 318 318 319 319 318 318 318 318 318 318 319 319 320 320 320 320 320 321 320 319 319 319

ECMWFNIL_850_thetae_102.txt.gz
Theta_e
331 331 332 332 332 332 332 332 331 331 330 329 327 328 328 329 329 330 330 330 331 331 331 331 331 330 329 327 327 327 327 327 327 328 329 329 329 330 330 329 329 329
330 330 330 330 331 331 331 331 330 329 328 327 326 326 327 329 329 329 330 331 331 331 331 331 330 329 329 329 328 327 327 328 327 327 329 329 329 331 330 329 329 329
329 329 329 329 329 330 331 331 329 326 325 326 326 326 326 328 329 329 329 331 331 331 331 331 330 329 329 330 329 328 329 330 328 329 330 329 330 332 330 329 329 329
329 329 329 329 329 329 330 330 329 326 325 325 325 327 328 328 328 329 329 331 331 330 330 330 331 330 330 331 330 328 328 330 329 329 330 329 330 331 331 330 329 329
329 329 329 329 329 328 329 330 329 326 324 323 324 327 329 329 328 328 329 331 330 329 330 330 330 330 329 330 330 328 327 329 330 329 329 329 329 330 330 329 329 329
328 328 328 329 329 328 328 328 327 326 324 323 323 325 328 328 327 327 329 330 330 329 329 329 329 329 328 328 329 328 326 328 331 330 329 329 329 328 329 329 329 329
327 327 328 328 328 328 329 327 326 325 324 323 323 325 327 327 326 327 329 330 331 330 328 328 328 328 327 326 328 329 328 329 331 331 329 329 329 328 330 330 329 329
326 326 328 328 328 328 328 327 326 326 325 324 324 326 328 327 326 327 328 330 331 330 329 328 326 325 327 327 327 328 329 328 329 330 329 330 330 329 330 330 329 329
326 325 325 327 327 328 327 327 327 326 326 326 326 327 329 328 327 328 328 329 331 330 329 328 327 326 327 327 327 327 327 327 328 328 328 330 330 330 330 330 330 329
327 326 324 325 327 328 328 327 327 326 326 327 327 328 329 329 328 329 329 329 330 329 328 328 328 328 327 326 327 327 325 326 327 327 327 329 330 329 329 330 330 329
326 327 327 327 328 329 328 327 327 326 326 326 327 329 329 329 329 330 329 329 330 329 328 327 328 329 327 325 326 326 325 326 327 326 327 329 329 329 329 330 330 330
325 326 327 328 328 329 329 329 328 328 327 326 327 329 330 330 330 330 329 329 329 329 329 328 329 329 327 325 326 327 326 326 326 325 326 328 330 330 329 329 330 330
324 325 326 327 328 329 329 329 329 329 328 327 327 329 330 330 330 330 330 330 329 329 329 329 329 329 327 325 326 326 324 324 326 327 328 329 330 330 329 330 330 330
324 325 326 327 327 328 328 328 329 329 329 328 328 329 330 330 330 331 330 329 329 328 328 328 329 329 327 325 324 323 323 325 328 329 330 330 330 330 329 330 329 329
323 324 325 326 327 327 327 327 328 328 328 328 329 329 329 330 329 329 330 330 329 328 327 328 328 327 325 325 325 323 324 327 329 330 330 330 330 330 330 330 329 329
323 324 325 325 326 327 327 327 328 328 328 329 329 329 330 329 328 328 329 329 328 328 327 327 327 326 323 324 325 325 326 327 327 328 328 328 328 328 328 329 329 328
323 323 325 326 326 326 326 327 327 327 327 328 328 329 329 328 328 329 329 328 328 328 327 326 326 326 324 324 324 324 324 326 325 325 324 324 324 325 325 326 326 325
322 323 325 325 325 325 325 326 326 326 326 326 326 327 327 327 328 328 328 328 327 326 326 326 325 324 324 324 323 322 322 322 322 322 322 323 323 323 324 325 325 325
322 322 324 324 324 324 324 325 325 325 325 325 326 326 326 327 328 328 327 327 327 325 325 324 323 324 325 324 323 322 321 321 321 320 320 322 324 324 325 326 326 326
321 322 322 323 324 324 324 324 324 325 325 325 326 326 326 327 328 327 327 327 326 325 324 322 322 324 325 323 322 322 322 322 322 321 319 321 324 325 325 325 325 325
320 321 320 321 322 323 323 323 324 324 324 323 324 325 326 326 326 326 326 325 324 324 324 323 324 325 324 323 322 322 322 322 322 321 320 322 324 325 325 325 325 324
319 320 320 320 320 321 322 323 323 323 321 321 322 323 324 325 325 325 324 323 323 323 323 323 324 324 323 322 321 321 321 321 321 321 321 321 322 324 325 325 323 322
318 318 319 320 320 321 321 321 321 321 320 319 320 321 323 323 323 323 322 322 322 322 322 322 322 323 322 320 320 320 321 320 320 321 321 320 321 323 324 323 321 320
318 318 318 320 320 320 320 319 319 319 318 318 319 321 322 322 322 322 322 321 321 320 320 320 319 320 321 320 320 321 321 320 320 321 321 320 321 322 321 320 320 320
318 318 318 319 320 319 318 318 318 318 318 318 320 321 321 321 321 322 321 322 321 320 319 319 318 319 321 320 320 320 319 319 320 321 322 321 321 321 320 319 320 320
318 318 318 319 319 319 318 318 318 317 318 319 319 318 319 318 319 319 320 320 320 319 319 319 318 319 320 320 319 319 318 319 320 321 321 320 321 321 320 320 319 319

ECMWFNIL_850_thetae_105.txt.gz
Theta_e
335 336 335 335 334 333 333 332 333 333 333 331 330 331 331 330 331 332 331 331 332 332 331 330 330 329 327 328 329 330 331 332 332 330 330 330 330 331 330 328 329 327
333 333 333 332 332 332 332 332 332 333 333 332 332 333 333 332 333 333 331 332 332 331 331 331 331 330 327 328 330 330 330 330 330 329 328 329 329 330 329 329 329 326
331 331 330 331 331 331 330 331 331 331 332 333 333 333 333 332 332 332 331 332 332 331 332 331 331 330 328 328 329 329 329 328 328 328 327 328 328 329 329 329 329 327
330 330 330 330 331 330 330 330 330 330 330 331 332 333 332 330 331 331 331 332 331 331 332 332 331 330 329 329 329 328 327 327 328 327 327 328 327 328 329 328 327 326
330 330 330 330 330 330 330 330 329 329 330 331 332 331 331 330 330 331 331 332 332 332 332 332 331 329 329 328 328 327 326 326 326 326 327 327 326 327 328 327 327 327
330 330 330 329 330 330 329 329 328 328 328 330 330 330 331 330 330 331 332 332 332 332 332 331 330 327 326 327 326 326 326 326 326 326 327 326 327 328 328 326 327 328
329 330 329 328 329 329 327 326 326 326 327 328 330 330 330 329 329 330 331 332 333 333 332 331 330 328 327 326 325 326 326 326 326 327 327 327 327 328 328 327 328 329
328 329 329 328 328 327 326 325 325 326 327 327 328 330 328 327 328 330 330 331 332 333 333 332 331 330 329 327 326 326 326 326 327 327 328 328 328 328 328 327 328 329
328 328 328 328 327 326 326 326 324 325 325 326 328 329 328 328 329 330 330 330 331 332 332 331 331 331 329 328 328 327 326 326 326 326 327 328 327 327 328 328 329 328
326 327 327 327 328 328 328 327 326 325 324 325 327 328 328 330 330 330 330 330 331 332 332 332 332 331 329 329 329 328 328 328 327 327 327 327 327 328 329 329 329 329
325 326 326 326 327 328 328 328 328 327 325 326 327 327 328 330 330 331 331 330 331 331 331 332 332 329 328 329 329 328 329 328 327 328 328 327 328 329 329 328 328 330
324 325 326 326 326 327 328 328 328 328 327 328 328 327 327 328 328 330 330 329 330 330 331 331 330 329 329 330 330 329 329 328 327 328 328 327 328 329 328 328 329 329
323 324 325 326 326 327 328 328 328 329 328 329 328 327 327 327 328 328 329 328 328 329 330 330 329 329 329 329 329 329 329 329 328 328 327 326 327 327 327 328 330 329
323 324 325 325 326 326 327 328 328 329 328 328 328 327 327 328 328 328 328 328 327 328 330 329 328 328 327 326 327 328 328 329 328 327 326 325 325 325 326 327 329 329
323 324 325 326 326 326 327 328 328 328 328 328 328 328 328 327 327 328 328 327 328 328 329 328 327 327 326 324 324 326 327 329 326 325 325 324 323 325 326 327 329 328
323 324 324 325 326 326 326 327 327 327 327 327 328 328 328 326 326 327 327 327 328 328 326 326 326 326 325 324 323 325 326 326 324 323 324 324 324 325 326 327 328 328
322 323 324 325 326 326 326 325 326 327 327 327 327 328 328 326 326 327 326 327 329 328 326 326 325 325 326 326 324 324 324 322 321 322 323 324 326 327 327 328 328 328
321 322 323 323 324 324 324 324 325 325 326 326 326 327 327 327 327 328 327 327 329 328 328 328 326 325 326 325 324 322 321 321 320 321 322 325 327 327 328 328 327 327
320 321 321 321 322 323 324 324 324 324 324 325 325 326 326 326 327 327 327 327 328 328 328 328 328 326 324 323 323 323 322 322 321 321 323 326 328 328 327 328 327 327
319 320 320 320 321 322 324 323 322 322 322 322 323 325 326 326 326 326 326 326 327 327 327 327 327 326 324 323 323 324 324 323 322 323 325 326 327 327 327 327 327 326
318 318 319 319 320 321 322 322 320 320 320 320 321 323 325 326 326 325 325 325 326 326 326 326 326 325 324 323 323 324 324 323 323 324 324 324 325 327 327 327 326 325
318 318 318 318 319 320 320 320 319 319 319 320 320 321 323 324 325 325 324 324 325 326 324 323 324 326 325 323 322 323 323 323 324 325 324 324 325 326 325 326 326 325
318 318 318 318 318 319 319 319 319 319 319 320 320 320 321 322 323 322 322 321 322 323 322 321 323 325 324 323 323 323 323 323 323 325 326 325 325 325 325 325 325 325
318 318 319 318 317 318 318 318 318 319 319 319 319 320 320 321 321 321 320 320 321 321 321 320 322 325 324 323 323 322 322 323 322 323 325 324 323 324 325 324 325 324
318 318 319 319 318 318 317 317 319 319 319 318 318 319 320 320 320 319 318 318 319 320 319 320 321 322 322 322 322 322 322 322 322 322 323 323 322 323 324 324 324 324
317 317 318 318 318 318 317 317 318 318 318 316 316 317 318 318 319 319 317 317 319 318 318 319 319 318 319 320 321 322 322 321 321 322 323 321 321 322 323 323 323 323

ECMWFNIL_850_thetae_108.txt.gz
Theta_e
335 335 335 336 336 336 335 334 333 332 332 332 332 332 333 333 333 333 333 332 332 332 332 332 332 332 332 331 330 330 330 330 330 329 328 328 327 327 327 329 329 329
332 332 333 333 333 333 333 332 332 331 331 331 331 331 332 332 332 333 332 332 331 332 332 332 332 333 332 331 330 330 330 330 330 329 328 328 327 327 327 327 327 326
330 330 330 330 329 330 331 331 331 331 330 330 330 330 330 329 331 331 332 331 330 330 332 332 332 332 332 331 331 330 330 330 330 330 329 328 327 327 327 327 325 325
330 330 330 329 330 331 331 331 330 330 330 329 329 329 329 329 329 330 331 331 330 329 331 331 332 332 332 332 331 331 330 330 330 330 329 328 327 327 327 327 326 326
329 329 330 330 331 331 331 330 330 329 328 326 325 326 327 328 329 330 330 331 330 329 330 332 332 332 332 332 331 331 331 330 330 330 329 327 326 325 326 326 327 327
329 329 329 330 331 330 330 330 330 329 327 324 323 324 325 327 328 329 329 330 330 329 330 332 332 333 332 332 331 331 331 331 330 329 329 327 326 326 326 325 327 328
328 328 328 329 329 329 329 329 329 328 327 325 325 324 325 326 327 328 329 330 330 330 330 331 332 332 331 331 331 331 331 331 330 329 329 328 327 326 325 324 326 327
326 327 327 327 327 327 328 328 328 328 328 327 327 326 325 326 327 328 328 328 329 329 330 331 332 331 331 331 331 330 331 330 329 329 329 328 328 327 326 325 326 327
325 325 325 326 326 326 326 327 328 328 328 328 328 327 326 326 327 327 326 325 325 326 327 330 331 331 331 330 329 330 330 330 329 329 329 328 328 328 327 327 327 327
324 323 324 324 325 325 326 326 327 328 328 328 328 327 327 327 326 325 324 324 324 325 327 328 329 329 331 330 330 330 329 329 329 329 328 328 327 328 327 327 327 326
322 322 323 324 325 325 326 326 327 328 328 328 327 327 327 326 325 325 325 324 324 326 327 327 326 327 331 331 330 329 327 328 329 328 328 327 327 328 327 327 327 326
322 323 323 324 325 326 326 327 327 328 328 328 328 327 327 326 325 326 326 324 324 325 325 325 325 327 330 330 330 329 327 328 328 327 326 326 326 328 327 327 328 328
322 323 324 325 326 327 327 327 327 327 327 327 327 328 328 327 326 327 327 326 326 326 326 326 326 327 327 328 328 328 327 328 328 327 327 325 326 328 328 327 329 329
322 323 323 325 326 326 326 326 326 327 327 327 327 328 328 328 327 327 327 328 327 327 326 327 327 328 328 327 327 328 328 327 327 327 326 326 326 328 329 328 329 329
322 322 323 324 325 325 325 324 324 325 326 326 327 327 327 328 328 327 327 328 327 327 326 327 328 329 328 327 326 326 327 327 326 325 325 326 327 328 329 329 328 328
321 322 321 322 323 323 323 323 323 324 325 325 326 326 326 327 327 327 327 328 328 327 327 327 328 329 329 328 326 325 326 326 325 324 324 325 327 328 328 328 327 327
320 321 320 320 321 321 322 323 323 323 324 324 325 325 325 326 327 327 327 327 327 328 328 327 328 329 329 328 327 326 326 325 325 325 323 324 325 326 327 327 327 327
319 319 319 319 320 320 320 321 321 321 322 323 324 324 324 325 326 327 327 326 326 327 327 326 326 327 328 328 327 326 326 325 325 325 325 326 327 326 326 327 327 327
317 318 318 318 319 319 320 320 320 320 320 321 322 323 323 324 325 326 326 326 326 327 328 327 327 326 327 328 326 324 324 323 323 323 325 326 327 327 327 327 326 326
316 317 317 317 318 318 319 319 319 319 319 319 320 321 322 323 323 324 324 324 325 326 327 328 328 327 327 327 325 324 324 324 323 324 324 325 327 326 326 327 326 326
316 317 316 316 317 318 319 319 319 319 319 318 319 320 321 321 321 322 322 323 323 325 326 327 327 327 327 325 323 324 325 324 324 324 325 325 326 326 326 326 326 327
317 317 317 317 317 318 318 318 319 319 319 318 318 319 319 319 319 319 320 320 321 323 324 325 327 327 326 324 322 323 324 324 323 324 324 324 325 326 326 326 326 327
318 318 318 317 317 318 318 318 319 319 319 319 319 318 318 318 318 318 318 319 320 321 321 323 324 325 325 323 323 323 324 323 323 323 323 324 325 325 325 326 325 325
318 318 318 318 317 318 318 318 318 318 318 318 318 318 318 317 317 317 317 318 319 319 321 322 323 324 324 323 323 323 323 322 322 323 323 323 324 325 325 325 325 324
317 317 317 317 317 317 318 318 317 317 317 317 317 317 317 317 317 317 316 317 318 319 320 321 322 322 322 322 323 322 322 321 321 322 321 320 321 323 324 324 323 324
316 316 317 317 316 317 317 317 316 316 316 316 317 317 316 315 315 315 315 316 317 317 318 318 318 319 319 320 321 321 321 321 321 321 320 318 320 322 323 322 321 322

ECMWFNIL_850_thetae_111.txt.gz
Theta_e
333 333 333 333 333 332 332 332 332 332 331 331 331 331 331 329 328 328 328 329 330 331 331 331 331 330 330 331 330 330 331 331 330 330 330 331 331 331 330 329 328 328
331 330 330 330 329 329 330 330 330 331 330 330 330 330 328 326 324 323 323 325 327 328 330 331 331 331 331 331 331 331 331 331 330 329 330 331 331 331 330 329 328 328
329 329 329 329 329 329 330 330 330 330 330 330 329 328 326 324 323 322 321 322 325 327 328 330 331 331 331 331 331 331 331 331 330 329 329 330 331 330 330 329 328 328
329 329 329 329 330 330 330 330 330 330 329 329 328 327 326 325 325 324 322 323 325 326 327 329 330 330 329 329 330 331 331 331 331 329 329 330 330 329 329 329 328 329
328 328 328 329 329 330 330 329 329 329 329 328 328 327 327 327 326 324 323 325 327 327 327 328 329 328 328 328 330 330 330 331 331 330 329 329 330 330 329 328 329 329
326 326 325 325 325 326 327 327 327 327 328 328 328 328 327 327 326 324 325 326 327 328 329 329 328 328 327 328 328 329 329 331 331 330 329 329 331 330 329 329 330 330
325 324 323 323 323 324 324 325 326 326 327 327 328 328 327 327 326 325 325 326 326 327 328 328 328 328 327 327 328 329 331 331 329 330 330 330 330 330 329 329 329 329
323 322 322 323 323 324 324 325 326 326 327 327 328 327 327 327 326 325 325 325 325 325 326 326 326 327 328 329 328 330 331 330 329 329 330 330 329 329 329 328 328 328
321 322 323 323 324 325 325 326 326 327 327 327 328 327 327 327 326 326 326 325 324 324 326 326 326 326 328 329 329 329 330 329 328 328 328 329 329 328 328 327 327 327
321 322 323 324 325 325 326 326 326 327 327 327 327 327 327 327 326 326 326 326 325 325 327 327 327 327 328 329 329 328 328 327 326 327 328 328 328 328 328 327 327 327
321 322 323 325 325 325 326 326 326 326 326 326 327 327 327 327 327 326 326 326 326 327 327 326 327 328 329 330 329 328 328 326 325 326 327 327 327 328 328 329 328 328
321 321 323 324 325 325 325 324 324 324 325 325 326 327 327 327 327 327 326 327 327 328 328 327 327 328 328 329 330 329 328 327 325 326 327 327 327 328 329 330 330 328
320 320 321 323 323 323 323 323 323 324 324 325 325 326 326 326 327 327 327 327 328 328 328 328 328 327 327 328 329 329 328 327 327 327 328 328 327 327 327 328 328 327
320 319 319 320 320 321 322 322 323 323 324 324 325 325 325 325 326 327 327 327 328 328 328 328 328 327 327 328 329 329 329 328 328 328 329 328 328 327 328 327 327 327
319 318 317 318 319 321 322 322 321 321 322 323 324 324 324 325 326 326 327 327 327 327 327 327 328 328 328 328 327 328 328 328 329 328 328 328 328 328 328 327 327 327
316 316 317 317 318 319 320 320 320 320 320 321 322 323 323 325 326 326 326 326 326 327 327 327 327 328 329 327 327 327 327 327 328 328 328 328 327 327 328 328 327 327
316 316 316 316 317 318 319 319 319 319 319 320 321 322 323 324 325 325 325 325 326 327 327 327 326 327 328 328 327 327 326 326 327 327 327 327 326 326 327 328 328 328
316 315 315 315 316 318 318 318 318 318 318 319 320 321 322 323 323 323 323 323 324 325 326 327 326 326 327 328 327 326 325 325 326 327 328 327 326 326 327 327 327 327
315 314 315 315 316 318 318 317 317 318 318 319 320 320 321 321 321 322 322 322 323 324 325 326 326 326 326 327 326 325 325 325 326 326 325 326 326 327 327 327 327 326
315 315 315 316 317 318 318 317 318 318 318 318 319 319 320 320 320 320 321 321 322 323 324 325 326 327 326 325 324 324 324 323 323 323 323 324 325 326 326 326 327 326
317 317 316 317 318 319 319 319 319 318 318 318 318 318 318 319 319 319 319 320 321 322 323 324 326 327 326 325 324 323 323 323 323 323 323 324 325 325 325 326 326 326
317 317 317 317 318 319 319 319 318 318 317 317 317 317 317 318 318 319 319 320 322 322 323 323 324 325 325 324 324 323 323 323 323 324 324 325 325 325 325 326 326 326
317 317 317 317 318 319 319 318 317 317 317 317 316 316 316 317 318 318 319 320 321 322 322 322 322 322 323 322 321 321 322 322 321 322 323 325 325 325 325 325 325 324
317 317 317 317 317 317 317 317 317 316 316 316 316 315 315 316 317 317 317 318 319 320 320 321 321 321 322 321 320 321 321 320 318 318 320 322 322 323 324 324 323 323
316 316 316 316 316 316 315 316 316 316 315 315 314 314 314 315 315 316 316 316 317 318 318 319 319 320 321 320 319 320 319 318 316 317 318 320 320 321 322 322 322 322
315 315 315 315 315 315 314 314 314 315 315 314 313 313 313 314 314 315 315 315 316 316 317 317 318 319 319 319 318 318 317 316 315 314 316 318 319 319 320 321 321 322

ECMWFNIL_850_thetae_114.txt.gz
Theta_e
333 332 332 332 332 331 331 331 331 331 330 330 330 329 329 328 328 327 325 324 323 323 323 322 323 325 327 329 330 330 330 329 328 327 327 330 331 330 329 327 329 331
331 331 331 330 330 330 330 329 329 329 329 329 329 329 329 328 327 326 325 325 325 324 323 323 324 325 326 328 330 330 330 330 328 326 327 329 330 330 329 327 328 329
330 330 329 328 328 328 328 328 328 328 328 328 329 329 328 328 327 326 326 326 325 324 324 325 326 326 327 328 329 330 330 330 329 328 329 329 329 329 329 328 328 328
328 328 328 328 328 327 327 328 328 328 328 327 327 328 328 327 327 327 327 325 324 325 326 327 328 328 328 329 329 330 330 330 329 329 329 330 329 329 328 328 327 327
326 326 326 326 326 326 326 327 327 327 326 325 326 326 327 327 327 327 326 325 324 325 326 327 329 329 328 329 329 330 330 329 329 329 329 329 330 329 327 327 326 326
326 325 324 323 323 324 324 324 324 324 325 325 326 326 327 327 327 326 326 325 325 326 326 326 327 328 329 329 329 330 330 329 329 330 329 329 330 330 328 327 326 325
324 323 322 322 323 324 324 325 325 325 326 326 327 327 327 327 327 326 326 325 326 325 325 325 326 326 327 328 328 329 329 330 330 329 330 330 330 330 329 328 327 327
322 322 322 324 325 325 325 325 325 326 326 326 326 326 327 327 326 326 326 325 326 326 325 325 325 326 326 327 327 328 329 330 330 330 330 330 330 330 329 329 328 328
321 322 322 323 324 325 325 325 325 325 325 325 325 326 326 326 327 327 326 325 325 325 325 324 324 325 326 327 327 328 328 329 330 330 330 330 329 329 329 329 329 329
321 322 322 322 322 322 323 323 324 323 323 323 324 325 325 326 326 327 326 325 325 325 325 325 324 325 326 328 329 328 328 329 329 330 330 329 329 329 330 329 328 328
319 320 321 320 320 320 321 322 323 323 323 323 323 324 324 324 325 326 326 326 325 326 326 326 325 325 326 328 329 329 328 328 329 330 329 329 329 329 329 329 327 327
318 319 320 319 319 321 321 322 322 322 322 322 323 324 324 323 324 326 326 326 326 327 327 326 326 326 326 328 329 329 329 329 329 329 329 329 329 329 328 328 327 326
318 318 319 320 321 321 321 321 321 320 320 321 322 323 324 323 323 325 326 326 326 326 326 326 325 326 326 328 328 328 328 329 329 328 328 328 328 328 327 327 328 327
317 318 319 320 321 320 319 319 319 319 319 319 321 322 323 322 322 324 326 326 326 326 326 326 325 326 327 328 329 328 328 328 328 328 327 328 328 328 327 327 328 328
316 317 318 319 319 318 318 318 318 318 318 319 319 320 321 321 321 322 324 325 325 325 326 326 326 326 327 328 328 328 328 328 328 328 328 328 328 328 327 327 327 327
315 317 317 317 317 317 317 318 318 318 318 318 319 319 320 320 320 320 322 323 324 324 325 325 325 326 328 328 327 327 327 327 328 328 328 328 327 328 328 327 326 326
315 316 317 317 317 318 318 319 319 319 319 319 320 320 320 320 320 320 321 322 323 324 325 325 324 326 327 327 327 327 326 326 326 326 327 326 326 327 328 327 327 327
315 316 317 318 318 318 318 318 319 319 319 319 320 320 320 320 320 321 321 322 323 324 326 326 325 326 327 327 327 327 326 326 326 326 327 326 325 327 327 327 327 327
316 317 317 318 318 318 318 317 318 318 318 319 319 319 319 320 320 321 322 323 323 324 325 326 326 326 327 326 326 326 325 325 325 325 326 326 326 326 326 327 327 326
317 317 317 318 318 318 317 316 316 316 317 318 318 318 319 320 321 321 321 322 323 324 324 325 325 326 325 325 324 324 323 324 324 324 324 324 325 325 326 326 326 326
317 317 317 318 319 318 317 316 316 315 316 316 317 318 319 320 321 321 321 322 323 323 323 323 324 324 323 322 322 322 322 322 323 323 324 324 324 325 325 326 326 326
317 317 317 318 318 317 317 316 315 315 315 316 316 317 318 319 320 320 321 322 322 322 321 321 322 321 320 319 319 320 319 318 319 319 321 322 323 324 324 325 325 325
317 317 316 316 316 316 316 315 315 314 314 315 315 316 317 318 319 319 320 321 321 321 320 321 320 318 317 317 317 317 316 316 316 317 319 320 321 323 324 324 324 323
317 316 315 314 314 314 314 314 314 314 314 314 314 315 316 317 317 318 319 319 320 320 320 320 319 317 316 316 315 315 315 315 315 316 317 318 320 321 322 322 323 323
315 315 314 313 313 313 313 313 313 313 313 313 314 315 315 316 317 317 318 318 318 318 318 318 318 316 316 315 315 314 314 315 315 315 315 315 317 319 319 319 321 322
313 314 314 313 312 311 312 312 312 313 313 313 313 314 314 315 316 316 316 316 316 316 316 316 316 316 315 315 315 314 314 314 314 314 314 314 315 317 318 318 318 318

ECMWFNIL_850_thetae_117.txt.gz
Theta_e
333 332 332 332 332 331 330 330 330 330 330 330 330 330 329 328 327 327 327 327 326 326 326 326 326 325 324 324 323 323 324 324 326 328 330 331 330 330 330 330 329 329
332 331 331 330 329 329 329 329 329 329 329 329 329 329 328 328 327 327 327 326 326 326 326 326 325 324 324 325 325 325 325 325 326 328 329 330 330 330 330 329 329 330
331 330 329 328 328 328 329 329 328 328 327 327 327 327 327 326 326 326 326 327 326 326 326 325 324 324 325 326 326 326 326 326 327 328 329 330 330 329 329 329 330 330
329 328 327 327 328 328 327 327 326 326 326 325 325 325 325 324 325 325 326 326 326 326 325 324 324 325 325 326 327 326 326 327 328 329 329 330 329 329 329 330 330 330
327 326 326 326 325 324 323 323 323 324 324 323 324 324 324 325 325 326 326 326 326 325 324 324 324 324 325 326 327 327 328 327 328 329 329 329 329 328 329 330 330 330
323 324 324 324 323 322 322 322 322 322 323 324 324 325 325 326 326 326 326 326 326 325 324 324 324 323 324 325 326 326 327 328 328 329 329 329 329 329 329 330 330 330
322 323 323 322 322 322 322 322 322 323 324 324 324 325 325 324 325 325 326 326 326 325 324 324 324 324 324 325 326 326 326 327 328 329 329 328 329 329 329 330 330 330
322 322 322 322 322 322 322 322 323 324 324 324 323 323 323 322 323 325 325 326 326 325 325 325 325 325 324 325 326 327 326 326 327 328 329 329 329 329 328 329 330 330
321 321 321 321 321 321 321 322 323 323 323 322 321 321 322 322 323 323 324 325 326 326 325 326 326 325 325 325 326 327 327 327 327 328 329 329 329 329 329 329 329 330
320 320 321 320 320 320 321 321 321 322 321 321 320 321 322 322 323 323 324 326 326 326 326 326 327 326 326 326 325 327 328 328 327 327 328 328 329 328 329 329 329 329
319 319 320 319 319 320 321 321 320 320 320 320 320 320 321 322 323 323 324 326 325 326 326 326 326 326 325 325 325 327 328 328 327 327 327 328 328 328 328 329 329 329
318 319 319 319 320 320 320 320 319 319 319 319 319 320 320 322 322 322 323 325 325 325 325 326 326 325 325 326 326 327 328 328 328 327 327 327 327 328 329 329 329 329
318 319 319 320 320 319 319 318 318 318 317 318 318 319 319 320 320 321 322 324 324 325 325 325 325 325 325 326 327 328 328 328 327 327 327 327 327 328 329 329 329 329
318 319 320 319 318 318 317 317 318 318 318 318 319 319 319 320 320 320 321 322 323 324 324 325 325 325 326 327 327 327 327 327 327 326 326 326 327 328 328 328 328 329
318 319 318 317 317 317 318 319 319 319 319 319 320 320 320 320 320 320 320 321 322 323 324 324 325 325 326 327 326 326 326 326 326 326 326 327 327 328 328 328 328 328
318 317 317 317 318 318 319 319 319 319 319 319 320 320 320 320 320 321 321 321 322 324 324 324 324 325 326 327 326 325 325 325 325 325 326 326 326 327 327 328 328 328
317 317 317 318 318 318 318 318 318 318 318 319 320 320 321 321 320 321 322 322 323 323 324 324 325 325 325 325 325 324 324 324 325 325 326 326 325 325 326 327 327 327
317 317 318 318 317 317 317 317 317 317 317 318 319 320 321 320 320 321 322 322 323 324 324 325 324 324 323 324 324 323 323 324 323 324 325 325 325 325 326 326 327 327
317 317 318 317 316 315 316 316 316 316 317 318 319 320 320 320 320 321 322 322 323 324 324 323 323 322 322 322 322 322 323 323 323 323 323 323 324 324 325 326 326 326
317 317 317 316 315 315 315 315 315 317 318 319 319 320 320 320 320 321 322 322 322 322 321 321 320 319 318 318 319 319 320 320 321 322 322 323 323 324 324 325 325 325
315 317 317 316 315 315 314 314 315 316 318 319 319 320 320 319 319 320 320 320 319 318 318 317 317 316 316 316 316 316 317 317 318 318 319 320 322 323 324 324 324 324
315 316 317 316 315 314 314 314 314 316 317 318 319 320 320 319 319 320 319 318 316 316 316 316 316 315 315 315 315 315 315 316 316 316 316 317 319 321 322 322 322 323
314 315 315 315 314 314 313 313 314 315 316 317 318 319 319 318 318 318 318 316 316 315 315 315 316 316 315 315 315 315 315 315 315 316 316 316 317 319 320 320 320 320
314 314 314 314 313 313 313 313 313 314 315 316 317 317 317 317 316 317 317 316 316 315 315 315 315 315 315 314 314 314 314 315 315 316 317 316 316 316 316 316 316 316
313 314 314 314 313 312 313 313 313 314 315 315 316 316 316 315 316 316 316 315 314 314 314 314 314 314 314 314 314 314 315 315 315 315 316 316 315 314 314 315 315 315
312 313 313 313 313 312 312 313 313 314 314 315 315 315 315 315 315 315 314 313 312 312 312 312 312 312 313 313 314 314 314 314 313 313 315 315 315 314 314 314 315 316

ECMWFNIL_850_thetae_120.txt.gz
Theta_e
332 331 331 331 331 330 329 328 327 326 325 325 325 326 325 325 324 324 324 324 325 324 324 324 325 325 325 325 324 323 324 325 325 325 325 325 325 324 323 325 328 329
332 332 332 331 330 329 328 327 325 325 325 325 326 326 325 324 324 323 323 323 323 324 324 325 325 325 325 324 323 323 324 325 325 325 325 325 325 325 326 326 327 328
332 331 331 329 328 327 326 324 324 324 324 324 324 324 323 323 322 323 323 324 325 325 325 325 326 325 324 324 323 323 324 324 325 325 325 325 325 326 327 326 327 328
331 330 329 327 326 325 324 323 323 323 322 322 322 322 322 323 323 324 324 324 325 325 325 325 325 325 324 323 324 323 324 324 325 326 326 326 326 327 327 327 328 328
330 330 328 326 325 324 323 322 321 321 321 321 322 322 323 323 323 323 323 323 324 324 325 325 325 325 323 324 324 324 324 324 325 326 326 327 327 327 327 327 328 328
329 328 326 324 324 323 322 321 321 321 321 322 323 323 323 322 321 321 321 322 322 323 324 325 325 325 324 324 325 324 324 325 325 325 326 327 328 328 328 328 328 329
326 325 324 323 322 322 321 321 321 321 321 322 323 322 321 320 320 321 321 322 322 322 324 325 325 325 325 325 325 325 325 325 326 326 326 326 327 327 328 328 329 329
323 322 322 321 321 321 321 321 320 321 321 322 321 320 320 319 320 321 322 322 322 323 324 325 325 325 326 326 325 325 326 326 325 326 327 327 327 327 328 328 329 329
321 321 321 320 320 320 320 320 320 320 320 320 319 319 319 319 320 321 321 321 322 323 325 325 325 325 325 325 325 325 326 326 327 327 327 328 328 328 328 328 328 328
320 320 320 319 319 319 320 320 320 320 319 319 318 318 318 319 319 320 321 321 322 324 324 324 325 325 325 325 326 326 327 327 328 328 328 328 328 328 328 328 328 328
319 319 319 319 319 320 319 319 318 318 317 317 317 317 318 319 319 320 320 321 322 323 324 324 325 325 325 325 326 327 327 327 328 328 328 327 327 328 328 328 328 328
318 318 319 319 319 319 318 317 317 317 317 317 317 318 318 319 320 320 320 321 322 322 323 324 324 325 326 326 327 326 326 327 327 327 327 327 327 327 328 328 328 328
318 319 319 319 318 317 317 317 318 318 318 318 319 319 319 319 320 320 320 320 321 322 323 324 325 325 326 327 326 325 326 326 326 327 327 327 327 327 328 328 328 328
318 318 318 317 317 317 318 318 318 318 319 319 319 320 320 320 320 320 320 320 321 323 324 324 325 326 326 326 325 325 325 325 325 326 326 327 327 327 327 327 327 327
317 317 317 317 318 318 318 318 318 318 318 319 320 320 321 321 320 320 321 321 322 323 323 322 323 324 324 324 323 323 324 324 325 325 326 326 326 326 327 327 327 327
317 317 318 318 318 318 318 317 317 318 318 319 319 320 320 320 320 321 321 322 323 323 322 321 322 323 323 322 322 322 323 323 323 324 325 325 325 325 326 326 326 327
317 317 318 317 317 317 317 316 317 317 318 318 319 319 319 319 319 321 322 323 324 323 321 321 321 321 321 321 321 322 322 323 323 323 324 324 324 325 325 325 326 326
317 317 317 316 316 315 315 316 317 318 319 319 319 319 319 319 321 322 323 323 323 321 320 319 318 317 317 318 318 319 320 321 322 322 323 324 324 324 324 325 325 325
317 317 316 315 314 314 315 316 317 318 319 319 318 319 319 320 321 321 321 320 319 318 317 316 315 315 315 315 316 316 317 318 319 321 322 323 323 323 323 323 324 324
317 316 315 314 314 313 314 316 317 318 319 318 318 318 318 318 318 318 317 317 316 315 315 315 314 314 314 314 314 315 315 316 317 318 320 321 321 321 321 322 322 322
316 315 315 314 313 313 314 315 317 318 318 317 317 318 317 317 316 316 315 315 315 315 314 314 314 314 314 314 315 315 316 316 317 318 319 319 319 319 319 320 320 321
316 315 314 313 313 313 313 314 316 316 316 316 316 316 316 315 315 315 315 315 315 314 314 313 314 314 314 314 315 316 316 315 316 316 317 317 317 317 317 318 318 319
316 315 314 313 313 312 312 313 315 315 315 315 315 315 315 314 315 314 314 314 314 313 313 313 314 314 314 314 314 315 315 314 314 315 315 315 316 316 316 316 317 317
315 314 313 313 312 312 312 313 314 314 314 314 314 314 314 314 313 313 313 312 312 312 313 313 313 313 313 312 313 313 313 313 313 313 313 314 315 315 315 315 315 315
314 313 313 312 312 312 312 313 314 314 313 313 313 313 313 313 312 312 311 311 311 311 312 312 312 311 311 311 311 312 312 312 312 312 312 313 314 314 314 314 313 313
313 313 313 312 312 313 313 313 314 313 313 312 312 312 312 312 311 311 311 310 310 311 311 311 311 310 310 310 310 310 311 311 312 312 312 312 313 313 313 313 313 312

ECMWFNIL_850_thetae_123.txt.gz
Theta_e
332 332 332 332 331 330 330 329 326 323 322 322 321 320 320 320 320 320 320 321 321 322 323 323 324 324 324 325 325 325 323 323 323 324 324 325 326 327 326 326 326 325
333 332 331 331 330 330 329 328 325 323 322 321 320 319 319 319 320 321 321 321 321 322 322 322 322 323 324 325 325 324 323 323 323 324 324 324 326 327 327 326 326 326
332 331 331 330 330 329 329 326 324 322 321 320 319 319 320 320 321 321 321 320 320 320 320 320 321 323 325 325 325 323 323 323 323 324 325 325 325 326 327 326 326 327
331 331 331 330 330 330 328 326 323 321 320 319 319 320 320 321 321 321 320 319 319 320 320 321 322 324 325 325 324 324 324 325 325 325 326 326 325 326 327 327 327 327
330 330 330 329 330 328 326 323 321 319 320 319 320 321 321 321 320 319 319 319 320 320 320 321 322 324 325 324 325 325 325 326 326 325 326 327 326 326 326 327 327 327
329 328 328 328 328 326 323 321 320 320 320 319 320 321 321 320 319 318 319 319 320 320 319 321 323 324 325 325 325 325 325 326 327 326 326 326 326 327 327 327 327 328
327 326 326 327 326 323 321 320 320 319 320 320 320 320 319 318 318 318 319 319 320 320 320 322 324 324 325 325 325 325 325 326 327 327 327 327 327 327 327 327 327 328
325 325 325 324 322 320 319 319 320 320 319 319 318 318 317 317 318 318 319 320 320 321 322 323 324 324 324 324 324 325 326 326 327 327 328 327 327 327 327 327 328 327
323 323 323 321 320 319 319 319 319 319 318 317 317 317 317 317 318 319 319 320 321 321 323 324 324 324 324 325 325 326 326 326 327 327 327 327 327 327 327 328 327 327
321 321 320 319 319 319 319 319 318 318 317 317 318 318 318 318 319 319 320 320 321 321 322 323 323 324 325 326 326 326 325 326 327 327 327 327 327 327 327 327 327 327
319 319 319 319 319 319 318 318 317 318 318 318 319 319 319 319 319 320 320 320 321 322 322 322 323 324 326 326 325 325 325 325 326 326 327 327 327 327 327 328 328 328
318 318 318 319 318 317 317 318 318 318 319 319 319 319 320 319 320 320 320 321 321 322 322 322 323 325 326 325 324 324 324 324 325 325 326 326 326 327 327 327 328 327
318 318 318 318 317 317 318 318 318 318 319 319 319 320 320 320 320 320 321 321 321 321 321 322 324 325 324 323 323 323 323 324 324 325 326 325 326 326 326 327 327 327
318 318 318 317 318 318 318 318 318 318 318 319 319 319 320 320 320 321 322 322 321 321 322 322 323 323 322 322 322 322 323 323 323 324 325 325 325 325 325 326 326 326
317 317 317 318 318 318 318 318 318 318 318 319 319 319 319 319 321 322 322 321 321 321 321 320 319 319 319 319 320 321 322 322 322 323 324 324 324 324 325 325 325 325
317 318 318 318 317 317 317 318 318 318 318 318 318 319 319 320 321 322 321 320 319 318 317 316 316 316 316 316 317 317 319 320 322 323 323 324 324 324 324 324 325 325
318 317 317 316 316 317 317 317 318 318 318 318 318 319 321 322 322 321 320 318 316 315 315 315 315 314 314 315 315 316 317 318 320 322 322 323 323 323 323 324 324 324
317 316 316 316 316 317 317 318 317 317 317 318 319 320 321 321 320 319 317 315 314 314 314 314 314 315 315 315 315 316 317 318 319 321 321 321 321 322 322 323 323 323
317 315 315 315 316 317 317 317 317 317 317 318 318 319 319 318 317 316 315 314 314 314 314 314 315 315 316 316 315 316 317 318 319 319 319 320 320 320 320 320 320 320
316 315 314 314 315 316 316 316 316 316 317 317 317 317 316 316 315 315 314 313 313 314 314 314 315 315 315 315 315 316 317 317 318 318 318 318 317 317 317 317 317 317
315 314 313 313 315 315 316 316 315 315 316 316 316 315 315 315 315 314 313 313 313 313 313 313 314 314 314 314 315 315 316 316 316 316 316 316 315 315 315 315 315 316
314 313 313 313 314 314 315 315 315 314 314 315 315 315 315 314 314 313 313 313 313 313 312 312 312 313 313 313 313 314 314 315 315 314 314 314 314 314 314 314 314 314
313 313 313 312 313 313 314 314 314 313 313 313 313 313 314 313 313 313 313 313 312 312 312 312 311 311 311 312 312 312 312 313 314 313 313 313 313 313 313 313 313 313
313 313 312 312 312 313 313 313 312 312 312 312 312 312 313 312 311 312 312 312 312 311 311 311 311 310 311 311 312 312 311 312 313 313 312 312 312 312 312 311 311 311
313 312 312 312 313 313 313 312 312 311 311 311 311 311 311 311 311 311 311 311 311 311 310 310 310 310 310 311 311 311 311 311 312 312 311 311 311 311 311 311 310 310
313 313 312 313 313 313 312 312 311 311 311 310 310 311 311 311 311 311 311 310 310 310 310 309 309 309 309 309 310 310 311 311 311 311 311 311 311 311 311 310 310 310